[[{"header":{"parameterUnit":"m.s-1","parameterCategory":1,"la1":30.6,"la2":29.2853,"lo1":-89.7004,"lo2":-87.6739,"dy":0.0162,"dx":0.0183,"nx":112,"ny":82,"refTime":"2023-04-06T12:00:00:Z","depth":0,"parameterNumber":2,"parameterNumberName":"U-component_of_WINDS"},"data":[0.0,0.0,0.0,0.0,0.0,0.0,0.0,0.0,0.0,0.0,0.0,0.0,0.0,0.0,0.0,0.0,0.0,0.0,0.0,0.0,0.0,0.0,0.0,0.0,0.0,0.0,0.0,0.0,0.0,0.0,0.0,0.0,0.0,0.0,0.0,0.0,0.0,0.0,0.0,0.0,0.0,0.0,0.0,0.0,0.0,0.0,0.0,0.0,0.0,0.0,0.0,0.0,0.0,0.0,0.0,0.0,0.0,0.0,0.0,0.0,0.0,0.0,0.0,0.0,0.0,0.0,0.0,0.0,0.0,0.0,0.0,0.0,0.0,0.0,0.0,0.0,0.0,0.0,0.0,0.0,0.0,0.0,0.0,0.0,0.0,0.0,0.0,0.0,0.0,0.0,4.7549,4.8218,4.8308,4.8068,4.7489,4.7459,4.7429,4.7298,0.0,0.0,0.0,0.0,0.0,0.0,0.0,0.0,0.0,0.0,0.0,0.0,0.0,0.0,0.0,0.0,0.0,0.0,0.0,0.0,0.0,0.0,0.0,0.0,0.0,0.0,0.0,0.0,0.0,0.0,0.0,0.0,0.0,0.0,0.0,0.0,0.0,0.0,0.0,0.0,0.0,0.0,0.0,0.0,0.0,0.0,0.0,0.0,0.0,0.0,0.0,0.0,0.0,0.0,0.0,0.0,0.0,0.0,0.0,0.0,0.0,0.0,0.0,0.0,0.0,0.0,0.0,0.0,0.0,0.0,0.0,0.0,0.0,0.0,0.0,0.0,0.0,0.0,0.0,0.0,0.0,0.0,0.0,0.0,0.0,0.0,0.0,0.0,0.0,0.0,0.0,0.0,0.0,0.0,0.0,0.0,0.0,0.0,0.0,0.0,0.0,0.0,0.0,0.0,4.7549,4.8218,4.8308,4.8248,4.8158,4.8158,4.7919,4.7339,0.0,0.0,0.0,0.0,0.0,0.0,0.0,0.0,0.0,0.0,0.0,0.0,0.0,0.0,0.0,0.0,0.0,0.0,0.0,0.0,0.0,0.0,0.0,0.0,0.0,0.0,0.0,0.0,0.0,0.0,0.0,0.0,0.0,0.0,0.0,0.0,0.0,0.0,0.0,0.0,0.0,0.0,0.0,0.0,0.0,0.0,0.0,0.0,0.0,0.0,0.0,0.0,0.0,0.0,0.0,0.0,0.0,0.0,0.0,0.0,0.0,0.0,0.0,0.0,0.0,0.0,0.0,0.0,0.0,0.0,0.0,0.0,0.0,0.0,0.0,0.0,0.0,0.0,0.0,0.0,0.0,0.0,0.0,0.0,0.0,0.0,0.0,0.0,0.0,0.0,0.0,0.0,0.0,0.0,0.0,0.0,0.0,0.0,0.0,0.0,0.0,0.0,0.0,4.7938,4.8218,4.7788,4.8704,4.8884,4.7848,4.8098,4.8008,4.7339,4.7309,0.0,0.0,0.0,0.0,0.0,0.0,0.0,0.0,0.0,0.0,0.0,0.0,0.0,0.0,0.0,0.0,0.0,0.0,0.0,0.0,0.0,0.0,0.0,0.0,0.0,0.0,0.0,0.0,0.0,0.0,0.0,0.0,0.0,0.0,0.0,0.0,0.0,0.0,0.0,0.0,0.0,0.0,0.0,0.0,0.0,0.0,0.0,0.0,0.0,0.0,0.0,0.0,0.0,0.0,0.0,0.0,0.0,0.0,0.0,0.0,0.0,0.0,0.0,0.0,0.0,0.0,0.0,0.0,0.0,0.0,0.0,0.0,0.0,0.0,0.0,0.0,0.0,0.0,0.0,0.0,0.0,0.0,0.0,0.0,0.0,0.0,0.0,0.0,0.0,0.0,0.0,0.0,0.0,0.0,0.0,0.0,0.0,0.0,0.0,0.0,0.0,0.0,4.8338,4.8678,4.7638,4.9004,4.9321,4.7668,4.8008,4.8008,4.7339,4.7309,0.0,0.0,0.0,0.0,0.0,0.0,0.0,0.0,0.0,0.0,0.0,0.0,0.0,0.0,0.0,0.0,0.0,0.0,0.0,0.0,0.0,0.0,0.0,0.0,0.0,0.0,0.0,0.0,0.0,0.0,0.0,0.0,0.0,0.0,0.0,0.0,0.0,0.0,0.0,0.0,0.0,0.0,0.0,0.0,0.0,0.0,0.0,0.0,0.0,0.0,0.0,0.0,0.0,0.0,0.0,0.0,0.0,0.0,0.0,0.0,0.0,0.0,0.0,0.0,0.0,0.0,0.0,0.0,0.0,0.0,0.0,0.0,0.0,0.0,0.0,0.0,0.0,0.0,0.0,0.0,0.0,0.0,0.0,0.0,0.0,0.0,0.0,0.0,0.0,0.0,0.0,0.0,0.0,0.0,0.0,0.0,0.0,0.0,0.0,0.0,0.0,0.0,4.7919,4.8338,4.8248,4.8917,4.9067,4.8278,4.8278,4.8008,4.7339,4.7309,0.0,0.0,0.0,0.0,0.0,0.0,0.0,0.0,0.0,0.0,0.0,0.0,0.0,0.0,0.0,0.0,0.0,0.0,0.0,0.0,0.0,0.0,0.0,0.0,0.0,0.0,0.0,0.0,0.0,0.0,0.0,0.0,0.0,0.0,0.0,0.0,0.0,0.0,0.0,0.0,0.0,0.0,0.0,0.0,0.0,0.0,0.0,0.0,0.0,0.0,0.0,0.0,0.0,0.0,0.0,0.0,0.0,0.0,0.0,0.0,0.0,0.0,0.0,0.0,0.0,0.0,0.0,0.0,0.0,0.0,0.0,0.0,0.0,0.0,0.0,0.0,0.0,0.0,0.0,0.0,0.0,0.0,0.0,0.0,0.0,0.0,0.0,0.0,0.0,0.0,0.0,0.0,0.0,0.0,0.0,0.0,0.0,0.0,0.0,0.0,0.0,0.0,4.7889,4.8308,4.8308,4.8887,4.9048,4.8368,4.7744,4.7347,4.7296,0.0,0.0,0.0,0.0,0.0,0.0,0.0,0.0,0.0,0.0,0.0,0.0,0.0,0.0,0.0,0.0,0.0,0.0,0.0,0.0,0.0,0.0,0.0,0.0,0.0,0.0,0.0,0.0,0.0,0.0,0.0,0.0,0.0,0.0,0.0,0.0,0.0,0.0,0.0,0.0,0.0,0.0,0.0,0.0,0.0,0.0,0.0,0.0,0.0,0.0,0.0,0.0,0.0,0.0,0.0,0.0,0.0,0.0,0.0,0.0,0.0,0.0,0.0,0.0,0.0,0.0,0.0,0.0,0.0,0.0,0.0,0.0,0.0,0.0,0.0,0.0,0.0,0.0,0.0,0.0,0.0,0.0,0.0,0.0,0.0,0.0,0.0,0.0,0.0,0.0,0.0,0.0,0.0,0.0,0.0,0.0,0.0,0.0,0.0,0.0,0.0,0.0,4.7309,4.8068,4.8528,4.8308,4.9056,4.9325,4.8678,4.7437,4.6945,4.7573,0.0,0.0,0.0,0.0,0.0,0.0,0.0,0.0,0.0,0.0,0.0,0.0,0.0,0.0,0.0,0.0,0.0,0.0,0.0,0.0,0.0,0.0,0.0,0.0,0.0,0.0,0.0,0.0,0.0,0.0,0.0,0.0,0.0,0.0,0.0,0.0,0.0,0.0,0.0,0.0,0.0,0.0,0.0,0.0,0.0,0.0,0.0,0.0,0.0,0.0,0.0,0.0,0.0,0.0,0.0,0.0,0.0,0.0,0.0,0.0,0.0,0.0,0.0,0.0,0.0,0.0,0.0,0.0,0.0,0.0,0.0,0.0,0.0,0.0,0.0,0.0,0.0,0.0,0.0,0.0,0.0,0.0,0.0,0.0,0.0,0.0,0.0,0.0,0.0,0.0,0.0,0.0,0.0,0.0,0.0,0.0,0.0,0.0,0.0,0.0,0.0,0.0,4.7287,4.8457,4.9037,4.8356,4.9441,4.9949,4.9355,4.7523,4.692,0.0,0.0,0.0,0.0,0.0,0.0,0.0,0.0,0.0,0.0,0.0,0.0,0.0,0.0,0.0,0.0,0.0,0.0,0.0,0.0,0.0,0.0,0.0,0.0,0.0,0.0,0.0,0.0,0.0,0.0,0.0,0.0,0.0,0.0,0.0,0.0,0.0,0.0,0.0,0.0,0.0,0.0,0.0,0.0,0.0,0.0,0.0,0.0,0.0,0.0,0.0,0.0,0.0,0.0,0.0,0.0,0.0,0.0,0.0,0.0,0.0,0.0,0.0,0.0,0.0,0.0,0.0,0.0,0.0,0.0,0.0,0.0,0.0,0.0,0.0,0.0,0.0,0.0,0.0,0.0,0.0,0.0,0.0,0.0,0.0,0.0,0.0,0.0,0.0,0.0,0.0,0.0,0.0,0.0,0.0,0.0,0.0,0.0,0.0,0.0,0.0,0.0,0.0,4.6322,4.7611,4.8421,4.7988,4.8928,4.9271,4.8582,4.6919,4.6175,4.6789,0.0,0.0,0.0,0.0,0.0,0.0,0.0,0.0,0.0,0.0,0.0,0.0,0.0,0.0,0.0,0.0,0.0,0.0,0.0,0.0,0.0,0.0,0.0,0.0,0.0,0.0,0.0,0.0,0.0,0.0,0.0,0.0,0.0,0.0,0.0,0.0,0.0,0.0,0.0,0.0,0.0,0.0,0.0,0.0,0.0,0.0,0.0,0.0,0.0,0.0,0.0,0.0,0.0,0.0,0.0,0.0,0.0,0.0,0.0,0.0,0.0,0.0,0.0,0.0,0.0,0.0,0.0,0.0,0.0,0.0,0.0,0.0,0.0,0.0,0.0,0.0,0.0,0.0,0.0,0.0,0.0,0.0,0.0,0.0,0.0,0.0,0.0,0.0,0.0,0.0,0.0,0.0,0.0,0.0,0.0,0.0,0.0,0.0,0.0,0.0,0.0,0.0,4.6213,4.6817,4.7265,4.7308,4.8102,4.8391,4.7806,4.6242,4.5447,4.5804,0.0,0.0,0.0,0.0,0.0,0.0,0.0,0.0,0.0,0.0,0.0,0.0,0.0,0.0,0.0,0.0,0.0,0.0,0.0,0.0,0.0,0.0,0.0,0.0,0.0,0.0,0.0,0.0,0.0,0.0,0.0,0.0,0.0,0.0,0.0,0.0,0.0,0.0,0.0,0.0,0.0,0.0,0.0,0.0,0.0,0.0,0.0,0.0,0.0,0.0,0.0,0.0,0.0,0.0,0.0,0.0,0.0,0.0,0.0,0.0,0.0,0.0,0.0,0.0,0.0,0.0,0.0,0.0,0.0,0.0,0.0,0.0,0.0,0.0,0.0,0.0,0.0,0.0,0.0,0.0,0.0,0.0,0.0,0.0,0.0,0.0,0.0,0.0,0.0,0.0,0.0,0.0,0.0,0.0,0.0,0.0,0.0,0.0,0.0,0.0,0.0,0.0,4.6449,4.6022,4.5857,4.6371,4.7108,4.7365,4.694,4.5585,4.4836,4.5094,0.0,0.0,0.0,0.0,0.0,0.0,0.0,0.0,0.0,0.0,0.0,0.0,0.0,0.0,0.0,0.0,0.0,0.0,0.0,0.0,0.0,0.0,0.0,0.0,0.0,0.0,0.0,0.0,0.0,0.0,0.0,0.0,0.0,0.0,0.0,0.0,0.0,0.0,0.0,0.0,0.0,0.0,0.0,0.0,0.0,0.0,0.0,0.0,0.0,0.0,0.0,0.0,0.0,0.0,0.0,0.0,0.0,0.0,0.0,0.0,4.022,4.0902,0.0,0.0,0.0,0.0,0.0,0.0,0.0,0.0,0.0,0.0,0.0,0.0,0.0,0.0,0.0,0.0,0.0,0.0,0.0,0.0,0.0,0.0,0.0,0.0,0.0,0.0,0.0,0.0,0.0,0.0,0.0,0.0,0.0,0.0,0.0,0.0,0.0,0.0,0.0,0.0,4.5147,4.5294,4.5283,4.5047,4.634,4.6735,4.5542,4.5116,4.456,4.3681,4.3521,0.0,0.0,0.0,0.0,0.0,0.0,0.0,0.0,0.0,0.0,0.0,0.0,0.0,0.0,0.0,0.0,0.0,0.0,0.0,0.0,0.0,0.0,0.0,0.0,0.0,0.0,0.0,0.0,0.0,0.0,0.0,0.0,0.0,0.0,0.0,0.0,0.0,0.0,0.0,0.0,0.0,0.0,0.0,0.0,0.0,0.0,0.0,0.0,0.0,0.0,0.0,0.0,0.0,0.0,0.0,0.0,0.0,0.0,0.0,4.0071,4.0509,0.0,0.0,0.0,0.0,0.0,0.0,0.0,0.0,0.0,0.0,0.0,0.0,0.0,0.0,0.0,0.0,0.0,0.0,0.0,0.0,0.0,0.0,0.0,0.0,0.0,0.0,0.0,0.0,0.0,0.0,0.0,0.0,0.0,0.0,0.0,0.0,0.0,0.0,0.0,0.0,4.4379,4.3924,4.3688,4.3988,4.4797,4.4968,4.4126,4.4167,4.3793,4.2767,4.301,0.0,0.0,0.0,0.0,0.0,0.0,0.0,0.0,0.0,0.0,0.0,0.0,0.0,0.0,0.0,0.0,0.0,0.0,0.0,0.0,0.0,0.0,0.0,0.0,0.0,0.0,0.0,0.0,0.0,0.0,0.0,0.0,0.0,0.0,0.0,0.0,0.0,0.0,0.0,0.0,0.0,0.0,0.0,0.0,0.0,0.0,0.0,0.0,0.0,0.0,0.0,0.0,0.0,3.994,3.9935,3.9321,3.9815,3.9667,3.9021,3.9744,3.9738,3.9267,3.9926,0.0,0.0,0.0,0.0,0.0,0.0,0.0,0.0,0.0,0.0,0.0,0.0,0.0,0.0,0.0,0.0,0.0,0.0,0.0,0.0,0.0,0.0,4.1585,4.2007,4.214,4.22,4.2272,0.0,0.0,0.0,0.0,0.0,0.0,0.0,0.0,0.0,0.0,0.0,4.3801,4.2683,4.217,4.321,4.3337,4.324,4.3028,4.3198,4.2962,4.2098,4.2651,4.2749,0.0,0.0,0.0,0.0,0.0,0.0,0.0,0.0,0.0,0.0,0.0,0.0,0.0,0.0,0.0,0.0,0.0,0.0,0.0,0.0,0.0,0.0,0.0,0.0,0.0,0.0,0.0,0.0,0.0,0.0,0.0,0.0,3.7205,3.8683,0.0,0.0,0.0,0.0,0.0,0.0,0.0,0.0,0.0,0.0,0.0,0.0,0.0,3.9106,3.9885,3.9716,3.9633,3.9721,3.9836,3.998,4.0139,4.0219,4.0196,4.0093,4.0196,0.0,3.857,3.9179,0.0,0.0,0.0,0.0,0.0,0.0,0.0,0.0,0.0,0.0,0.0,0.0,0.0,0.0,0.0,0.0,0.0,0.0,0.0,0.0,0.0,0.0,4.1892,4.2045,4.2326,4.2397,4.1908,4.1489,4.1247,4.1402,4.1774,4.2181,0.0,0.0,0.0,0.0,0.0,0.0,4.3254,4.2647,4.2366,4.2995,4.3031,4.3056,4.3014,4.3042,4.259,4.1478,4.1983,4.2267,4.2109,4.1144,0.0,0.0,0.0,0.0,0.0,0.0,0.0,0.0,0.0,0.0,0.0,0.0,0.0,0.0,0.0,0.0,0.0,0.0,0.0,0.0,0.0,0.0,0.0,0.0,0.0,0.0,0.0,0.0,0.0,3.722,3.7549,3.9242,3.8436,3.82,0.0,0.0,0.0,0.0,0.0,0.0,0.0,0.0,0.0,3.8988,3.9299,3.9705,4.0159,4.0302,4.0105,3.9585,4.0079,4.0117,3.9822,4.0153,4.0216,4.0085,4.0085,3.9682,3.9096,3.9439,3.9512,3.9419,0.0,0.0,0.0,0.0,3.9782,3.9727,3.9363,3.9292,3.932,3.9002,0.0,0.0,0.0,0.0,0.0,0.0,0.0,4.1046,4.1487,4.1773,4.2057,4.2503,4.2709,4.2753,4.2501,4.1836,4.1261,4.1102,4.1248,4.1561,4.209,4.1975,0.0,0.0,0.0,4.1299,4.1841,4.1784,4.1907,4.2487,4.2813,4.3014,4.3014,4.3014,4.2774,4.2283,4.221,4.219,4.2165,4.1382,4.1026,0.0,0.0,0.0,0.0,0.0,0.0,0.0,0.0,0.0,0.0,0.0,0.0,0.0,0.0,0.0,0.0,0.0,0.0,0.0,0.0,0.0,0.0,0.0,0.0,0.0,0.0,0.0,0.0,3.7531,3.7778,3.9581,3.8704,3.8386,0.0,0.0,0.0,0.0,0.0,0.0,3.8686,3.9103,3.9416,3.9497,4.0014,4.0443,4.0739,4.1036,4.0816,4.0112,4.0763,4.0819,4.0326,4.08,4.0862,4.0692,4.0546,4.0318,4.0001,3.9653,3.9394,3.9229,3.9067,3.9058,3.9114,3.918,3.9203,3.9136,3.8749,3.8688,3.8789,3.8512,3.8587,3.8906,3.9247,0.0,0.0,0.0,0.0,4.1306,4.1708,4.1864,4.2061,4.2739,4.2956,4.3014,4.3014,4.2333,4.1596,4.1104,4.0777,4.0785,4.1423,4.0845,0.0,4.1394,4.0887,4.0563,4.0954,4.1324,4.1742,4.2336,4.2498,4.2624,4.2788,4.2649,4.2573,4.2573,4.2197,4.2034,4.2199,4.1617,4.1177,4.0927,0.0,0.0,0.0,0.0,0.0,0.0,0.0,0.0,0.0,0.0,0.0,0.0,0.0,0.0,0.0,0.0,0.0,0.0,0.0,0.0,0.0,0.0,0.0,0.0,0.0,0.0,0.0,0.0,0.0,3.9561,3.8472,0.0,0.0,0.0,0.0,3.9277,3.9351,3.9386,3.936,3.95,4.0044,4.1041,4.0865,4.112,4.1912,4.1766,4.1806,4.2067,4.2106,4.2381,4.2827,4.2853,4.2853,4.2814,4.2303,4.1741,4.1102,3.9452,3.8909,3.904,3.847,3.8406,3.867,3.8841,3.8919,3.8886,3.8654,3.8613,3.8534,3.8083,3.8228,3.8731,3.9325,3.9795,0.0,0.0,4.0718,4.0813,4.1159,4.1412,4.1788,4.2447,4.2817,4.3014,4.3014,4.295,4.2598,4.1491,4.0463,3.9851,4.0147,0.0,3.9826,4.016,4.08,4.124,4.1291,4.1795,4.2375,4.2914,4.2019,4.1617,4.2199,4.1717,4.1389,4.1389,4.1364,4.1592,4.2174,4.1617,4.1567,4.2098,4.1053,0.0,0.0,0.0,0.0,0.0,0.0,0.0,0.0,0.0,0.0,0.0,0.0,0.0,0.0,0.0,0.0,0.0,0.0,0.0,0.0,0.0,0.0,0.0,0.0,0.0,0.0,0.0,0.0,4.0399,3.9811,0.0,4.0324,4.007,3.9884,3.9937,4.0018,4.0034,4.0034,4.0469,4.1045,4.1822,4.176,4.1998,4.2639,4.2562,4.2616,4.2709,4.2709,4.2801,4.2997,4.2997,4.2997,4.2997,4.2801,4.2396,4.1807,4.0801,4.0001,3.9404,3.9168,3.9175,3.9257,3.9313,3.9359,3.9348,3.928,3.9245,3.9143,3.86,3.8303,3.8212,3.8568,3.9324,4.0067,4.016,4.0735,4.137,4.1499,4.1712,4.204,4.2485,4.2806,4.3014,4.3014,4.2738,4.2375,4.1945,4.1582,4.1106,4.0456,4.0553,4.0639,4.0405,4.0892,4.1289,4.1289,4.1845,4.2274,4.2475,4.2423,4.2347,4.2199,4.2009,4.1706,4.1314,4.1289,4.1403,4.1617,4.1403,4.1403,4.1617,4.0889,4.0512,0.0,0.0,0.0,0.0,0.0,0.0,0.0,0.0,0.0,0.0,0.0,0.0,0.0,0.0,0.0,0.0,0.0,0.0,0.0,0.0,0.0,0.0,0.0,0.0,0.0,3.9144,3.9684,4.0812,4.071,4.0707,4.106,4.0796,4.0602,4.0632,4.1026,4.1285,4.1285,4.1847,4.2526,4.3324,4.3141,4.3415,4.416,4.4199,4.4199,4.4199,4.4199,4.4199,4.416,4.3977,4.3885,4.3872,4.348,4.3114,4.2748,4.2134,4.1442,4.0684,3.99,3.9587,3.9587,3.9587,3.9587,3.9587,3.9587,3.9587,3.9535,3.9117,3.8751,3.8498,3.8635,3.935,4.0125,4.0075,4.0785,4.1604,4.1812,4.1969,4.2217,4.263,4.2875,4.3014,4.3014,4.2713,4.2475,4.2475,4.216,4.1669,4.0914,4.1063,4.1188,4.0826,4.124,4.1592,4.1592,4.1959,4.2274,4.245,4.2448,4.2283,4.192,4.1895,4.1656,4.1076,4.1026,4.1127,4.1289,4.1127,4.1127,4.1289,4.0775,4.0412,4.0236,0.0,0.0,0.0,0.0,0.0,0.0,0.0,0.0,0.0,0.0,0.0,0.0,0.0,0.0,0.0,0.0,0.0,0.0,0.0,0.0,0.0,0.0,0.0,3.8955,3.9242,3.9823,4.0749,4.1039,4.1228,4.1388,4.1262,4.1242,4.1363,4.2435,4.3049,4.3049,4.3637,4.4474,4.5583,4.506,4.5309,4.6487,4.6501,4.6501,4.6501,4.6501,4.6501,4.6461,4.5884,4.5609,4.5531,4.4448,4.3964,4.3886,4.331,4.3062,4.2827,4.058,3.9718,3.9718,3.9718,3.9718,3.9691,3.9677,3.9639,3.9639,3.9639,3.9613,3.9587,3.9587,3.9979,4.0397,4.0397,4.0841,4.1442,4.2029,4.2164,4.2295,4.2873,4.3037,4.3065,4.3025,4.3039,4.3065,4.3065,4.2169,4.1389,4.1364,4.1364,4.1364,4.1364,4.187,0.0,4.2238,4.2249,4.245,4.2964,4.2044,4.1364,4.1339,4.1339,4.1127,4.0538,4.0512,4.0738,4.1214,4.075,4.0738,4.1264,4.08,4.0287,3.9747,0.0,0.0,0.0,0.0,0.0,0.0,0.0,0.0,0.0,0.0,0.0,0.0,0.0,0.0,0.0,0.0,0.0,0.0,0.0,0.0,0.0,3.8704,3.9451,3.9809,4.0671,4.1554,4.2327,4.2445,4.2655,4.3127,4.3153,4.3153,4.318,4.3833,4.4225,4.4225,4.4799,4.548,4.6212,4.6095,4.6173,4.6501,4.6501,4.6501,4.6501,4.6501,4.6501,4.6487,4.633,4.6003,4.5609,4.5729,4.5284,4.4473,4.4356,4.4056,4.3559,4.2487,4.2069,4.2069,4.2069,4.2069,4.1965,4.1129,4.0841,4.0763,4.0318,3.9927,3.9587,3.9587,3.9979,4.0397,4.0397,4.0841,4.1442,4.2029,4.2462,4.2796,4.2963,4.3593,4.4052,4.3664,4.389,4.4152,4.4152,4.3926,4.3449,4.266,4.2861,4.2972,4.2585,4.3,4.3226,4.2838,4.3126,4.3427,4.3564,4.3313,4.2961,4.2559,4.2534,4.1957,4.0588,4.0512,4.0387,4.0149,3.9998,4.0161,4.07,4.1393,4.1443,0.0,0.0,0.0,0.0,0.0,0.0,0.0,0.0,0.0,0.0,0.0,0.0,0.0,0.0,0.0,0.0,0.0,0.0,0.0,0.0,0.0,0.0,3.9502,4.0562,4.1591,4.2145,4.2756,4.3611,4.3951,4.4316,4.4918,4.4984,4.4984,4.4984,4.5492,4.5792,4.5792,4.6131,4.659,4.7193,4.6984,4.6958,4.7193,4.7219,4.7219,4.7219,4.7219,4.7219,4.7193,4.6944,4.6642,4.6314,4.6461,4.6095,4.5454,4.5218,4.5075,4.4854,0.0,0.0,0.0,0.0,4.2997,4.2879,4.1977,4.1664,4.1585,4.0972,4.058,4.0345,4.0618,4.0918,4.1193,4.1442,4.1743,4.2148,4.2761,4.3122,4.3411,4.3641,4.4176,4.4514,4.4202,4.4378,4.4589,4.4589,4.4805,0.0,4.4156,4.3905,4.3765,4.3689,4.3539,4.3427,4.3352,4.3402,4.3539,4.379,4.3589,4.3327,4.3039,4.3014,0.0,0.0,0.0,4.0953,4.0387,4.0362,0.0,0.0,0.0,4.1656,4.1289,4.1542,0.0,0.0,4.1455,4.1582,0.0,0.0,0.0,0.0,0.0,0.0,0.0,0.0,0.0,0.0,0.0,0.0,0.0,0.0,0.0,0.0,4.0659,4.2186,4.386,4.3676,4.3768,4.4773,4.5388,4.5963,4.6618,4.6684,4.6722,4.6789,4.7217,4.7464,4.7411,4.7411,0.0,0.0,0.0,4.7792,4.8396,4.8396,4.8396,4.8396,4.8344,4.8291,4.8291,4.7687,4.7359,4.7281,4.6879,4.6644,4.6539,4.5973,4.6025,4.6236,4.412,4.3258,4.318,4.3101,4.3141,4.3114,4.2487,0.0,0.0,4.169,4.1494,4.1599,4.2134,4.2291,4.2395,4.2853,4.2997,4.3141,4.3742,4.3886,4.3963,4.4487,4.4686,4.4708,4.4629,4.469,4.479,4.479,4.5206,4.5587,4.5587,4.4694,4.4166,4.4629,4.389,4.3427,4.384,4.3528,4.3452,4.394,4.3578,0.0,4.3277,4.3277,4.2573,4.0889,4.1594,4.187,4.1314,4.1378,4.1403,4.1403,4.1464,4.1503,4.149,4.2096,4.2626,4.3076,4.2587,4.2375,0.0,0.0,0.0,0.0,0.0,0.0,0.0,0.0,0.0,0.0,0.0,0.0,0.0,0.0,0.0,4.1191,4.2546,4.3846,4.51,4.5584,4.5912,4.6121,4.6252,4.6722,4.7768,4.7873,4.8082,4.8553,4.871,4.8538,4.8056,4.8015,4.8303,4.8919,4.8814,4.9023,4.9572,4.9572,4.9572,4.9572,4.9128,0.0,4.8893,4.8303,4.7766,4.7333,4.7702,4.7597,4.711,4.6803,4.6443,4.6031,4.537,4.4799,4.4329,4.3899,4.399,4.4225,4.3193,4.3154,4.3467,4.2853,4.2657,4.2696,4.2801,4.2853,0.0,4.2984,4.2997,4.3141,4.3742,4.4048,4.4174,4.4083,4.4882,4.5449,4.4748,4.5332,4.5959,4.5959,4.606,4.615,4.615,4.5598,4.5211,4.5296,4.516,4.4884,4.4503,4.4769,4.506,4.516,4.5085,4.501,4.501,4.501,4.4306,4.2624,4.1868,4.1428,4.1289,4.1756,4.2034,4.2034,4.2448,4.2674,4.2674,4.3226,4.3539,4.3639,4.3553,4.3503,0.0,0.0,0.0,0.0,0.0,0.0,0.0,0.0,0.0,0.0,0.0,3.8361,3.8982,0.0,4.1094,4.2688,4.3743,4.484,4.6236,4.697,4.7245,4.6944,4.7167,4.769,4.8579,4.8893,4.918,4.9494,4.9494,4.9363,4.9076,4.9049,4.918,4.9494,4.9494,4.9625,4.9912,4.9912,4.9912,4.9912,4.9625,4.9494,4.9494,4.873,4.8224,4.7935,4.7777,4.761,4.7507,4.7522,4.7042,4.6262,4.6389,4.6093,4.5532,4.4957,4.4917,4.5034,4.4146,4.3885,4.3807,4.3193,4.2997,4.3062,4.3363,4.3441,4.3572,4.4133,4.4068,4.3989,4.4578,4.4642,4.4476,4.4323,4.5015,4.5574,4.515,4.5723,4.6386,4.6662,4.6712,4.6788,4.7039,4.6878,4.6527,4.5974,4.5422,4.5045,4.5045,4.5045,4.5171,4.5462,4.5221,4.5171,4.5487,4.4985,4.4292,4.3452,4.261,4.2144,4.2144,4.2699,4.2864,4.2626,4.3126,4.3277,4.3014,4.3815,4.4202,4.4202,4.4794,4.4593,0.0,0.0,0.0,0.0,0.0,0.0,0.0,3.7666,3.7963,3.8312,3.8953,3.965,4.0367,4.1522,4.2803,4.4188,4.501,4.5964,4.7452,4.8172,4.8355,4.7856,4.8224,4.8762,4.9363,4.9834,5.0121,5.0211,5.0226,5.0185,5.0095,5.0069,5.0069,5.0069,5.0069,5.0106,5.0226,5.0226,5.0226,5.0226,5.0106,5.0039,4.9963,4.9133,4.8754,4.8713,4.7909,4.7604,4.7733,4.8055,4.7635,4.6768,4.7162,4.7112,4.6749,4.6041,4.578,4.5701,4.5231,4.4696,4.416,4.3663,4.3415,4.3428,4.3925,4.4134,4.4422,4.5322,4.5322,4.5165,4.5566,4.532,4.4953,4.4928,4.5342,4.5747,4.5788,4.6225,4.6737,4.7174,4.7249,4.7375,4.7817,4.7908,4.7606,4.6737,4.5834,4.5407,4.5899,4.5457,4.5282,4.5748,4.5282,4.5131,4.5598,4.4733,4.4141,4.4141,4.3614,4.3302,4.3302,4.374,4.3689,4.3176,4.3578,4.3553,4.3014,4.4077,4.4589,4.4629,4.5784,4.5472,3.8282,3.7903,3.7574,3.8514,3.8478,3.8219,0.0,3.8834,3.9272,3.9618,4.0008,4.0755,4.2356,4.3219,4.4227,4.5926,4.7115,4.8082,4.8788,4.9363,4.9677,4.9625,4.9662,4.9965,5.0566,5.0655,5.0906,5.1361,5.1413,5.1204,5.0707,5.0697,5.0697,5.0697,5.0697,5.0917,5.1429,5.1413,5.1413,5.1387,5.0932,5.0543,5.024,4.9593,4.9304,4.9293,4.9009,4.8432,4.7733,4.8055,4.7948,4.7558,4.7363,4.7583,4.7873,4.6801,4.6409,4.6383,4.6304,4.5898,4.54,4.5322,4.4956,4.4512,4.459,4.4982,4.5426,4.5557,4.595,4.6248,4.6019,4.5917,4.5848,4.5799,4.6178,4.6626,4.6884,4.734,4.7757,4.7807,4.7817,4.7817,4.7892,4.7908,4.7857,4.7757,4.7616,4.7556,4.7616,4.7164,4.6848,4.6923,4.6421,4.6135,4.6185,4.5663,4.5311,4.5311,4.4754,4.4428,4.4428,4.4478,4.4252,4.3714,4.3765,4.3553,4.3014,4.4077,4.4589,4.4629,4.5784,4.5658,3.78,3.8143,3.8376,3.7895,3.8119,3.8587,3.9064,3.9345,3.9836,4.0988,4.1596,4.2357,4.3728,4.4774,4.5755,4.6813,4.7937,4.8814,4.9049,4.9845,5.0289,4.9923,5.0487,5.088,5.0827,5.1073,5.1361,5.157,5.1596,5.1492,5.1282,5.1272,5.1272,5.1272,5.1272,5.1361,5.1596,5.1596,5.1596,5.1596,5.1361,5.1194,5.1028,5.0281,4.9641,4.9178,4.9254,4.9055,4.8691,4.8707,4.8819,4.8908,4.8114,4.8198,4.8579,4.7414,4.6955,4.6955,4.6955,4.6604,4.6107,4.6107,4.595,4.5741,4.5741,4.5924,4.6186,4.6497,4.641,4.6269,4.6478,4.5997,4.555,4.582,4.6197,4.6587,4.7004,4.7516,4.8008,4.8375,4.8426,4.851,4.8837,4.8887,4.8887,4.8887,4.8335,4.7908,4.7908,4.7691,4.7465,4.7124,4.6898,4.6637,4.6311,4.61,4.5824,4.5512,4.5271,4.4955,4.4614,4.4945,4.4855,4.4278,4.4278,4.4166,4.3926,4.4378,4.478,4.5146,4.5934,4.5874,3.7783,3.8212,3.8436,3.7742,3.8286,3.9155,3.99,4.02,4.0814,4.2539,4.3206,4.3859,4.5191,4.6264,4.7141,4.7713,4.8799,4.9572,4.9572,5.0278,5.0644,5.02,5.0734,5.1047,5.0827,5.1455,5.1779,5.1596,5.1753,5.1779,5.1596,5.1596,5.1596,5.1596,5.1596,5.1596,5.1596,5.1596,5.1596,5.1596,5.1596,5.1549,5.144,5.0805,5.0106,4.9364,4.966,4.9616,4.9293,4.9169,4.9232,4.9363,4.8527,4.8474,4.8736,4.787,4.7556,4.7556,4.7556,4.7165,4.6708,4.6708,4.6618,4.6501,4.6501,4.6592,4.6799,4.7117,4.6826,4.6521,4.6787,4.6203,4.5711,4.6317,4.6602,4.6938,4.7641,4.8093,4.851,4.8928,4.9028,4.9129,4.9515,4.9715,4.9816,4.9816,4.9113,4.8535,4.8385,4.8234,4.7933,4.739,4.7324,4.7149,4.6763,4.6737,4.6577,4.619,4.615,4.5899,4.5317,4.5723,4.5598,4.4855,4.4855,4.478,4.4589,4.478,4.5056,4.5512,4.605,4.6024,3.8563,3.7734,3.6995,3.8624,3.932,3.9874,4.0998,4.1702,4.2604,4.429,4.4643,4.5191,4.6901,4.7728,4.8344,4.8945,5.0017,5.0749,5.0749,5.0775,5.0801,5.0775,5.0304,5.0174,5.0734,5.1805,5.2223,5.1648,5.2145,5.2223,5.1622,5.1596,5.1596,5.1596,5.1596,5.1596,5.1596,5.1596,5.1596,5.1596,5.1596,5.1424,5.112,5.1078,5.0783,5.0271,5.0621,5.0132,4.9113,4.9102,4.8762,4.8239,4.8213,4.8213,4.8213,4.8187,4.8161,4.8161,4.8161,4.7766,4.7281,4.7281,4.6903,4.6501,4.6501,4.6865,4.7223,4.6976,4.7278,4.7519,4.6949,4.677,4.6919,4.7659,4.7857,4.8159,4.9289,4.954,4.954,4.9565,4.9581,4.9565,4.959,5.0026,5.0377,5.0377,5.0352,5.0142,4.9615,4.9079,4.8526,4.7933,4.7883,4.7883,4.7857,4.7857,4.7842,4.7832,4.7832,4.7591,4.7048,4.7048,4.6562,4.5472,4.5487,4.5171,4.4589,4.5196,4.5487,4.5512,4.605,4.6024,3.7994,3.8073,3.8499,3.9676,4.0353,4.1129,4.2657,4.3467,4.4133,4.5087,4.5446,4.5727,4.6332,4.7225,4.7935,4.8145,4.9651,5.0801,5.0801,5.1439,5.1507,5.0357,5.1047,5.1256,5.0304,5.0917,5.1455,5.1596,5.1779,5.1988,5.2171,5.1805,5.1779,5.2171,5.1805,5.1596,5.1596,5.1596,5.1596,5.1596,5.1596,5.1534,5.1424,5.1424,5.1137,5.0647,5.0755,5.0577,5.02,4.9808,4.9965,5.0368,4.9625,4.9572,4.9886,4.9468,4.9337,4.9285,4.8919,4.8893,4.8982,4.8616,4.8355,4.8134,4.7742,4.7754,4.7827,4.7521,4.7401,4.7367,4.7332,4.7172,4.7252,4.8265,4.8777,4.9138,4.9515,4.9891,5.0042,4.9665,4.959,4.959,4.959,4.9741,4.9992,5.0352,5.0402,5.0201,4.9665,4.9455,4.9129,4.8551,4.8501,4.835,4.7917,4.7908,4.7908,4.7908,4.7908,4.7817,4.7641,4.7641,4.729,4.6587,4.621,4.5924,4.5733,4.5573,4.5874,4.6562,4.6386,4.6562,3.8055,3.8777,3.9764,4.0538,4.1468,4.2579,4.3899,4.4447,4.4982,4.6001,4.5935,4.5825,4.6247,4.699,4.752,4.7448,4.8881,5.0201,5.0738,5.1089,5.1073,5.0551,5.1141,5.1173,5.0137,5.0489,5.1021,5.1544,5.1988,5.2328,5.2485,5.2328,5.2406,5.2798,5.2223,5.191,5.191,5.1701,5.1596,5.1596,5.1596,5.1596,5.1596,5.1596,5.1413,5.1089,5.088,5.0801,5.0734,5.0037,5.0158,5.0716,4.988,4.9843,5.0236,4.9872,4.9861,4.998,4.9527,4.9534,4.9663,4.9325,4.912,4.8952,4.8562,4.8458,4.8384,4.803,4.7805,4.7641,4.7678,4.7559,4.7616,4.8576,4.9204,4.964,4.9841,5.0318,5.0619,5.0268,5.0209,5.0142,4.9916,5.0067,5.0393,5.0946,5.1005,5.0728,4.9992,4.9891,4.9665,4.9129,4.9254,4.9154,4.856,4.8686,4.8695,4.8535,4.851,4.8435,4.8234,4.8209,4.7883,4.7124,4.6747,4.6486,4.6286,4.615,4.6436,4.7099,4.6938,4.7239,3.8864,3.9793,4.0594,4.1259,4.267,4.4043,4.463,4.4773,4.5243,4.6889,4.6106,4.5457,4.6512,4.6986,4.7148,4.6923,4.7922,4.9229,5.0675,4.9991,4.9871,5.1398,5.0666,5.0126,5.0271,5.0664,5.111,5.158,5.2694,5.3138,5.2616,5.3086,5.34,5.3452,5.2835,5.2521,5.2485,5.191,5.1596,5.1596,5.158,5.1565,5.1565,5.1565,5.1523,5.1471,5.0975,5.074,5.0672,4.9788,4.9428,4.9424,4.9117,4.9194,4.9454,4.9454,4.9821,5.0286,5.0006,4.9718,4.9469,4.9428,4.9204,4.8933,4.8907,4.8892,4.883,4.8481,4.8389,4.8337,4.8036,4.7958,4.8109,4.8718,4.928,4.9816,5.0302,5.0896,5.1339,5.1314,5.1289,5.1113,5.0528,5.0921,5.149,5.2026,5.2101,5.1699,5.0578,5.0452,5.0243,4.969,5.0117,5.0176,4.964,5.0092,5.0176,4.9665,4.9665,4.9455,4.8903,4.8894,4.835,4.7199,4.7199,4.6923,4.6386,4.6898,4.7149,4.7199,4.7666,4.7917,3.9761,4.0577,4.1416,4.2879,4.3559,4.416,4.5153,4.5715,4.6029,4.6027,4.5691,4.5182,4.4428,4.5209,4.6165,4.6791,4.8776,5.0669,5.1899,5.2197,5.2024,5.1314,5.1723,5.1492,5.0053,5.1351,5.218,5.1926,5.241,5.3034,5.3739,5.353,5.3583,5.3975,5.3166,5.2656,5.2511,5.191,5.1596,5.1596,5.133,5.123,5.123,5.0968,5.0636,5.0249,5.012,5.0043,5.0043,4.9796,4.9929,5.0288,5.021,5.0225,5.0304,5.0304,5.0381,5.05,5.0465,5.0382,5.0227,4.9826,4.9651,4.9471,4.9035,4.8892,4.883,4.8481,4.8389,4.8413,4.8529,4.8576,4.8702,4.9264,5.0159,5.0787,5.0452,5.1197,5.1774,5.1389,5.1289,5.1264,5.1113,5.1214,5.149,5.2026,5.2101,5.185,5.1163,5.1071,5.0845,5.0252,5.0327,5.0176,4.964,5.0092,5.0352,5.0201,5.0619,5.0594,5.0017,4.9992,4.949,4.84,4.8375,4.8083,4.749,4.7616,4.7933,4.8375,4.8058,4.8344,4.0475,4.1416,4.233,4.3598,4.4082,4.4461,4.5224,4.5475,4.5529,4.5545,4.5024,4.4382,4.3711,4.4531,4.5489,4.6013,4.8004,5.0022,5.1549,5.2056,5.2212,5.211,5.2666,5.2547,5.1254,5.2317,5.2965,5.2757,5.2903,5.3303,5.3954,5.3928,5.4032,5.4318,5.3722,5.3257,5.2903,5.2133,5.1783,5.1783,5.116,5.0883,5.0883,5.0683,5.0434,5.0153,4.9896,4.9794,4.9768,4.9356,4.9371,4.9667,4.9469,4.9678,5.0024,5.0024,5.0187,5.0391,5.0391,5.028,5.0149,4.9971,4.9821,4.966,4.9314,4.9212,4.9165,4.8992,4.8945,4.8973,4.9101,4.9154,4.9229,4.9531,5.046,5.1122,5.0528,5.1481,5.236,5.2076,5.18,5.1741,5.1975,5.18,5.1825,5.236,5.246,5.2335,5.2051,5.18,5.1423,5.087,5.1021,5.0946,5.0385,5.0845,5.1046,5.082,5.1113,5.1163,5.082,5.0528,5.0017,4.9179,4.8919,4.8501,4.7908,4.8159,4.8476,4.8793,4.8686,4.8987,4.1299,4.2409,4.3376,4.3977,4.4539,4.4985,4.5178,4.485,4.4692,4.5276,4.4404,4.354,4.3625,4.4406,4.5114,4.5259,4.6864,4.8805,5.0858,5.1141,5.1711,5.3257,5.3439,5.3241,5.2779,5.3228,5.358,5.3649,5.3771,5.3866,5.3915,5.4305,5.4487,5.4376,5.4166,5.3785,5.3189,5.2339,5.189,5.1797,5.093,5.0525,5.0525,5.0477,5.0461,5.0436,4.9985,4.9771,4.9694,4.8882,4.8596,4.8621,4.8259,4.8608,4.933,4.933,4.9634,5.0024,5.0024,4.9831,4.9638,4.9953,4.9831,4.959,4.959,4.959,4.959,4.959,4.959,4.959,4.959,4.959,4.959,4.959,5.0393,5.1038,5.0503,5.1657,5.2795,5.2887,5.2511,5.236,5.2837,5.2511,5.236,5.2837,5.2895,5.2895,5.2895,5.2485,5.2,5.1465,5.1825,5.1875,5.1339,5.1774,5.19,5.144,5.1465,5.149,5.1414,5.0896,5.0327,4.9715,4.933,4.8802,4.8134,4.8727,4.9003,4.9028,4.943,4.9665,4.2958,4.3912,4.4538,4.5139,4.5767,4.6139,4.5888,4.5759,4.5537,4.497,4.4418,4.38,4.2956,4.3894,4.509,4.6105,4.8102,5.0324,5.2631,5.2955,5.3104,5.3607,5.3636,5.3313,5.2478,5.3557,5.4021,5.3343,5.4107,5.474,5.5089,5.4894,5.4432,5.37,5.3425,5.2911,5.2075,5.1709,5.1284,5.0837,5.0394,5.0184,5.0168,4.9895,4.9767,4.9767,4.9682,4.9616,4.9616,4.9451,4.941,4.941,4.9321,4.9396,4.9561,4.9561,4.9611,4.9687,4.9687,4.9638,4.9606,4.9654,4.9638,4.959,4.959,4.959,4.959,4.959,4.959,4.959,4.959,4.959,4.959,4.959,5.0092,5.0528,5.0427,5.1356,5.236,5.2795,5.282,5.2787,5.287,5.2837,5.2795,5.2887,5.2895,5.2895,5.2895,5.2837,5.2561,5.2026,5.2051,5.1875,5.1339,5.1774,5.2076,5.1975,5.2385,5.241,5.1975,5.1875,5.1306,5.0277,5.0645,5.036,4.9314,4.9866,5.0101,5.0101,4.9766,5.0108,4.3559,4.4513,4.5296,4.5924,4.6055,4.5983,4.5829,4.5302,4.4837,4.472,4.4334,4.3782,4.3138,4.4299,4.5515,4.5948,4.8086,5.0281,5.1998,5.2921,5.3544,5.3928,5.4249,5.4261,5.38,5.4476,5.465,5.3931,5.4552,5.4907,5.4833,5.4636,5.4294,5.3785,5.3639,5.3221,5.2525,5.1915,5.1354,5.0809,5.016,4.9831,4.9831,4.9847,4.9847,4.9847,4.9847,4.9712,4.9418,4.9259,4.9003,4.8711,4.8711,4.8928,4.9179,4.9179,4.9355,4.959,4.959,4.959,4.959,4.959,4.959,4.959,4.959,4.959,4.959,4.959,4.959,4.959,4.959,4.959,4.959,4.959,4.9791,5.0201,5.1096,5.1498,5.1925,5.2737,5.2895,5.2895,5.2895,5.2895,5.2895,5.2895,5.2895,5.2895,5.2895,5.2895,5.2795,5.2536,5.2511,5.241,5.2134,5.236,5.2511,5.2511,5.2762,5.277,5.2536,5.2234,5.1833,5.1297,5.1272,5.1038,5.0485,5.0745,5.087,5.087,5.0594,5.0787,4.4095,4.5114,4.6079,4.6552,4.6421,4.6063,4.5661,4.477,4.4126,4.4592,4.4215,4.3788,4.3784,4.4904,4.5794,4.5782,4.7608,4.9537,5.0993,5.2303,5.3402,5.4105,5.4733,5.5151,5.5255,5.542,5.5287,5.4797,5.4898,5.4809,5.4396,5.4371,5.4231,5.3938,5.381,5.3495,5.2967,5.2107,5.145,5.0973,5.0044,4.9638,4.9703,4.9921,5.0001,5.0001,5.0001,4.9764,4.9343,4.9089,4.8702,4.8243,4.8243,4.8535,4.8969,4.8969,4.9229,4.959,4.959,4.959,4.959,4.959,4.959,4.959,4.959,4.959,4.959,4.959,4.959,4.959,4.959,4.959,4.959,4.959,4.959,5.0017,5.1599,5.1615,5.1615,5.2686,5.2895,5.2895,5.2895,5.2895,5.2895,5.2895,5.2895,5.2895,5.2895,5.2895,5.2895,5.2895,5.2895,5.2895,5.2895,5.2895,5.2895,5.2895,5.2895,5.2895,5.2895,5.2485,5.2226,5.2101,5.18,5.154,5.1289,5.1414,5.1465,5.1465,5.1364,5.1414,4.5221,4.6288,4.715,4.7202,4.7583,4.7531,4.5872,4.5036,4.4646,4.4673,4.4215,4.4059,4.4888,4.5106,4.5445,4.6275,4.7019,4.8381,5.085,5.1795,5.2697,5.4034,5.4733,5.5308,5.5778,5.5849,5.5777,5.5596,5.5006,5.4607,5.4575,5.4575,5.4323,5.3762,5.3267,5.2739,5.2202,5.1632,5.1195,5.0892,5.0028,4.9751,5.0024,4.9767,4.9638,4.9638,4.9638,4.9613,4.9563,4.9531,4.949,4.9439,4.9439,4.948,4.9531,4.9531,4.9565,4.959,4.959,4.959,4.959,4.959,4.959,4.959,4.959,4.959,4.959,4.959,4.959,4.959,4.959,4.959,4.959,4.959,4.959,4.9933,5.1113,5.1339,5.1615,5.2686,5.2895,5.2895,5.2895,5.2895,5.2895,5.2895,5.2895,5.2895,5.2895,5.2895,5.2895,5.2895,5.2895,5.2895,5.2895,5.2895,5.2895,5.2895,5.2895,5.2895,5.2895,5.2845,5.2611,5.2126,5.2536,5.226,5.1289,5.1774,5.2026,5.2026,5.154,5.1825,4.5456,4.6955,4.8303,4.7937,4.7507,4.6969,4.623,4.505,4.4365,4.5092,4.5057,4.5004,4.5377,4.573,4.5961,4.5978,4.7162,4.8492,4.9705,5.0862,5.2097,5.3537,5.421,5.4916,5.583,5.633,5.6417,5.5936,5.5599,5.5332,5.5099,5.4429,5.3808,5.3239,5.2995,5.2636,5.2126,5.19,5.1565,5.1144,5.0434,5.0157,5.0271,5.0024,4.9895,4.9895,4.9895,4.9895,4.9879,4.967,4.959,4.959,4.959,4.959,4.959,4.959,4.959,4.959,4.959,4.959,4.959,4.959,4.959,4.959,4.959,4.959,4.959,4.959,4.959,4.959,4.959,4.959,4.959,4.959,4.959,4.9916,5.1063,5.1289,5.1615,5.2686,5.2895,5.2895,5.2895,5.2895,5.2895,5.2895,5.2895,5.2895,5.2895,5.2895,5.2895,5.2895,5.2895,5.2895,5.2895,5.2895,5.2895,5.2895,5.2895,5.2895,5.2895,5.2895,5.2812,5.2586,5.2787,5.2686,5.226,5.2485,5.2586,5.2586,5.236,5.2485,4.5301,4.6944,4.8512,4.8265,4.7553,4.6752,4.6258,4.4982,4.4188,4.5145,4.5316,4.5437,4.579,4.621,4.6373,4.5925,4.7109,4.8274,4.8798,5.0011,5.1309,5.2607,5.3241,5.4046,5.5282,5.6314,5.678,5.6425,5.6155,5.5745,5.52,5.4509,5.3905,5.3432,5.3088,5.2711,5.2335,5.2176,5.1875,5.1439,5.0744,5.0376,5.0298,5.0056,4.9944,4.9944,4.9944,4.9944,4.9928,4.9687,4.959,4.959,4.959,4.959,4.959,4.959,4.959,4.959,4.959,4.959,4.959,4.959,4.959,4.959,4.959,4.959,4.959,4.959,4.959,4.959,4.959,4.959,4.959,4.959,4.959,4.9958,5.1264,5.154,5.19,5.3155,5.3264,5.3138,5.3138,5.3013,5.2895,5.2895,5.2895,5.2895,5.2895,5.2895,5.2895,5.2895,5.2895,5.2895,5.2895,5.2895,5.2895,5.2895,5.2895,5.2895,5.2895,5.2895,5.2895,5.2895,5.2895,5.2895,5.2895,5.2895,5.2895,5.2895,5.2895,5.2895,4.4793,4.6029,4.7464,4.8056,4.7985,4.7386,4.5846,4.4833,4.4284,4.4655,4.4719,4.5071,4.6264,4.6509,4.6509,4.6481,4.6718,4.731,4.8466,4.9373,5.025,5.1114,5.1758,5.2676,5.4086,5.5616,5.6739,5.7346,5.6502,5.5593,5.4665,5.4908,5.4943,5.4572,5.3507,5.2895,5.2895,5.236,5.201,5.1795,5.0859,5.0305,5.0097,4.9751,4.9606,4.9606,4.9606,4.9606,4.959,4.959,4.959,4.959,4.959,4.959,4.959,4.959,4.959,4.959,4.959,4.959,4.959,4.959,4.959,4.959,4.959,4.959,4.959,4.959,4.959,4.959,4.959,4.959,4.959,4.959,4.959,5.0067,5.1724,5.2101,5.2578,5.427,5.4102,5.3683,5.3683,5.3264,5.2895,5.2895,5.2895,5.2895,5.2895,5.2895,5.2895,5.2895,5.2895,5.2895,5.2895,5.2895,5.2895,5.2895,5.2895,5.2895,5.2895,5.2895,5.2895,5.2895,5.2895,5.2895,5.2895,5.2895,5.2895,5.2895,5.2895,5.2895,4.4665,4.5698,4.6729,4.6928,4.6308,4.5595,4.53,4.4411,4.3838,4.4547,4.4719,4.5071,4.6291,4.6156,4.6077,4.6664,4.7204,4.7712,4.8267,4.9543,5.0966,5.2402,5.4652,5.6244,5.6686,5.7176,5.7336,5.7011,5.6696,5.6284,5.5709,5.5088,5.4351,5.3482,5.3439,5.3264,5.2895,5.2737,5.2612,5.253,5.1875,5.1322,5.091,5.0392,4.9941,4.959,4.959,4.959,4.9615,4.9992,4.9941,4.964,5.0017,4.9916,4.959,4.959,4.959,4.959,4.959,4.959,4.959,4.959,4.959,4.959,4.959,4.959,4.959,4.959,4.959,4.959,4.959,4.959,4.959,4.959,4.959,5.0067,5.1749,5.18,5.2042,5.3675,5.3833,5.3708,5.3708,5.3884,5.4077,5.4077,5.4077,5.4077,5.4077,5.4077,5.4077,5.4077,5.4077,5.3758,5.2962,5.3239,5.3439,5.3439,5.3833,5.3876,5.3439,5.3439,5.3264,5.2895,5.2895,5.2895,5.2895,5.2895,5.2895,5.2895,5.2895,5.2895,4.4234,4.5196,4.6154,4.634,4.5609,4.4846,4.476,4.4134,4.3772,4.4545,4.4719,4.5071,4.6291,4.6183,4.6105,4.6664,4.723,4.7856,4.8588,5.0025,5.1617,5.3348,5.5536,5.6987,5.7145,5.7287,5.7266,5.7029,5.6815,5.6406,5.5833,5.5419,5.4637,5.3366,5.3369,5.3239,5.2895,5.2895,5.2812,5.2586,5.226,5.1825,5.1289,5.0921,5.0444,4.9916,4.9916,4.9791,0.0,5.0176,5.0076,4.964,5.0176,5.0051,4.959,4.959,4.959,4.959,4.959,4.959,4.959,4.959,4.959,4.959,4.959,4.959,4.959,4.959,4.959,4.959,4.959,4.959,4.959,4.959,4.959,5.0067,5.1749,5.2,5.2377,5.4009,5.4336,5.4336,5.4336,5.4479,5.4597,5.4597,5.4597,5.4597,5.4597,5.4597,5.4597,5.4597,5.4597,5.4303,5.3607,5.3833,5.4052,5.4052,5.4378,5.4328,5.3733,5.3708,5.3439,5.2895,5.2895,5.2895,5.2895,5.2895,5.2895,5.2895,5.2895,5.2895,0.0,4.4595,4.5555,4.6088,4.5567,4.4811,4.4341,4.4015,0.0,4.4637,4.4746,4.5071,4.6291,4.6454,4.6454,4.6537,4.6934,4.7769,4.9306,5.0827,5.2373,5.3932,5.4975,5.5666,5.5902,5.633,5.68,5.7295,5.6798,5.6065,5.5211,5.5697,5.5409,5.4099,5.3298,5.2912,5.2947,5.2912,5.2661,5.2176,5.2176,5.185,5.1289,5.1339,5.0987,5.0352,5.0377,5.0117,4.964,5.0176,5.0076,4.964,5.0176,5.0051,4.959,4.959,4.959,4.959,4.959,4.959,4.959,4.959,4.959,4.959,4.959,4.959,4.959,4.959,4.959,4.959,4.959,4.959,4.959,4.959,4.959,5.0042,5.1699,5.241,5.3239,5.4938,5.5282,5.529,5.5383,5.5006,5.4723,5.4723,5.4723,5.4723,5.4723,5.4723,5.4723,5.4723,5.4723,5.4723,5.4723,5.4672,5.4672,5.4723,5.4723,5.4454,5.3858,5.3783,5.3507,5.2895,5.2895,5.2895,5.2895,5.2895,5.2895,5.2895,5.2895,5.2895,4.3768,0.0,4.3691,4.4246,4.3918,4.3616,0.0,4.4193,4.4092,4.5165,4.5017,4.5071,4.6291,4.6115,4.6037,4.6692,4.6745,4.7406,4.9513,5.2676,5.469,5.4439,5.653,5.7487,5.6254,5.6995,5.7324,5.6757,5.6336,5.5995,5.5743,5.4801,5.4334,5.4458,5.3443,5.305,5.3358,5.305,5.2837,5.2711,5.2711,5.2226,5.1314,5.1724,5.1147,4.9816,5.0226,5.0117,4.964,5.0176,5.0076,4.964,5.0176,5.0051,4.959,4.959,4.959,4.959,4.959,4.959,4.959,4.959,4.959,4.959,4.959,4.959,4.959,4.959,4.959,4.959,4.959,4.959,4.959,4.959,4.959,4.9958,5.1214,5.1205,5.1607,5.3683,5.411,5.4386,5.5257,5.5659,5.5817,5.5817,5.5817,5.5817,5.5817,5.5817,5.5817,5.5817,5.5817,5.5817,5.5817,5.5458,5.5383,5.5792,5.5817,5.5566,5.5013,5.4604,5.3926,5.2937,5.2895,5.2895,5.2895,5.2895,5.2895,5.2895,5.2895,5.2895,4.3386,4.3359,4.3386,4.3712,4.3359,4.3075,4.3727,4.3618,4.3658,4.4568,4.4719,4.499,4.5925,4.6034,4.6172,4.665,4.7104,4.8347,5.0984,5.3475,5.5177,5.5607,5.702,5.7693,5.7038,5.7387,5.7266,5.6346,5.6064,5.5837,5.5548,5.4694,5.4364,5.4669,5.3702,5.3187,5.3221,5.3015,5.2787,5.2536,5.2787,5.246,5.1691,5.2226,5.1833,5.077,5.1055,5.087,5.0393,5.0695,5.0469,4.9992,5.0277,5.0051,4.959,4.959,4.959,4.959,4.959,4.959,4.959,4.959,4.959,4.959,4.959,4.959,4.959,4.959,4.959,4.959,4.959,4.959,4.959,4.959,4.959,4.9857,5.0695,5.0845,5.1398,5.3331,5.3909,5.4479,5.5566,5.6018,5.62,5.62,5.62,5.62,5.62,5.62,5.62,5.62,5.62,5.62,5.62,5.5942,5.5892,5.6175,5.62,5.5968,5.5415,5.5107,5.4411,5.3289,5.3038,5.2895,5.2895,5.2895,5.2895,5.2895,5.2895,5.2895,4.2913,4.3364,4.384,4.37,4.3278,4.2913,4.3021,4.3048,4.3211,4.3808,4.4433,4.499,4.5518,4.6183,4.6631,4.6578,4.7765,4.9647,5.2364,5.3586,5.4753,5.6383,5.6884,5.7246,5.7625,5.7469,5.6967,5.6031,5.5771,5.5464,5.499,5.4676,5.4551,5.4627,5.3843,5.3238,5.2895,5.2895,5.2661,5.2226,5.2686,5.2611,5.2126,5.2661,5.2561,5.1975,5.1975,5.1674,5.1163,5.1063,5.0745,5.0277,5.0277,5.0017,4.959,4.959,4.959,4.959,4.959,4.959,4.959,4.959,4.959,4.959,4.959,4.959,4.959,4.959,4.959,4.959,4.959,4.959,4.959,4.959,4.959,4.9715,5.0176,5.0745,5.1624,5.3256,5.4077,5.483,5.6018,5.62,5.62,5.62,5.62,5.6226,5.6301,5.6251,5.6226,5.6301,5.6251,5.62,5.62,5.62,5.62,5.62,5.62,5.5968,5.5415,5.5232,5.4712,5.3858,5.3213,5.2945,5.302,5.2937,5.2895,5.2895,5.2988,5.302,4.2913,4.3502,4.3958,4.3231,4.2967,4.3021,4.3549,4.3658,4.3848,4.4447,4.5044,4.5491,4.5573,4.6509,4.7162,4.6867,4.8382,4.9967,5.0997,5.3092,5.4539,5.4626,5.6372,5.7294,5.653,5.6891,5.6767,5.5823,5.4989,5.451,5.4424,5.365,5.3411,5.384,5.3309,5.2964,5.2895,5.2895,5.2845,5.2787,5.2845,5.2611,5.2126,5.2661,5.236,5.1414,5.1414,5.1071,5.0503,5.0042,4.9816,4.9715,4.9715,4.9665,4.959,4.959,4.959,4.959,4.959,4.959,4.959,4.959,4.959,4.959,4.959,4.959,4.959,4.959,4.959,4.959,4.959,4.959,4.959,4.959,4.959,4.9615,4.9715,5.0167,5.103,5.2711,5.3439,5.4336,5.5942,5.62,5.62,5.62,5.62,5.6351,5.6828,5.6477,5.6376,5.6835,5.6477,5.62,5.62,5.62,5.62,5.62,5.62,5.5968,5.5415,5.4461,5.411,5.4471,5.3414,5.3113,5.3582,5.3113,5.2895,5.2895,5.3381,5.3582,4.2804,4.3182,4.345,4.3219,4.3744,4.4304,4.4289,4.4518,4.4758,4.4898,4.5409,4.5866,4.6062,4.6905,4.7833,4.8567,4.9452,5.0431,5.1472,5.2932,5.4129,5.4788,5.5964,5.6669,5.6551,5.6401,5.5987,5.517,5.4723,5.4315,5.3977,5.3569,5.3457,5.3683,5.3188,5.2895,5.2895,5.2895,5.2744,5.246,5.2744,5.2611,5.2126,5.2661,5.2636,5.2151,5.185,5.1574,5.1256,5.0377,5.0026,5.0017,4.9715,4.959,4.959,4.959,4.959,4.959,4.959,4.959,4.959,4.959,4.959,4.959,4.959,4.959,4.959,4.959,4.959,4.959,4.959,4.959,4.959,4.959,4.959,4.9665,4.9967,5.0226,5.0979,5.2937,5.3532,5.4235,5.5899,5.62,5.62,5.62,5.6451,5.6728,5.696,5.7079,5.7079,5.701,5.6778,5.6502,5.6226,5.62,5.62,5.62,5.62,5.6093,5.5842,5.5039,5.4755,5.5031,5.4228,5.3783,5.3708,5.3439,5.3339,5.3339,5.3582,5.3858,4.2614,4.2933,4.3229,4.3305,4.407,4.4783,4.4703,4.4903,4.5129,4.5192,4.5888,4.6491,4.6392,4.7217,4.8418,5.0056,5.042,5.1064,5.2736,5.3259,5.4027,5.5553,5.5924,5.6167,5.6509,5.5936,5.5234,5.4456,5.4253,5.4002,5.3557,5.349,5.349,5.349,5.3113,5.2895,5.2895,5.2895,5.2686,5.2285,5.2711,5.2686,5.2285,5.2694,5.2895,5.2845,5.2184,5.1925,5.1825,5.0678,5.0201,5.0151,4.9766,4.959,4.959,4.959,4.959,4.959,4.959,4.959,4.959,4.959,4.959,4.959,4.959,4.959,4.959,4.959,4.959,4.959,4.959,4.959,4.959,4.959,4.969,4.9891,5.0302,5.0603,5.1331,5.3155,5.3733,5.4361,5.5767,5.61,5.62,5.62,5.6652,5.7035,5.7204,5.7606,5.7725,5.7255,5.7085,5.6784,5.6251,5.62,5.62,5.62,5.62,5.62,5.62,5.5691,5.5458,5.5566,5.4949,5.4429,5.411,5.3833,5.3758,5.3909,5.3909,5.4228,4.2222,4.306,4.3928,4.3192,4.2877,4.3072,4.4409,4.4305,4.4212,4.5249,4.6846,4.7623,4.6289,4.7213,4.8722,5.0469,5.0904,5.1962,5.4538,5.434,5.4627,5.6468,5.6546,5.6279,5.5815,5.5381,5.475,5.3843,5.3289,5.2995,5.2945,5.2962,5.2962,5.2962,5.2937,5.2895,5.2895,5.2895,5.287,5.2845,5.287,5.2887,5.2845,5.287,5.2895,5.2845,5.18,5.1364,5.1264,5.0134,4.9665,4.964,4.9615,4.959,4.959,4.959,4.959,4.959,4.959,4.959,4.959,4.959,4.959,4.959,4.959,4.959,4.959,4.959,4.959,4.959,4.959,4.959,4.959,4.959,4.9992,5.0352,5.0402,5.123,5.2159,5.2837,5.3808,5.4748,5.5358,5.5867,5.62,5.62,5.6652,5.7204,5.7775,5.7876,5.7876,5.7851,5.733,5.6784,5.6251,5.62,5.62,5.62,5.62,5.62,5.62,5.5691,5.5616,5.6125,5.5132,5.4805,5.5282,5.421,5.4002,5.4547,5.4547,5.483,4.2412,4.3357,4.401,4.3194,4.3015,4.3445,4.4915,4.5623,4.6164,4.6807,4.8053,4.8774,4.8009,4.938,5.065,5.0744,5.1544,5.2563,5.3755,5.4463,5.5048,5.5495,5.5693,5.5691,5.5355,5.4605,5.3999,5.37,5.3213,5.2895,5.2895,5.2895,5.2895,5.2895,5.2895,5.2895,5.2895,5.2561,5.2561,5.2895,5.2895,5.2737,5.241,5.241,5.2226,5.185,5.1071,5.0745,5.0695,4.9916,4.959,4.959,4.959,4.959,4.959,4.959,4.959,4.959,4.959,4.959,4.959,4.959,4.959,4.959,4.959,4.959,4.959,4.959,4.959,4.959,4.959,4.959,4.959,4.959,5.0017,5.0503,5.087,5.1574,5.2377,5.3213,5.4052,5.4773,5.5308,5.5842,5.6301,5.6652,5.7179,5.7757,5.8334,5.8384,5.8278,5.7926,5.7054,5.6426,5.62,5.62,5.62,5.62,5.62,5.62,5.62,5.6018,5.5993,5.62,5.5792,5.5516,5.5408,5.4981,5.4881,5.5107,5.5107,5.5383,4.2331,4.304,4.3467,4.3274,4.3391,4.394,4.5523,4.634,4.7024,4.8014,4.8761,4.9312,4.9634,5.0548,5.1196,5.0898,5.2065,5.3169,5.3705,5.4728,5.5305,5.5031,5.5186,5.5107,5.4654,5.3983,5.3532,5.3449,5.3113,5.2895,5.2895,5.2895,5.2895,5.2895,5.2895,5.2895,5.2895,5.236,5.2285,5.2661,5.2485,5.2285,5.2101,5.2101,5.18,5.1264,5.067,5.0402,5.0352,4.9816,4.959,4.959,4.959,4.959,4.959,4.959,4.959,4.959,4.959,4.959,4.959,4.959,4.959,4.959,4.959,4.959,4.959,4.959,4.959,4.959,4.959,4.959,4.964,4.9816,5.0293,5.0845,5.144,5.1975,5.2561,5.3289,5.3926,5.4479,5.5056,5.5591,5.6194,5.6885,5.7506,5.8102,5.8635,5.8836,5.8679,5.7976,5.7029,5.6376,5.62,5.62,5.62,5.62,5.62,5.62,5.62,5.62,5.62,5.62,5.62,5.6018,5.5641,5.5483,5.5509,5.5641,5.5483,5.5691,4.183,4.1993,4.2295,4.35,4.3813,4.4281,4.6089,4.6055,4.6276,4.8631,4.8852,4.9147,5.0872,5.0266,4.9912,5.1031,5.2439,5.3792,5.4942,5.5265,5.5408,5.5391,5.5208,5.4678,5.3596,5.3607,5.3482,5.2937,5.2895,5.2895,5.2895,5.2895,5.2895,5.2895,5.2912,5.2895,5.2895,5.236,5.2101,5.2101,5.1565,5.1565,5.2076,5.2076,5.18,5.1239,5.0653,5.0402,5.0352,4.9816,4.959,4.959,4.959,4.959,4.959,4.959,4.959,4.959,4.959,4.959,4.959,4.959,4.959,4.959,4.959,4.959,4.959,4.959,4.959,4.959,4.9615,4.9615,4.9741,5.0277,5.087,5.1465,5.2,5.2511,5.2895,5.2895,5.3339,5.3884,5.4496,5.5031,5.5767,5.6835,5.7506,5.8102,5.861,5.9156,5.9081,5.8001,5.7355,5.6784,5.6251,5.62,5.62,5.62,5.62,5.62,5.62,5.62,5.62,5.62,5.62,5.62,5.62,5.5666,5.5666,5.6194,5.5641,5.5691,4.1951,4.2351,4.2785,4.3156,4.3568,4.4216,4.556,4.634,4.7464,4.9793,5.0522,5.0697,5.0579,5.1126,5.1668,5.1821,5.2717,5.371,5.4556,5.4978,5.5082,5.4803,5.45,5.421,5.387,5.3416,5.3063,5.2895,5.2895,5.2895,5.2895,5.2895,5.2895,5.2895,5.2536,5.2335,5.2335,5.1381,5.1122,5.154,5.0946,5.0754,5.0904,5.0904,5.0619,5.0092,4.9916,4.9841,4.9816,4.9665,4.959,4.959,4.959,4.959,4.959,4.959,4.959,4.959,4.959,4.959,4.959,4.959,4.959,4.959,4.959,4.959,4.959,4.959,4.959,4.969,5.0051,5.0151,5.0201,5.0352,5.1147,5.19,5.2076,5.2511,5.2895,5.2895,5.3339,5.3884,5.4496,5.5031,5.5767,5.6835,5.7136,5.7481,5.8077,5.8604,5.851,5.7405,5.7481,5.7405,5.6809,5.6778,5.6778,5.6778,5.6401,5.62,5.62,5.62,5.62,5.62,5.62,5.62,5.62,5.6043,5.6025,5.62,5.6043,5.6068,4.1646,4.1862,4.2241,4.351,4.4111,4.4844,4.6592,4.7687,4.8863,5.0734,5.1204,5.1188,5.0885,5.138,5.192,5.2213,5.2762,5.3459,5.4261,5.4649,5.4772,5.4544,5.4326,5.4098,5.3827,5.341,5.3067,5.2912,5.2895,5.2812,5.2586,5.2586,5.2485,5.2277,5.195,5.1774,5.1774,5.0854,5.0578,5.0937,5.0368,5.0076,5.0092,5.0302,5.0117,4.959,4.959,4.959,4.959,4.959,4.959,4.959,4.959,4.959,4.959,4.959,4.959,4.959,4.959,4.959,4.959,4.959,4.959,4.959,4.959,4.959,4.964,4.9866,4.9916,4.9992,5.0327,5.0578,5.077,5.077,5.1448,5.2101,5.2101,5.2511,5.2895,5.2895,5.3163,5.3582,5.4152,5.4529,5.5164,5.6477,5.7079,5.7556,5.8133,5.8485,5.8434,5.7757,5.8008,5.7983,5.7405,5.7154,5.6985,5.6985,5.6502,5.62,5.62,5.62,5.62,5.62,5.62,5.62,5.62,5.62,5.62,5.62,5.62,5.62,4.1205,4.1114,4.1266,4.4322,4.5258,4.6045,4.8533,4.9546,5.0278,5.1309,5.1178,5.1021,5.1518,5.1204,5.123,5.2349,5.2718,5.3156,5.4033,5.4382,5.4535,5.4483,5.4476,5.4258,5.3665,5.3546,5.3341,5.2981,5.2879,5.2611,5.2126,5.2051,5.18,5.1314,5.1239,5.1214,5.1214,5.0619,5.0327,5.0327,4.9841,4.959,4.9615,5.0101,5.0051,4.959,4.959,4.959,4.959,4.959,4.959,4.959,4.959,4.959,4.959,4.959,4.959,4.959,4.959,4.959,4.959,4.959,4.959,4.959,4.959,4.9615,4.9766,5.0201,5.0352,5.0402,5.0402,5.082,5.1214,5.1214,5.1674,5.2101,5.2101,5.2511,5.2895,5.2895,5.2895,5.3063,5.3607,5.3708,5.426,5.5874,5.7097,5.7983,5.8485,5.8635,5.8685,5.8635,5.871,5.856,5.8027,5.743,5.7085,5.7085,5.6527,5.62,5.62,5.62,5.62,5.62,5.62,5.62,5.62,5.62,5.62,5.62,5.62,5.62,4.2081,4.2209,4.2592,4.4599,4.6332,4.7814,4.8855,4.9886,5.067,5.0917,5.1204,5.1465,5.157,5.1507,5.1711,5.2585,5.3026,5.3404,5.3779,5.4484,5.4799,5.433,5.4393,5.4443,5.4292,5.381,5.3461,5.3375,5.2698,5.2226,5.2126,5.1699,5.1414,5.1289,5.0845,5.0578,5.0578,5.0042,4.9766,4.9766,4.9665,4.959,4.959,4.9715,4.9715,4.959,4.959,4.959,4.959,4.959,4.959,4.959,4.959,4.959,4.959,4.959,4.959,4.959,4.959,4.959,4.959,4.959,4.959,4.959,4.959,4.9891,5.0151,4.9866,5.0092,5.0402,5.0402,5.0503,5.0578,5.0578,5.1373,5.2101,5.2101,5.2511,5.2895,5.2895,5.2895,5.3063,5.3607,5.3708,5.4135,5.5365,5.6502,5.7255,5.7336,5.8158,5.8535,5.8127,5.883,5.9106,5.856,5.8008,5.77,5.77,5.6771,5.62,5.62,5.62,5.62,5.62,5.62,5.62,5.62,5.62,5.62,5.62,5.62,5.62,4.1857,4.2307,4.3109,4.5228,4.7214,4.871,4.9023,4.9991,5.0801,5.0801,5.1246,5.1596,5.1596,5.1596,5.1821,5.2532,5.2698,5.301,5.3826,5.3973,5.4039,5.4193,5.4072,5.402,5.4113,5.3814,5.3444,5.3106,5.2624,5.2018,5.1322,5.1021,5.0745,5.0485,5.0167,5.0017,5.0017,4.9741,4.959,4.959,4.959,4.959,4.959,4.959,4.959,4.959,4.959,4.959,4.959,4.959,4.959,4.959,4.959,4.959,4.959,4.959,4.959,4.959,4.959,4.959,4.959,4.959,4.959,4.959,4.959,4.9791,5.0001,4.9992,5.0176,5.0402,5.0402,5.0603,5.0695,5.0142,5.1096,5.2026,5.1774,5.2335,5.2895,5.2895,5.2895,5.2988,5.3264,5.3532,5.4009,5.4881,5.5717,5.6426,5.6935,5.7782,5.8328,5.8303,5.9006,5.9282,5.8736,5.8227,5.7775,5.7481,5.6652,5.62,5.62,5.62,5.62,5.62,5.62,5.62,5.62,5.6451,5.6451,5.62,5.6451,5.6451,4.1436,4.2353,4.369,4.6046,4.7951,4.9206,4.9128,4.9991,5.0801,5.0801,5.1246,5.1596,5.1596,5.1549,5.1711,5.2327,5.2176,5.2433,5.3661,5.329,5.3153,5.3837,5.3687,5.3573,5.3643,5.364,5.3325,5.2597,5.2328,5.1673,5.0469,5.0302,5.0067,4.9615,4.959,4.959,4.959,4.959,4.959,4.959,4.959,4.959,4.959,4.959,4.959,4.959,4.959,4.959,4.959,4.959,4.959,4.959,4.959,4.959,4.959,4.959,4.959,4.959,4.959,4.959,4.959,4.959,4.959,4.959,4.959,4.9665,4.9816,5.0151,5.0327,5.0402,5.0402,5.077,5.0921,5.0092,5.1021,5.195,5.1414,5.2151,5.2895,5.2895,5.2895,5.2895,5.2895,5.3339,5.3909,5.4522,5.5056,5.5742,5.6753,5.738,5.7951,5.851,5.9056,5.9182,5.8736,5.8227,5.765,5.7035,5.6502,5.62,5.62,5.62,5.62,5.62,5.62,5.62,5.62,5.6652,5.6627,5.62,5.6652,5.6627,4.1826,4.3583,4.5534,4.6851,4.8497,4.9677,4.9206,4.9991,5.0801,5.0801,5.1246,5.1596,5.1596,5.1346,5.1349,5.1986,5.2022,5.2058,5.2271,5.2887,5.3168,5.2772,5.353,5.3932,5.3492,5.3315,5.3012,5.2377,5.1333,5.0602,5.0402,4.9967,4.9665,4.959,4.959,4.959,4.959,4.959,4.959,4.959,4.959,4.959,4.959,4.959,4.959,4.959,4.959,4.959,4.959,4.959,4.959,4.959,4.959,4.959,4.959,4.959,4.959,4.959,4.959,4.959,4.959,4.959,4.959,4.959,4.959,4.99,5.0201,4.9816,5.0042,5.0402,5.0402,5.0452,5.0619,5.0971,5.1599,5.195,5.1414,5.2151,5.2895,5.2895,5.2895,5.2895,5.2895,5.3339,5.3909,5.4522,5.5056,5.5616,5.6226,5.6778,5.7355,5.7951,5.8485,5.8786,5.871,5.8227,5.765,5.7035,5.6502,5.62,5.62,5.62,5.62,5.62,5.62,5.62,5.62,5.6276,5.6276,5.62,5.6276,5.6276,4.3782,4.4904,4.5949,4.744,4.8852,4.9755,4.9232,4.9991,5.0801,5.0801,5.083,5.1028,5.1513,5.1157,5.0976,5.1435,5.1323,5.1341,5.1659,5.1778,5.1848,5.1926,5.2242,5.243,5.233,5.244,5.2263,5.1625,5.1061,5.0521,4.9967,4.9715,4.959,4.959,4.959,4.959,4.959,4.959,4.959,4.959,4.959,4.959,4.959,4.959,4.959,4.959,4.959,4.959,4.959,4.959,4.959,4.959,4.959,4.959,4.959,4.959,4.959,4.959,4.959,4.959,4.959,4.959,4.959,4.959,4.959,4.9766,4.9916,4.9665,4.9766,4.9967,4.9967,5.0419,5.0896,5.082,5.1473,5.2051,5.18,5.236,5.2895,5.2895,5.2895,5.2895,5.2895,5.3113,5.3557,5.4454,5.4798,5.5257,5.6075,5.6953,5.7625,5.7876,5.8384,5.8585,5.8278,5.7732,5.7154,5.6602,5.6326,5.62,5.62,5.62,5.62,5.62,5.62,5.62,5.62,5.6502,5.6502,5.62,5.6502,5.6502,4.4778,4.5369,4.5764,4.7438,4.8839,4.9767,4.9561,5.02,5.0801,5.0801,5.0477,5.0354,5.0929,5.074,5.0563,5.086,5.0654,5.0672,5.1203,5.087,5.0768,5.1219,5.1222,5.1218,5.1277,5.156,5.1463,5.0819,5.0706,5.0325,4.9631,4.959,4.959,4.959,4.959,4.959,4.959,4.959,4.959,4.959,4.959,4.959,4.959,4.959,4.959,4.959,4.959,4.959,4.959,4.959,4.959,4.959,4.959,4.959,4.959,4.959,4.959,4.959,4.959,4.959,4.959,4.959,4.959,4.959,4.959,4.959,4.959,4.959,4.959,4.9615,4.9766,5.0419,5.1021,5.0854,5.1481,5.2101,5.2101,5.2511,5.2895,5.2895,5.2895,5.2895,5.2895,5.2895,5.3239,5.4228,5.4496,5.4999,5.605,5.6947,5.7575,5.7876,5.8108,5.8108,5.7725,5.7255,5.6778,5.6226,5.62,5.62,5.62,5.62,5.62,5.62,5.62,5.62,5.62,5.6602,5.6602,5.62,5.6602,5.6577,4.3426,4.4276,4.509,4.6606,4.8237,4.9717,5.0549,5.0775,5.0801,5.0801,5.0276,4.9764,4.9552,4.9839,5.0165,5.0302,5.0233,5.0257,5.0592,5.0614,5.0614,5.0639,5.1133,5.1261,5.0691,5.0885,5.0819,5.0189,4.985,4.9647,4.959,4.959,4.959,4.959,4.959,4.959,4.959,4.959,4.959,4.959,4.959,4.959,4.959,4.959,4.959,4.959,4.959,4.959,4.959,4.959,4.959,4.959,4.959,4.959,4.959,4.959,4.959,4.959,4.959,4.959,4.959,4.959,4.959,4.959,4.959,4.959,4.959,4.959,4.959,4.9715,5.0226,5.0402,5.0703,5.1774,5.2076,5.2101,5.2101,5.2511,5.2895,5.2895,5.2895,5.2895,5.2895,5.2895,5.3088,5.3658,5.4228,5.4999,5.605,5.6251,5.6721,5.7775,5.7405,5.7085,5.7035,5.701,5.6778,5.6226,5.62,5.62,5.62,5.62,5.62,5.62,5.62,5.62,5.62,5.6226,5.6244,5.62,5.6226,5.6244,4.3734,4.4321,4.4778,4.6409,4.8014,4.9261,4.957,4.9932,5.0211,5.0211,4.9559,4.8934,4.8905,4.938,4.9649,4.9198,4.9504,4.9689,4.9479,4.9748,4.996,4.996,5.033,5.0428,5.0017,5.0233,5.0252,4.9808,4.9654,4.959,4.959,4.959,4.959,4.959,4.959,4.959,4.959,4.959,4.959,4.959,4.959,4.959,4.959,4.959,4.959,4.959,4.959,4.959,4.959,4.959,4.959,4.959,4.959,4.959,4.959,4.959,4.959,4.959,4.959,4.959,4.959,4.959,4.959,4.959,4.959,4.959,4.959,4.959,4.959,4.964,4.9841,5.0126,5.0603,5.1398,5.185,5.2101,5.2101,5.2234,5.2485,5.282,5.2895,5.2895,5.2895,5.2895,5.3213,5.4152,5.4454,5.4999,5.605,5.6502,5.6878,5.728,5.7129,5.6985,5.6985,5.6684,5.6401,5.62,5.62,5.62,5.62,5.62,5.62,5.62,5.62,5.62,5.62,5.62,5.62,5.62,5.62,5.62,4.3756,4.4228,4.4686,4.6274,4.7431,4.8418,4.9123,4.9464,4.9598,4.9629,4.9183,4.8709,4.835,4.8778,4.904,4.8541,4.8948,4.928,4.9079,4.938,4.959,4.959,4.9799,4.9831,4.9622,4.9799,4.9831,4.9606,4.959,4.959,4.959,4.959,4.959,4.959,4.959,4.959,4.959,4.959,4.959,4.959,4.959,4.959,4.959,4.959,4.959,4.959,4.959,4.959,4.959,4.959,4.959,4.959,4.959,4.959,4.959,4.959,4.959,4.959,4.959,4.959,4.959,4.959,4.959,4.959,4.959,4.959,4.959,4.959,4.959,4.959,4.959,5.0017,5.0503,5.0896,5.1423,5.1875,5.2076,5.2234,5.246,5.2837,5.2895,5.2895,5.2895,5.2895,5.3163,5.3926,5.4353,5.4906,5.5817,5.6401,5.6784,5.6985,5.6835,5.6728,5.6728,5.6401,5.62,5.62,5.62,5.62,5.62,5.62,5.62,5.62,5.62,5.62,5.62,5.62,5.62,5.62,5.62,5.62,0.0,0.0,0.0,4.603,4.6532,4.7241,4.9349,4.9358,4.8957,4.9052,4.9198,4.8982,4.7885,4.8083,4.8394,4.8404,4.862,4.8953,4.948,4.9565,4.9565,4.959,4.959,4.959,4.959,4.959,4.959,4.959,4.959,4.959,4.959,4.959,4.959,4.959,4.9565,4.9581,4.9581,4.9581,4.9581,4.9581,4.959,4.959,4.959,4.959,4.959,4.959,4.959,4.959,4.959,4.959,4.959,4.959,4.959,4.959,4.959,4.959,4.959,4.959,4.959,4.959,4.959,4.959,4.959,4.959,4.959,4.959,4.959,4.959,4.959,4.959,4.959,4.9992,5.0377,5.0402,5.0845,5.144,5.1975,5.2511,5.287,5.2895,5.2895,5.2895,5.2895,5.2895,5.2895,5.2937,5.3884,5.4798,5.5333,5.5867,5.6401,5.691,5.6502,5.62,5.62,5.62,5.62,5.62,5.62,5.62,5.62,5.62,5.62,5.62,5.62,5.62,5.62,5.62,5.62,5.62,5.62,5.62,4.3049,0.0,0.0,0.0,0.0,0.0,4.7711,4.7514,4.7375,4.8269,4.7853,4.7369,4.7644,4.7829,4.8069,4.8687,4.8432,4.8209,4.836,4.8752,4.9179,4.954,4.959,4.959,4.959,4.959,4.959,4.959,4.959,4.959,4.959,4.959,4.959,4.959,4.9229,4.9028,4.9028,4.9028,4.9028,4.9044,4.9414,4.959,4.959,4.959,4.959,4.959,4.959,4.959,4.959,4.959,4.959,4.959,4.959,4.959,4.959,4.959,4.959,4.959,4.959,4.959,4.959,4.959,4.959,4.959,4.959,4.959,4.959,4.959,4.959,4.959,4.959,4.9715,4.9916,5.0302,5.0528,5.0921,5.19,5.2226,5.2435,5.282,5.2895,5.2895,5.2895,5.2895,5.3038,5.3414,5.4127,5.4798,5.5333,5.5867,5.6251,5.6401,5.6276,5.62,5.62,5.62,5.62,5.62,5.62,5.62,5.62,5.62,5.62,5.62,5.62,5.62,5.62,5.62,5.62,5.62,5.62,5.62,0.0,0.0,4.4113,4.4829,0.0,0.0,4.6937,4.6567,4.641,4.7908,4.7658,4.7345,4.7808,4.8014,4.8091,4.8173,4.7765,4.7757,4.869,4.9007,4.9254,4.9565,4.959,4.959,4.959,4.959,4.959,4.959,4.959,4.949,4.928,4.9012,4.9028,4.9254,4.8727,4.8551,4.8793,4.8551,4.8551,4.8793,4.9129,4.938,4.959,4.959,4.959,4.959,4.959,4.959,4.959,4.959,4.959,4.959,4.959,4.959,4.959,4.959,4.959,4.959,4.959,4.959,4.959,4.959,4.959,4.959,4.959,4.959,4.959,4.959,4.959,4.959,4.959,4.959,4.9665,4.9992,5.0226,5.0578,5.1256,5.1599,5.2,5.2744,5.2895,5.2895,5.2895,5.2895,5.3013,5.3314,5.3876,5.4328,5.4637,5.5164,5.5616,5.5842,5.5867,5.5968,5.6175,5.62,5.62,5.62,5.62,5.62,5.62,5.62,5.62,5.62,5.62,5.62,5.62,5.62,5.62,5.62,5.62,5.62,0.0,0.0,0.0,4.4841,4.4653,0.0,4.6592,4.606,4.5734,4.7689,4.7999,4.7956,4.8166,4.8378,4.828,4.7442,4.7125,4.7653,4.9498,4.954,4.9439,4.949,4.9565,4.9581,4.9515,4.9515,4.9515,4.9515,4.9515,4.9305,4.8818,4.8225,4.8134,4.8677,4.8184,4.8134,4.8617,4.8209,4.825,4.8718,4.8843,4.9129,4.959,4.959,4.959,4.959,4.959,4.959,4.959,4.959,4.959,4.959,4.959,4.959,4.959,4.959,4.959,4.959,4.959,4.959,4.959,4.959,4.9565,4.9515,4.9515,4.9464,4.943,4.949,4.954,4.959,4.959,4.959,4.959,4.959,4.995,5.0327,5.0377,5.082,5.1498,5.2511,5.2787,5.2837,5.2895,5.2895,5.2895,5.2895,5.3339,5.3708,5.3708,5.4228,5.4823,5.5358,5.5408,5.5616,5.615,5.62,5.62,5.62,5.62,5.62,5.62,5.62,5.62,5.62,5.62,5.62,5.62,5.62,5.62,5.62,5.62,5.62,4.3495,4.3902,4.4131,4.4436,4.4462,0.0,4.5487,4.4773,4.4612,4.6919,4.6688,4.6477,4.7944,4.8238,4.8182,4.7964,4.8059,4.8069,4.7727,4.8014,4.841,4.8903,4.933,4.943,4.9003,4.8953,4.8953,4.8953,4.8953,4.8919,4.8818,4.8225,4.7958,4.8083,4.7958,4.7741,4.744,4.8209,4.8451,4.8083,4.9028,4.9506,4.959,4.959,4.959,4.959,4.959,4.959,4.959,4.959,4.959,4.959,4.959,4.959,4.959,4.959,4.959,4.959,4.959,4.959,4.959,4.959,4.9305,4.8953,4.8953,4.8626,4.8335,4.8827,4.928,4.959,4.959,4.959,4.959,4.959,4.9665,4.9866,5.0302,5.0477,5.0795,5.149,5.1975,5.2385,5.2837,5.2895,5.2895,5.2895,5.3339,5.3708,5.3708,5.4228,5.4823,5.5358,5.5408,5.5616,5.615,5.62,5.62,5.62,5.62,5.62,5.62,5.62,5.62,5.62,5.62,5.62,5.62,5.62,5.62,5.62,5.62,5.62,4.3659,4.3962,4.4305,4.4743,4.461,0.0,0.0,4.4905,4.4554,4.6382,4.6301,4.6187,4.7081,4.7501,4.7663,4.7473,4.7576,4.7533,4.7198,4.7734,4.8195,4.8341,4.8586,4.8636,4.8375,4.835,4.835,4.835,4.8109,4.7958,4.7958,4.7415,4.7214,4.749,4.7239,4.7114,4.7099,4.7405,4.7657,4.7908,4.8485,4.9038,4.959,4.959,4.959,4.959,4.959,4.959,4.959,4.959,4.959,4.959,4.959,4.959,4.959,4.959,4.943,4.9204,4.9204,4.8987,4.8761,4.8761,4.856,4.84,4.8718,4.8777,4.8812,4.9104,4.9405,4.959,4.959,4.959,4.959,4.959,4.959,4.9665,4.9941,5.0017,5.0167,5.0745,5.1071,5.1431,5.1983,5.2101,5.2101,5.2101,5.2553,5.2904,5.2904,5.3406,5.3959,5.4486,5.483,5.5207,5.5742,5.6068,5.62,5.62,5.62,5.62,5.62,5.62,5.62,5.62,5.62,5.62,5.62,5.62,5.62,5.6175,5.5942,5.5792,4.3801,4.4031,4.4525,4.4991,4.4766,4.466,0.0,0.0,0.0,4.5882,4.6107,4.6134,4.6283,4.6706,4.6872,4.6417,4.6625,4.6813,4.6626,4.7448,4.8044,4.7862,4.7863,4.7857,4.7767,4.7741,4.7741,4.7741,4.735,4.7099,4.7099,4.6587,4.6512,4.6923,4.6637,4.6612,4.6948,4.6712,4.6988,4.7741,4.7983,4.856,4.9455,4.9455,4.949,4.959,4.9506,4.949,4.959,4.959,4.959,4.959,4.959,4.959,4.9606,4.9464,4.9179,4.8793,4.8667,4.8325,4.7908,4.7908,4.7817,4.7842,4.8309,4.8853,4.9289,4.9414,4.9455,4.9464,4.9565,4.9515,4.9464,4.9581,4.959,4.959,4.959,4.959,4.9715,5.0151,5.0252,5.0469,5.1188,5.1289,5.1289,5.1289,5.1666,5.195,5.195,5.231,5.2787,5.3331,5.4027,5.4655,5.5207,5.5842,5.62,5.62,5.62,5.62,5.62,5.62,5.62,5.62,5.62,5.62,5.62,5.62,5.6168,5.6043,5.5591,5.5358,4.4211,4.4357,4.4413,4.4497,4.4441,4.4458,4.4583,0.0,4.4604,4.5288,0.0,4.5584,4.6196,0.0,0.0,4.4849,4.6067,4.6517,4.4633,4.586,4.7138,4.7576,4.7792,4.7716,4.7224,4.7199,4.7199,4.7199,4.7124,4.7099,4.7099,4.6587,4.6311,4.6386,4.6798,4.6798,4.6386,4.7265,4.7541,4.7199,4.8209,4.8768,4.8894,4.8894,4.9154,4.9565,4.9104,4.9154,4.959,4.959,4.959,4.959,4.959,4.959,4.954,4.9069,4.8853,4.8727,4.8184,4.7958,4.7908,4.7908,4.7591,4.7199,4.7274,4.7666,4.8209,4.8727,4.8894,4.9003,4.948,4.9254,4.9003,4.9506,4.959,4.959,4.959,4.959,4.9615,4.9665,4.969,5.0017,5.1113,5.1289,5.1289,5.1289,5.1339,5.1389,5.1389,5.144,5.1691,5.2226,5.3181,5.4034,5.4647,5.5616,5.62,5.62,5.62,5.62,5.62,5.62,5.62,5.62,5.62,5.62,5.62,5.62,5.5968,5.5509,5.5433,5.5157,4.4353,4.4681,4.4972,4.4948,4.4949,4.4972,4.492,4.4666,4.4469,4.4722,0.0,0.0,0.0,0.0,0.0,0.0,4.5622,4.5972,4.5421,4.5849,4.6261,4.6324,4.6696,4.7157,4.7621,4.7215,4.7041,4.7354,4.6632,4.6311,4.6637,4.6411,4.6286,4.6286,4.6512,4.6537,4.6286,4.6737,4.7014,4.7124,4.7908,4.8451,4.8818,4.9129,4.938,4.9606,4.9355,4.9229,4.9129,4.9129,4.8928,4.8661,4.9003,4.9129,4.9079,4.8501,4.8083,4.7767,4.75,4.7239,4.6963,4.6963,4.7039,4.7174,4.745,4.7983,4.8476,4.8743,4.9028,4.9254,4.9154,4.9204,4.933,4.9556,4.959,4.959,4.959,4.959,4.959,4.959,4.959,4.9741,5.0234,5.0309,5.0309,5.0309,5.0569,5.077,5.077,5.1071,5.1389,5.1599,5.2603,5.3439,5.4027,5.5089,5.5867,5.6175,5.62,5.62,5.62,5.62,5.62,5.62,5.62,5.6068,5.5742,5.5742,5.529,5.4411,5.478,5.4823,4.4276,4.462,4.4958,4.5128,4.5147,4.5098,4.5076,4.4823,4.461,4.4441,4.4525,0.0,0.0,0.0,4.4497,4.4766,0.0,4.5416,4.5527,4.5626,4.5611,4.5529,4.5967,4.6652,4.7524,4.7037,4.6737,4.6881,4.5933,4.5571,4.6065,4.6075,4.615,4.6301,4.6286,4.6286,4.6286,4.6286,4.6486,4.6898,4.7566,4.8058,4.8375,4.9053,4.938,4.938,4.938,4.9154,4.8793,4.8793,4.8451,4.7933,4.8225,4.8325,4.83,4.8008,4.7566,4.7074,4.6923,4.6637,4.6286,4.6286,4.6562,4.7014,4.7691,4.8209,4.8626,4.8928,4.9179,4.933,4.9079,4.9204,4.943,4.9565,4.959,4.959,4.959,4.959,4.959,4.959,4.959,4.959,4.959,4.959,4.959,4.959,4.9941,5.0176,5.0176,5.0569,5.0837,5.0837,5.1825,5.2737,5.3432,5.4511,5.5465,5.615,5.62,5.62,5.62,5.62,5.62,5.62,5.62,5.6018,5.5616,5.5465,5.4888,5.3934,5.4228,5.4278,4.3884,4.3903,4.3867,4.4689,4.4677,4.4418,4.4441,4.4879,4.5103,4.4525,4.4851,4.5103,4.4525,4.4413,0.0,0.0,4.4542,0.0,0.0,4.4579,4.5432,4.5752,4.6088,4.6339,4.6364,4.6337,4.5967,4.5135,4.5039,4.5175,4.5506,4.5537,4.5748,4.6286,4.6286,4.6286,4.6286,4.6286,4.6311,4.6336,4.7405,4.7641,4.7199,4.8309,4.8818,4.8818,4.8818,4.8818,4.8793,4.8793,4.8451,4.7857,4.735,4.7149,4.7224,4.7716,4.7566,4.7023,4.6512,4.6311,4.6286,4.6286,4.6311,4.6512,4.7566,4.7917,4.8159,4.9264,4.9204,4.8928,4.9439,4.9204,4.8953,4.948,4.959,4.959,4.959,4.959,4.959,4.959,4.959,4.959,4.959,4.959,4.959,4.959,4.9615,4.9631,4.9631,4.964,4.964,4.964,5.0661,5.1774,5.2837,5.3976,5.5082,5.6125,5.62,5.62,5.62,5.62,5.62,5.62,5.62,5.6175,5.6175,5.5641,5.5107,5.4572,5.4002,5.3439,4.3752,4.4632,4.5324,4.4762,4.515,4.5428,4.4601,4.4879,4.5196,4.4821,4.504,4.5184,4.4793,4.4548,0.0,0.0,0.0,4.4554,0.0,4.4441,4.4897,4.5401,4.6271,4.6818,4.6818,4.6568,4.6388,4.6456,4.5406,4.4958,4.5477,4.5824,4.5949,4.5773,4.611,4.6286,4.6286,4.6286,4.6286,4.6311,4.7405,4.7616,4.7149,4.8275,4.8793,4.8793,4.8793,4.8793,4.8768,4.8375,4.7867,4.735,4.7174,4.6873,4.6587,4.6763,4.6712,4.6537,4.6361,4.6286,4.6286,4.6286,4.6537,4.6948,4.7666,4.8184,4.8576,4.8953,4.9204,4.928,4.912,4.9204,4.938,4.9565,4.959,4.959,4.959,4.959,4.959,4.959,4.959,4.959,4.959,4.959,4.959,4.959,4.959,4.959,4.959,4.959,4.959,4.959,5.0268,5.1306,5.277,5.4612,5.5817,5.6194,5.62,5.62,5.62,5.62,5.62,5.62,5.62,5.6043,5.5666,5.5509,5.4931,5.4002,5.3808,5.3607,4.3834,4.4672,4.5354,4.4832,4.52,4.5512,4.477,4.5075,4.5403,4.5022,4.5238,4.5324,4.4835,4.4558,4.4413,0.0,0.0,0.0,0.0,4.4413,4.4554,4.4935,4.5872,4.6548,4.6784,4.6335,4.6128,4.6405,4.5284,4.4781,4.5309,4.576,4.5949,4.5773,4.6125,4.6286,4.6286,4.6286,4.6286,4.6311,4.7405,4.7516,4.6848,4.82,4.8576,4.8209,4.84,4.8375,4.8174,4.7767,4.7315,4.6838,4.6838,4.6612,4.6311,4.6512,4.6461,4.6286,4.6286,4.6286,4.6286,4.6286,4.6537,4.6938,4.7465,4.8033,4.8652,4.9455,4.9656,4.9665,4.9907,4.9782,4.959,4.959,4.959,4.959,4.959,4.959,4.959,4.959,4.959,4.959,4.959,4.959,4.959,4.959,4.959,4.959,4.959,4.959,4.959,4.959,4.9916,5.0879,5.2744,5.492,5.62,5.62,5.62,5.62,5.62,5.62,5.6552,5.7374,5.642,5.6118,5.6563,5.5383,5.4411,5.3708,5.349,5.3432]},{"header":{"parameterUnit":"m.s-1","parameterCategory":1,"la1":30.6,"la2":29.2853,"lo1":-89.7004,"lo2":-87.6739,"dy":0.0162,"dx":0.0183,"nx":112,"ny":82,"refTime":"2023-04-06T12:00:00:Z","depth":0,"parameterNumber":3,"parameterNumberName":"V-component_of_WINDS"},"data":[0.0,0.0,0.0,0.0,0.0,0.0,0.0,0.0,0.0,0.0,0.0,0.0,0.0,0.0,0.0,0.0,0.0,0.0,0.0,0.0,0.0,0.0,0.0,0.0,0.0,0.0,0.0,0.0,0.0,0.0,0.0,0.0,0.0,0.0,0.0,0.0,0.0,0.0,0.0,0.0,0.0,0.0,0.0,0.0,0.0,0.0,0.0,0.0,0.0,0.0,0.0,0.0,0.0,0.0,0.0,0.0,0.0,0.0,0.0,0.0,0.0,0.0,0.0,0.0,0.0,0.0,0.0,0.0,0.0,0.0,0.0,0.0,0.0,0.0,0.0,0.0,0.0,0.0,0.0,0.0,0.0,0.0,0.0,0.0,0.0,0.0,0.0,0.0,0.0,0.0,3.9898,4.0437,4.0512,4.0312,3.9848,3.9823,3.9798,3.971,0.0,0.0,0.0,0.0,0.0,0.0,0.0,0.0,0.0,0.0,0.0,0.0,0.0,0.0,0.0,0.0,0.0,0.0,0.0,0.0,0.0,0.0,0.0,0.0,0.0,0.0,0.0,0.0,0.0,0.0,0.0,0.0,0.0,0.0,0.0,0.0,0.0,0.0,0.0,0.0,0.0,0.0,0.0,0.0,0.0,0.0,0.0,0.0,0.0,0.0,0.0,0.0,0.0,0.0,0.0,0.0,0.0,0.0,0.0,0.0,0.0,0.0,0.0,0.0,0.0,0.0,0.0,0.0,0.0,0.0,0.0,0.0,0.0,0.0,0.0,0.0,0.0,0.0,0.0,0.0,0.0,0.0,0.0,0.0,0.0,0.0,0.0,0.0,0.0,0.0,0.0,0.0,0.0,0.0,0.0,0.0,0.0,0.0,0.0,0.0,0.0,0.0,0.0,0.0,3.9898,4.0437,4.0512,4.0462,4.0387,4.0387,4.0186,3.9722,0.0,0.0,0.0,0.0,0.0,0.0,0.0,0.0,0.0,0.0,0.0,0.0,0.0,0.0,0.0,0.0,0.0,0.0,0.0,0.0,0.0,0.0,0.0,0.0,0.0,0.0,0.0,0.0,0.0,0.0,0.0,0.0,0.0,0.0,0.0,0.0,0.0,0.0,0.0,0.0,0.0,0.0,0.0,0.0,0.0,0.0,0.0,0.0,0.0,0.0,0.0,0.0,0.0,0.0,0.0,0.0,0.0,0.0,0.0,0.0,0.0,0.0,0.0,0.0,0.0,0.0,0.0,0.0,0.0,0.0,0.0,0.0,0.0,0.0,0.0,0.0,0.0,0.0,0.0,0.0,0.0,0.0,0.0,0.0,0.0,0.0,0.0,0.0,0.0,0.0,0.0,0.0,0.0,0.0,0.0,0.0,0.0,0.0,0.0,0.0,0.0,0.0,0.0,4.0224,4.0437,4.0099,4.089,4.1041,4.0149,4.0337,4.0261,3.9722,3.9697,0.0,0.0,0.0,0.0,0.0,0.0,0.0,0.0,0.0,0.0,0.0,0.0,0.0,0.0,0.0,0.0,0.0,0.0,0.0,0.0,0.0,0.0,0.0,0.0,0.0,0.0,0.0,0.0,0.0,0.0,0.0,0.0,0.0,0.0,0.0,0.0,0.0,0.0,0.0,0.0,0.0,0.0,0.0,0.0,0.0,0.0,0.0,0.0,0.0,0.0,0.0,0.0,0.0,0.0,0.0,0.0,0.0,0.0,0.0,0.0,0.0,0.0,0.0,0.0,0.0,0.0,0.0,0.0,0.0,0.0,0.0,0.0,0.0,0.0,0.0,0.0,0.0,0.0,0.0,0.0,0.0,0.0,0.0,0.0,0.0,0.0,0.0,0.0,0.0,0.0,0.0,0.0,0.0,0.0,0.0,0.0,0.0,0.0,0.0,0.0,0.0,0.0,4.0538,4.08,3.9973,4.1142,4.1431,3.9998,4.0261,4.0261,3.9722,3.9697,0.0,0.0,0.0,0.0,0.0,0.0,0.0,0.0,0.0,0.0,0.0,0.0,0.0,0.0,0.0,0.0,0.0,0.0,0.0,0.0,0.0,0.0,0.0,0.0,0.0,0.0,0.0,0.0,0.0,0.0,0.0,0.0,0.0,0.0,0.0,0.0,0.0,0.0,0.0,0.0,0.0,0.0,0.0,0.0,0.0,0.0,0.0,0.0,0.0,0.0,0.0,0.0,0.0,0.0,0.0,0.0,0.0,0.0,0.0,0.0,0.0,0.0,0.0,0.0,0.0,0.0,0.0,0.0,0.0,0.0,0.0,0.0,0.0,0.0,0.0,0.0,0.0,0.0,0.0,0.0,0.0,0.0,0.0,0.0,0.0,0.0,0.0,0.0,0.0,0.0,0.0,0.0,0.0,0.0,0.0,0.0,0.0,0.0,0.0,0.0,0.0,0.0,4.0186,4.0538,4.0462,4.1001,4.1127,4.0487,4.0487,4.0261,3.9722,3.9697,0.0,0.0,0.0,0.0,0.0,0.0,0.0,0.0,0.0,0.0,0.0,0.0,0.0,0.0,0.0,0.0,0.0,0.0,0.0,0.0,0.0,0.0,0.0,0.0,0.0,0.0,0.0,0.0,0.0,0.0,0.0,0.0,0.0,0.0,0.0,0.0,0.0,0.0,0.0,0.0,0.0,0.0,0.0,0.0,0.0,0.0,0.0,0.0,0.0,0.0,0.0,0.0,0.0,0.0,0.0,0.0,0.0,0.0,0.0,0.0,0.0,0.0,0.0,0.0,0.0,0.0,0.0,0.0,0.0,0.0,0.0,0.0,0.0,0.0,0.0,0.0,0.0,0.0,0.0,0.0,0.0,0.0,0.0,0.0,0.0,0.0,0.0,0.0,0.0,0.0,0.0,0.0,0.0,0.0,0.0,0.0,0.0,0.0,0.0,0.0,0.0,0.0,4.0161,4.0512,4.0512,4.0976,4.1088,4.0563,4.1116,4.0977,3.9774,0.0,0.0,0.0,0.0,0.0,0.0,0.0,0.0,0.0,0.0,0.0,0.0,0.0,0.0,0.0,0.0,0.0,0.0,0.0,0.0,0.0,0.0,0.0,0.0,0.0,0.0,0.0,0.0,0.0,0.0,0.0,0.0,0.0,0.0,0.0,0.0,0.0,0.0,0.0,0.0,0.0,0.0,0.0,0.0,0.0,0.0,0.0,0.0,0.0,0.0,0.0,0.0,0.0,0.0,0.0,0.0,0.0,0.0,0.0,0.0,0.0,0.0,0.0,0.0,0.0,0.0,0.0,0.0,0.0,0.0,0.0,0.0,0.0,0.0,0.0,0.0,0.0,0.0,0.0,0.0,0.0,0.0,0.0,0.0,0.0,0.0,0.0,0.0,0.0,0.0,0.0,0.0,0.0,0.0,0.0,0.0,0.0,0.0,0.0,0.0,0.0,0.0,3.9697,4.0312,4.0675,4.0512,4.114,4.1366,4.08,4.1647,4.1556,4.0051,0.0,0.0,0.0,0.0,0.0,0.0,0.0,0.0,0.0,0.0,0.0,0.0,0.0,0.0,0.0,0.0,0.0,0.0,0.0,0.0,0.0,0.0,0.0,0.0,0.0,0.0,0.0,0.0,0.0,0.0,0.0,0.0,0.0,0.0,0.0,0.0,0.0,0.0,0.0,0.0,0.0,0.0,0.0,0.0,0.0,0.0,0.0,0.0,0.0,0.0,0.0,0.0,0.0,0.0,0.0,0.0,0.0,0.0,0.0,0.0,0.0,0.0,0.0,0.0,0.0,0.0,0.0,0.0,0.0,0.0,0.0,0.0,0.0,0.0,0.0,0.0,0.0,0.0,0.0,0.0,0.0,0.0,0.0,0.0,0.0,0.0,0.0,0.0,0.0,0.0,0.0,0.0,0.0,0.0,0.0,0.0,0.0,0.0,0.0,0.0,0.0,0.0,3.9723,4.0638,4.1102,4.0576,4.1532,4.1959,4.1391,4.2022,4.1878,0.0,0.0,0.0,0.0,0.0,0.0,0.0,0.0,0.0,0.0,0.0,0.0,0.0,0.0,0.0,0.0,0.0,0.0,0.0,0.0,0.0,0.0,0.0,0.0,0.0,0.0,0.0,0.0,0.0,0.0,0.0,0.0,0.0,0.0,0.0,0.0,0.0,0.0,0.0,0.0,0.0,0.0,0.0,0.0,0.0,0.0,0.0,0.0,0.0,0.0,0.0,0.0,0.0,0.0,0.0,0.0,0.0,0.0,0.0,0.0,0.0,0.0,0.0,0.0,0.0,0.0,0.0,0.0,0.0,0.0,0.0,0.0,0.0,0.0,0.0,0.0,0.0,0.0,0.0,0.0,0.0,0.0,0.0,0.0,0.0,0.0,0.0,0.0,0.0,0.0,0.0,0.0,0.0,0.0,0.0,0.0,0.0,0.0,0.0,0.0,0.0,0.0,0.0,4.0668,4.0731,4.1105,4.2085,4.1835,4.2035,4.3242,4.3848,4.3556,4.2083,0.0,0.0,0.0,0.0,0.0,0.0,0.0,0.0,0.0,0.0,0.0,0.0,0.0,0.0,0.0,0.0,0.0,0.0,0.0,0.0,0.0,0.0,0.0,0.0,0.0,0.0,0.0,0.0,0.0,0.0,0.0,0.0,0.0,0.0,0.0,0.0,0.0,0.0,0.0,0.0,0.0,0.0,0.0,0.0,0.0,0.0,0.0,0.0,0.0,0.0,0.0,0.0,0.0,0.0,0.0,0.0,0.0,0.0,0.0,0.0,0.0,0.0,0.0,0.0,0.0,0.0,0.0,0.0,0.0,0.0,0.0,0.0,0.0,0.0,0.0,0.0,0.0,0.0,0.0,0.0,0.0,0.0,0.0,0.0,0.0,0.0,0.0,0.0,0.0,0.0,0.0,0.0,0.0,0.0,0.0,0.0,0.0,0.0,0.0,0.0,0.0,0.0,4.1496,4.1993,4.2721,4.3947,4.3717,4.398,4.5242,4.5791,4.5372,4.3776,0.0,0.0,0.0,0.0,0.0,0.0,0.0,0.0,0.0,0.0,0.0,0.0,0.0,0.0,0.0,0.0,0.0,0.0,0.0,0.0,0.0,0.0,0.0,0.0,0.0,0.0,0.0,0.0,0.0,0.0,0.0,0.0,0.0,0.0,0.0,0.0,0.0,0.0,0.0,0.0,0.0,0.0,0.0,0.0,0.0,0.0,0.0,0.0,0.0,0.0,0.0,0.0,0.0,0.0,0.0,0.0,0.0,0.0,0.0,0.0,0.0,0.0,0.0,0.0,0.0,0.0,0.0,0.0,0.0,0.0,0.0,0.0,0.0,0.0,0.0,0.0,0.0,0.0,0.0,0.0,0.0,0.0,0.0,0.0,0.0,0.0,0.0,0.0,0.0,0.0,0.0,0.0,0.0,0.0,0.0,0.0,0.0,0.0,0.0,0.0,0.0,0.0,4.2284,4.3888,4.5236,4.5994,4.647,4.6877,4.7248,4.7696,4.7222,4.5613,0.0,0.0,0.0,0.0,0.0,0.0,0.0,0.0,0.0,0.0,0.0,0.0,0.0,0.0,0.0,0.0,0.0,0.0,0.0,0.0,0.0,0.0,0.0,0.0,0.0,0.0,0.0,0.0,0.0,0.0,0.0,0.0,0.0,0.0,0.0,0.0,0.0,0.0,0.0,0.0,0.0,0.0,0.0,0.0,0.0,0.0,0.0,0.0,0.0,0.0,0.0,0.0,0.0,0.0,0.0,0.0,0.0,0.0,0.0,0.0,3.8084,3.7871,0.0,0.0,0.0,0.0,0.0,0.0,0.0,0.0,0.0,0.0,0.0,0.0,0.0,0.0,0.0,0.0,0.0,0.0,0.0,0.0,0.0,0.0,0.0,0.0,0.0,0.0,0.0,0.0,0.0,0.0,0.0,0.0,0.0,0.0,0.0,0.0,0.0,0.0,0.0,0.0,4.3503,4.4583,4.5755,4.7237,4.7182,4.7506,4.8651,4.8833,4.8337,4.7021,4.685,0.0,0.0,0.0,0.0,0.0,0.0,0.0,0.0,0.0,0.0,0.0,0.0,0.0,0.0,0.0,0.0,0.0,0.0,0.0,0.0,0.0,0.0,0.0,0.0,0.0,0.0,0.0,0.0,0.0,0.0,0.0,0.0,0.0,0.0,0.0,0.0,0.0,0.0,0.0,0.0,0.0,0.0,0.0,0.0,0.0,0.0,0.0,0.0,0.0,0.0,0.0,0.0,0.0,0.0,0.0,0.0,0.0,0.0,0.0,3.9142,3.8801,0.0,0.0,0.0,0.0,0.0,0.0,0.0,0.0,0.0,0.0,0.0,0.0,0.0,0.0,0.0,0.0,0.0,0.0,0.0,0.0,0.0,0.0,0.0,0.0,0.0,0.0,0.0,0.0,0.0,0.0,0.0,0.0,0.0,0.0,0.0,0.0,0.0,0.0,0.0,0.0,4.5111,4.6311,4.7599,4.9068,4.9021,4.9235,5.0095,5.0059,4.9607,4.8793,4.7899,0.0,0.0,0.0,0.0,0.0,0.0,0.0,0.0,0.0,0.0,0.0,0.0,0.0,0.0,0.0,0.0,0.0,0.0,0.0,0.0,0.0,0.0,0.0,0.0,0.0,0.0,0.0,0.0,0.0,0.0,0.0,0.0,0.0,0.0,0.0,0.0,0.0,0.0,0.0,0.0,0.0,0.0,0.0,0.0,0.0,0.0,0.0,0.0,0.0,0.0,0.0,0.0,0.0,3.994,4.0001,3.984,4.034,4.0431,4.0188,4.0465,3.9977,3.9011,3.9623,0.0,0.0,0.0,0.0,0.0,0.0,0.0,0.0,0.0,0.0,0.0,0.0,0.0,0.0,0.0,0.0,0.0,0.0,0.0,0.0,0.0,0.0,4.4863,4.79,4.8717,4.8199,4.593,0.0,0.0,0.0,0.0,0.0,0.0,0.0,0.0,0.0,0.0,0.0,4.6588,4.8138,4.9566,5.0733,5.0881,5.0964,5.1194,5.0999,5.0636,5.0088,4.8687,4.7556,0.0,0.0,0.0,0.0,0.0,0.0,0.0,0.0,0.0,0.0,0.0,0.0,0.0,0.0,0.0,0.0,0.0,0.0,0.0,0.0,0.0,0.0,0.0,0.0,0.0,0.0,0.0,0.0,0.0,0.0,0.0,0.0,3.7922,3.8767,0.0,0.0,0.0,0.0,0.0,0.0,0.0,0.0,0.0,0.0,0.0,0.0,0.0,3.9448,3.9885,3.9999,4.0574,4.1629,4.1681,4.2084,4.2739,4.2825,4.2847,4.2783,4.2847,0.0,3.9701,4.0307,0.0,0.0,0.0,0.0,0.0,0.0,0.0,0.0,0.0,0.0,0.0,0.0,0.0,0.0,0.0,0.0,0.0,0.0,0.0,0.0,0.0,0.0,4.5642,4.8023,4.9176,4.9476,4.8556,4.7886,4.7423,4.7236,4.6015,4.484,0.0,0.0,0.0,0.0,0.0,0.0,4.7203,4.8898,5.0322,5.1069,5.1141,5.117,5.1206,5.1182,5.0644,4.9486,4.9674,4.8918,4.687,4.7513,0.0,0.0,0.0,0.0,0.0,0.0,0.0,0.0,0.0,0.0,0.0,0.0,0.0,0.0,0.0,0.0,0.0,0.0,0.0,0.0,0.0,0.0,0.0,0.0,0.0,0.0,0.0,0.0,0.0,3.7302,3.7857,3.8648,3.8185,3.7868,0.0,0.0,0.0,0.0,0.0,0.0,0.0,0.0,0.0,4.022,4.0518,4.1048,4.1859,4.1666,4.1802,4.2241,4.242,4.2599,4.2821,4.3154,4.3362,4.3483,4.3483,4.2951,4.211,4.1628,4.1072,4.0509,0.0,0.0,0.0,0.0,4.0263,4.0317,4.0673,4.0688,4.0606,4.0965,0.0,0.0,0.0,0.0,0.0,0.0,0.0,4.1814,4.4954,4.5963,4.6812,4.9436,5.0339,5.0558,5.0259,4.9337,4.8391,4.7859,4.7164,4.626,4.5087,4.5087,0.0,0.0,0.0,4.6911,4.7579,4.8869,4.9942,5.0578,5.0966,5.1206,5.1206,5.1206,5.0948,5.0391,5.0249,4.9754,4.8747,4.8801,4.8488,0.0,0.0,0.0,0.0,0.0,0.0,0.0,0.0,0.0,0.0,0.0,0.0,0.0,0.0,0.0,0.0,0.0,0.0,0.0,0.0,0.0,0.0,0.0,0.0,0.0,0.0,0.0,0.0,3.7654,3.8234,3.9194,3.8746,3.8512,0.0,0.0,0.0,0.0,0.0,0.0,4.0456,4.1139,4.1649,4.1895,4.2212,4.2828,4.3783,4.3504,4.3389,4.3512,4.3761,4.3869,4.3792,4.4258,4.452,4.4676,4.4491,4.4435,4.4353,4.2872,4.1831,4.1181,4.1011,4.0912,4.0859,4.0795,4.0773,4.0837,4.1259,4.1262,4.1167,4.148,4.1357,4.111,4.111,0.0,0.0,0.0,0.0,4.3032,4.5917,4.6827,4.7645,5.0262,5.1051,5.1206,5.1206,5.0451,4.9489,4.8473,4.7982,4.7255,4.5753,4.6218,0.0,4.5621,4.6649,4.7703,4.819,4.9003,4.9774,5.0398,5.0619,5.0769,5.0936,5.0799,5.0709,5.0709,5.026,5.0039,5.0207,4.9625,4.9127,4.8775,0.0,0.0,0.0,0.0,0.0,0.0,0.0,0.0,0.0,0.0,0.0,0.0,0.0,0.0,0.0,0.0,0.0,0.0,0.0,0.0,0.0,0.0,0.0,0.0,0.0,0.0,0.0,0.0,0.0,4.162,4.0013,0.0,0.0,0.0,0.0,4.0539,4.1603,4.2213,4.2185,4.3225,4.3892,4.4035,4.4305,4.4654,4.5092,4.5281,4.5774,4.6592,4.661,4.694,4.7538,4.7567,4.7567,4.755,4.6905,4.6308,4.5674,4.3744,4.2812,4.2534,4.1891,4.1525,4.1332,4.1064,4.099,4.1022,4.1293,4.1385,4.1459,4.1926,4.1741,4.1489,4.2056,4.1936,0.0,0.0,4.2837,4.3338,4.5412,4.6602,4.7729,4.9535,5.0606,5.1206,5.1206,5.1158,5.0739,4.9475,4.8196,4.7231,4.6876,0.0,4.7149,4.6866,4.8168,4.9176,4.9235,4.9781,5.0416,5.1086,5.0103,4.9625,5.0207,4.9744,4.9408,4.9408,4.9378,4.9595,5.0177,4.9625,4.9565,5.0088,4.8925,0.0,0.0,0.0,0.0,0.0,0.0,0.0,0.0,0.0,0.0,0.0,0.0,0.0,0.0,0.0,0.0,0.0,0.0,0.0,0.0,0.0,0.0,0.0,0.0,0.0,0.0,0.0,0.0,4.2224,4.1975,0.0,4.1917,4.1835,4.196,4.2339,4.3386,4.3954,4.3954,4.4773,4.541,4.5866,4.5974,4.6286,4.6865,4.6934,4.7149,4.7433,4.7433,4.7561,4.7805,4.7805,4.7805,4.7805,4.7561,4.7085,4.6406,4.5314,4.4353,4.3523,4.3263,4.3151,4.3077,4.2973,4.293,4.2941,4.3055,4.3087,4.3022,4.2776,4.2307,4.1862,4.1906,4.2378,4.2967,4.3255,4.3946,4.4901,4.6368,4.7432,4.8442,4.9606,5.0564,5.1206,5.1206,5.0877,5.0416,4.9961,4.9501,4.888,4.7947,4.8222,4.8405,4.7887,4.8652,4.9288,4.9288,4.9841,5.0297,5.0536,5.0529,5.044,5.0207,5.0009,4.9703,4.9318,4.9288,4.9396,4.9625,4.9396,4.9396,4.9625,4.8757,4.8308,0.0,0.0,0.0,0.0,0.0,0.0,0.0,0.0,0.0,0.0,0.0,0.0,0.0,0.0,0.0,0.0,0.0,0.0,0.0,0.0,0.0,0.0,0.0,0.0,0.0,4.0667,4.1772,4.3125,4.3489,4.3653,4.3696,4.3676,4.3803,4.4148,4.5216,4.5877,4.5877,4.6475,4.723,4.8089,4.7886,4.8217,4.9071,4.9088,4.9088,4.9088,4.9088,4.9088,4.9071,4.8868,4.8793,4.8752,4.8316,4.7857,4.7398,4.6795,4.6051,4.5209,4.4338,4.399,4.399,4.399,4.399,4.399,4.399,4.399,4.3932,4.3467,4.3061,4.271,4.2534,4.3203,4.4029,4.4022,4.4802,4.5853,4.6821,4.783,4.8806,4.9584,5.0506,5.1206,5.1206,5.0847,5.0536,5.0536,5.0189,4.9632,4.8787,4.9018,4.9168,4.8708,4.9176,4.9595,4.9595,4.9949,5.0297,5.0506,5.0559,5.0391,4.9931,4.9901,4.9643,4.9007,4.8947,4.9067,4.9288,4.9067,4.9067,4.9288,4.8648,4.8188,4.7978,0.0,0.0,0.0,0.0,0.0,0.0,0.0,0.0,0.0,0.0,0.0,0.0,0.0,0.0,0.0,0.0,0.0,0.0,0.0,0.0,0.0,0.0,0.0,4.1117,4.1921,4.3034,4.4518,4.4517,4.482,4.589,4.5054,4.486,4.5913,4.7155,4.7863,4.7863,4.8438,4.9366,5.0681,5.01,5.0349,5.1601,5.1588,5.1588,5.1588,5.1588,5.1588,5.1572,5.0987,5.071,5.0622,4.9337,4.8774,4.8687,4.8101,4.7852,4.759,4.5093,4.4135,4.4135,4.4135,4.4135,4.4106,4.4066,4.4048,4.4048,4.4048,4.4019,4.399,4.399,4.4425,4.489,4.489,4.5384,4.6051,4.6627,4.771,4.8789,4.9374,5.0418,5.1265,5.1247,5.1236,5.1265,5.1265,5.0283,4.9408,4.9378,4.9378,4.9378,4.9378,4.9871,0.0,5.0226,5.0267,5.0506,5.1146,5.0133,4.9378,4.9348,4.9348,4.9067,4.8338,4.8308,4.8577,4.9198,4.8618,4.8577,4.9258,4.8678,4.8038,4.7369,0.0,0.0,0.0,0.0,0.0,0.0,0.0,0.0,0.0,0.0,0.0,0.0,0.0,0.0,0.0,0.0,0.0,0.0,0.0,0.0,0.0,4.0763,4.2099,4.262,4.3686,4.5051,4.6726,4.6882,4.7114,4.7845,4.7664,4.7612,4.7903,4.8682,4.917,4.917,4.9809,5.0511,5.1323,5.1166,5.1253,5.1588,5.1588,5.1588,5.1588,5.1588,5.1588,5.1601,5.1427,5.1091,5.071,5.0759,5.0266,4.942,4.9262,4.8902,4.835,4.7213,4.6748,4.6748,4.6748,4.6748,4.6632,4.5703,4.5384,4.5296,4.4803,4.4367,4.399,4.399,4.4425,4.489,4.489,4.5384,4.6051,4.6627,4.8021,4.9286,4.9451,5.1125,5.2528,5.2037,5.2306,5.2648,5.2648,5.2378,5.181,5.084,5.1079,5.1241,5.075,5.1217,5.1487,5.0996,5.1367,5.1726,5.1917,5.1618,5.1199,5.072,5.069,5.0002,4.8397,4.8308,4.8158,4.7848,4.7668,4.7889,4.8558,4.9303,4.9363,0.0,0.0,0.0,0.0,0.0,0.0,0.0,0.0,0.0,0.0,0.0,0.0,0.0,0.0,0.0,0.0,0.0,0.0,0.0,0.0,0.0,0.0,4.2639,4.4265,4.5389,4.5993,4.6864,4.8409,4.8839,4.9245,4.986,4.9905,4.9905,4.9905,5.0552,5.0913,5.0913,5.129,5.1771,5.2385,5.2152,5.2123,5.2385,5.2414,5.2414,5.2414,5.2414,5.2414,5.2385,5.2136,5.183,5.1494,5.1572,5.1166,5.0481,5.022,5.0034,4.976,0.0,0.0,0.0,0.0,4.7805,4.7648,4.6621,4.6272,4.6185,4.5529,4.5093,4.4832,4.5111,4.5419,4.575,4.6051,4.6411,4.6835,4.7439,4.8741,4.9994,5.0259,5.1809,5.3109,5.2707,5.2917,5.3198,5.3198,5.3426,0.0,5.2594,5.2294,5.2157,5.2067,5.1887,5.1726,5.1636,5.1696,5.1887,5.2187,5.1947,5.1606,5.1236,5.1206,0.0,0.0,0.0,4.8805,4.8158,4.8128,0.0,0.0,0.0,4.9643,4.9288,4.9535,0.0,0.0,4.9404,4.9501,0.0,0.0,0.0,0.0,0.0,0.0,0.0,0.0,0.0,0.0,0.0,0.0,0.0,0.0,0.0,0.0,4.4811,4.6853,4.8658,4.8508,4.8636,4.978,5.0436,5.1075,5.1746,5.1791,5.1862,5.1907,5.2468,5.2772,5.2714,5.2714,0.0,0.0,0.0,5.3107,5.372,5.372,5.372,5.372,5.3661,5.3603,5.3603,5.2991,5.2655,5.2568,5.2036,5.1775,5.1659,5.117,5.1228,5.1407,4.9054,4.8096,4.8009,4.7921,4.7939,4.791,4.7161,0.0,0.0,4.6301,4.6109,4.6226,4.6743,4.6917,4.7033,4.7619,4.7805,4.7939,4.8554,4.9577,5.0601,5.1232,5.2349,5.3252,5.3216,5.3318,5.3438,5.3438,5.3905,5.4299,5.4299,5.3264,5.2636,5.3216,5.2306,5.1726,5.2247,5.1846,5.1756,5.2366,5.1905,0.0,5.1546,5.1546,5.0709,4.8757,4.9542,4.9871,4.9318,4.9366,4.9396,4.9396,4.9498,4.9516,4.9527,5.014,5.0715,5.1307,5.0697,5.0416,0.0,0.0,0.0,0.0,0.0,0.0,0.0,0.0,0.0,0.0,0.0,0.0,0.0,0.0,0.0,4.4536,4.6686,4.867,5.0116,5.0627,5.0962,5.1195,5.134,5.1862,5.3023,5.3139,5.3371,5.3894,5.4068,5.3907,5.3342,5.3326,5.3646,5.43,5.4184,5.4416,5.5026,5.5026,5.5026,5.5026,5.4532,0.0,5.4271,5.3646,5.3078,5.2626,5.2978,5.2862,5.2407,5.2524,5.2322,5.18,5.061,4.9809,4.9286,4.8728,4.8856,4.917,4.7997,4.7927,4.8223,4.7619,4.7428,4.7445,4.7561,4.7619,0.0,4.7764,4.7805,4.7939,4.8554,4.9433,5.026,5.06,5.2232,5.3598,5.3269,5.4054,5.4803,5.4803,5.4922,5.4999,5.4999,5.4341,5.385,5.3982,5.379,5.3461,5.3067,5.3354,5.3671,5.379,5.37,5.3611,5.3611,5.3611,5.2773,5.0769,4.9924,4.9426,4.9288,4.9763,5.0039,5.0039,5.0559,5.0828,5.0828,5.1487,5.1887,5.2007,5.1876,5.1816,0.0,0.0,0.0,0.0,0.0,0.0,0.0,0.0,0.0,0.0,0.0,4.0335,4.1575,0.0,4.4625,4.6662,4.8237,4.9773,5.1407,5.2165,5.2443,5.2136,5.2356,5.2936,5.3923,5.4271,5.459,5.4938,5.4938,5.4793,5.4474,5.4445,5.459,5.4938,5.4938,5.5084,5.5403,5.5403,5.5403,5.5403,5.5084,5.4938,5.4938,5.4417,5.4031,5.3765,5.3854,5.3636,5.3257,5.3244,5.2677,5.1803,5.169,5.122,5.0569,4.993,4.9913,5.0071,4.9083,4.874,4.86,4.7997,4.7805,4.7852,4.8159,4.8246,4.8391,4.9042,4.8996,4.8909,4.9536,5.0264,5.0827,5.096,5.2531,5.3953,5.3748,5.4491,5.5311,5.5641,5.57,5.579,5.609,5.5867,5.5448,5.479,5.4132,5.3683,5.3683,5.3683,5.3832,5.4149,5.3892,5.3832,5.4179,5.3581,5.2785,5.1756,5.078,5.0253,5.0253,5.0858,5.1026,5.0715,5.1367,5.1546,5.1206,5.2217,5.2707,5.2707,5.3384,5.3144,0.0,0.0,0.0,0.0,0.0,0.0,0.0,3.954,3.9743,4.0704,4.1227,4.2126,4.4126,4.5239,4.6609,4.8888,4.9934,5.102,5.273,5.35,5.3704,5.3207,5.3559,5.4126,5.4793,5.5316,5.5635,5.5765,5.5751,5.5736,5.5606,5.5577,5.5577,5.5577,5.5577,5.5649,5.5751,5.5751,5.5751,5.5751,5.5649,5.5604,5.5672,5.5261,5.5076,5.506,5.457,5.4163,5.3893,5.3605,5.2933,5.2084,5.2465,5.2352,5.1891,5.1162,5.0871,5.0784,5.0262,4.964,4.9018,4.8519,4.827,4.8258,4.8757,4.8989,4.9308,5.039,5.039,5.0216,5.0801,5.1281,5.1655,5.1884,5.3176,5.4369,5.4538,5.5089,5.573,5.6282,5.6372,5.6521,5.7017,5.7094,5.6735,5.573,5.4653,5.4144,5.47,5.4204,5.3994,5.4521,5.3994,5.3815,5.4341,5.3282,5.2606,5.2606,5.1977,5.1576,5.1576,5.2127,5.2067,5.1427,5.1905,5.1876,5.1206,5.2558,5.3198,5.3216,5.4593,5.4192,3.9924,3.9638,3.9681,4.0674,4.0547,4.0362,0.0,4.1553,4.216,4.3117,4.3925,4.504,4.6963,4.7868,4.8958,5.095,5.2297,5.3371,5.4155,5.4793,5.5142,5.5084,5.5155,5.5461,5.6128,5.6258,5.6506,5.7042,5.71,5.6868,5.6316,5.6273,5.6273,5.6273,5.6273,5.6549,5.7086,5.71,5.71,5.7071,5.6535,5.6412,5.663,5.6055,5.5789,5.5746,5.4849,5.4264,5.3893,5.3605,5.3544,5.3578,5.2862,5.2875,5.3139,5.1949,5.1514,5.1485,5.1398,5.0975,5.0477,5.039,4.9983,4.949,4.9577,5.0013,5.0506,5.0651,5.1033,5.1448,5.1758,5.19,5.2222,5.3299,5.4157,5.4955,5.5812,5.6449,5.6915,5.6974,5.7017,5.7017,5.7107,5.7094,5.7034,5.6915,5.6778,5.6675,5.6778,5.6239,5.5893,5.5983,5.5384,5.5012,5.5072,5.4389,5.397,5.397,5.3366,5.2977,5.2977,5.3037,5.2767,5.2097,5.2157,5.1876,5.1206,5.2558,5.3198,5.3216,5.4593,5.4443,4.0381,4.0702,4.1019,4.1039,4.1417,4.1995,4.2724,4.3102,4.3712,4.5198,4.607,4.7068,4.8618,4.9727,5.0788,5.1991,5.3239,5.4184,5.4445,5.5358,5.5852,5.5445,5.6041,5.6477,5.6419,5.6723,5.7042,5.7274,5.7303,5.7187,5.6955,5.6912,5.6912,5.6912,5.6912,5.7042,5.7303,5.7303,5.7303,5.7303,5.7042,5.6982,5.7078,5.6645,5.6325,5.6108,5.5519,5.5174,5.4975,5.4333,5.4338,5.4677,5.3553,5.353,5.3923,5.2659,5.2178,5.2178,5.2178,5.1759,5.1207,5.1207,5.1033,5.0801,5.0801,5.1004,5.1294,5.1697,5.1827,5.1954,5.2447,5.2507,5.2689,5.3589,5.4449,5.5244,5.6017,5.6658,5.7214,5.762,5.7679,5.7812,5.8201,5.8261,5.8261,5.8261,5.7603,5.7094,5.7094,5.6868,5.6598,5.6222,5.5953,5.5611,5.5222,5.494,5.461,5.4209,5.3952,5.3605,5.3228,5.3563,5.3486,5.2797,5.2797,5.2636,5.2378,5.2917,5.3396,5.3803,5.4773,5.467,4.0717,4.1225,4.1603,4.155,4.2428,4.3485,4.4338,4.4647,4.5303,4.7219,4.7985,4.8764,5.0245,5.1381,5.2326,5.302,5.4197,5.5026,5.5026,5.5809,5.6215,5.5722,5.6345,5.6694,5.6419,5.7115,5.7507,5.7303,5.7477,5.7507,5.7303,5.7303,5.7303,5.7303,5.7303,5.7303,5.7303,5.7303,5.7303,5.7303,5.7303,5.7345,5.7444,5.7173,5.6852,5.6412,5.6099,5.5773,5.538,5.4758,5.4648,5.4793,5.3865,5.3807,5.4097,5.3194,5.2846,5.2846,5.2846,5.241,5.1875,5.1875,5.1746,5.1588,5.1588,5.1717,5.2004,5.2558,5.2608,5.267,5.3321,5.3415,5.358,5.4501,5.5232,5.597,5.6808,5.7347,5.7812,5.8278,5.8397,5.8517,5.9009,5.9249,5.9368,5.9368,5.853,5.7842,5.7663,5.7483,5.7124,5.6509,5.6462,5.6252,5.576,5.573,5.5508,5.5017,5.4999,5.47,5.4067,5.4491,5.4341,5.3486,5.3486,5.3396,5.3198,5.3396,5.3725,5.4209,5.488,5.485,4.0682,4.0443,4.0328,4.2173,4.3336,4.4309,4.5558,4.629,4.7265,4.9216,4.9635,5.0245,5.2175,5.3007,5.3661,5.4329,5.5519,5.6332,5.6332,5.6361,5.639,5.6361,5.5838,5.5693,5.6345,5.7536,5.8,5.7361,5.7913,5.8,5.7332,5.7303,5.7303,5.7303,5.7303,5.7303,5.7303,5.7303,5.7303,5.7303,5.7303,5.7458,5.7781,5.7765,5.74,5.6759,5.6499,5.5678,5.4546,5.4503,5.4126,5.3545,5.3516,5.3516,5.3516,5.3487,5.3458,5.3458,5.3458,5.3078,5.2568,5.2568,5.212,5.1588,5.1588,5.2049,5.262,5.2893,5.3409,5.3977,5.4577,5.473,5.5117,5.664,5.7034,5.7393,5.874,5.9039,5.9039,5.9069,5.9056,5.9069,5.9099,5.9651,6.007,6.007,6.004,5.9757,5.9129,5.8457,5.7799,5.7124,5.7064,5.7064,5.7034,5.7034,5.7047,5.7004,5.7004,5.6748,5.6132,5.6132,5.5521,5.4192,5.4179,5.3832,5.3198,5.3862,5.4179,5.4209,5.488,5.485,4.0788,4.13,4.2129,4.3752,4.4719,4.5703,4.7375,4.8275,4.9042,5.0129,5.0225,5.0287,5.0951,5.1934,5.2714,5.2945,5.4902,5.639,5.639,5.7129,5.7173,5.5896,5.6694,5.6926,5.5838,5.6549,5.7115,5.7303,5.7507,5.7739,5.7942,5.7536,5.7507,5.7942,5.7536,5.7303,5.7303,5.7303,5.7303,5.7303,5.7303,5.736,5.7458,5.7458,5.7138,5.6528,5.6431,5.6171,5.5722,5.5287,5.5461,5.5939,5.5084,5.5026,5.5374,5.4909,5.4764,5.4706,5.43,5.4271,5.44,5.3994,5.3704,5.3429,5.2994,5.3036,5.3233,5.3506,5.3873,5.437,5.5175,5.5568,5.6064,5.7457,5.8098,5.856,5.9009,5.9458,5.9638,5.9189,5.9099,5.9099,5.9099,5.9279,5.9578,6.004,6.01,5.9861,5.9189,5.8906,5.8517,5.7829,5.7769,5.759,5.7137,5.7094,5.7094,5.7094,5.7094,5.7017,5.6808,5.6808,5.6389,5.5551,5.5102,5.473,5.4533,5.4311,5.467,5.5521,5.5311,5.5521,4.137,4.2457,4.3777,4.4973,4.608,4.7288,4.8728,4.939,5.0013,5.1145,5.0626,5.0092,5.0553,5.1196,5.1717,5.1837,5.3755,5.551,5.6289,5.6709,5.6723,5.6142,5.6767,5.6896,5.5989,5.6197,5.6665,5.7245,5.7739,5.8116,5.829,5.8116,5.8203,5.8639,5.8,5.7652,5.7652,5.7419,5.7303,5.7303,5.7303,5.7303,5.7303,5.7303,5.71,5.6709,5.6477,5.639,5.6345,5.5816,5.6074,5.6729,5.6009,5.5937,5.6162,5.5754,5.5711,5.5814,5.5066,5.5165,5.5521,5.5143,5.5064,5.5057,5.4619,5.4502,5.4568,5.4828,5.5024,5.5321,5.6009,5.6366,5.6778,5.7859,5.8607,5.9159,5.9398,5.9967,6.0326,5.9907,5.9803,5.9757,5.9488,5.9668,6.0057,6.0715,6.0819,6.0489,5.9578,5.9458,5.9189,5.8517,5.8667,5.8547,5.7872,5.8022,5.8065,5.7842,5.7812,5.7723,5.7483,5.7453,5.7064,5.6222,5.5773,5.5431,5.5192,5.4999,5.5371,5.6192,5.597,5.6329,4.2483,4.3856,4.5133,4.5848,4.7364,4.8861,4.9594,4.978,5.0303,5.2133,5.0787,4.9635,5.0787,5.0829,5.0838,5.1152,5.2355,5.4019,5.6188,5.549,5.5387,5.7114,5.6301,5.5946,5.6759,5.667,5.6795,5.7317,5.8523,5.9016,5.8435,5.8958,5.9306,5.9364,5.8711,5.8363,5.829,5.7652,5.7303,5.7303,5.7317,5.7331,5.7331,5.7331,5.7316,5.7258,5.6706,5.6445,5.6401,5.609,5.5991,5.6048,5.6316,5.6249,5.6021,5.6021,5.6374,5.6745,5.5843,5.5735,5.6007,5.5991,5.6137,5.6322,5.6292,5.6305,5.6359,5.6608,5.6687,5.6783,5.7089,5.7154,5.7334,5.7995,5.8697,5.9368,5.998,6.0655,6.115,6.112,6.109,6.088,6.025,6.0685,6.1329,6.2002,6.2091,6.1613,6.031,6.016,5.9877,5.9219,5.9727,5.9831,5.9159,5.9697,5.9831,5.9189,5.9189,5.8906,5.8248,5.8205,5.759,5.6312,5.6312,5.5983,5.5311,5.5953,5.6252,5.6312,5.6838,5.7137,4.399,4.4991,4.6022,4.7596,4.835,4.9018,5.0174,5.0772,5.112,5.1174,5.0055,4.8932,4.8458,4.896,4.9832,5.1008,5.3639,5.6088,5.7608,5.7971,5.7969,5.7713,5.8238,5.8234,5.7263,5.8202,5.872,5.8371,5.8463,5.89,5.9684,5.9451,5.951,5.9945,5.9568,5.9029,5.8319,5.7652,5.7303,5.7303,5.7542,5.7683,5.7683,5.7863,5.7739,5.7298,5.7151,5.7063,5.7063,5.6969,5.7215,5.7627,5.7696,5.7682,5.7614,5.7614,5.7702,5.7806,5.7576,5.7545,5.7525,5.7098,5.6991,5.6941,5.644,5.6305,5.6359,5.6608,5.6687,5.6872,5.7643,5.7859,5.8008,5.871,5.9744,6.0492,6.016,6.1014,6.1702,6.121,6.109,6.106,6.088,6.1,6.1329,6.2002,6.2091,6.1792,6.094,6.0864,6.0595,5.9921,6.001,5.9831,5.9159,5.9697,6.004,5.9861,6.0326,6.0296,5.9608,5.9578,5.8979,5.7649,5.762,5.7304,5.6628,5.6778,5.7124,5.762,5.7274,5.7646,4.4977,4.6022,4.7039,4.8368,4.8931,4.9325,4.9952,5.0146,5.0151,4.9977,4.8653,4.7489,4.7313,4.7884,4.8807,5.0132,5.2704,5.5251,5.7188,5.7783,5.8115,5.8416,5.9072,5.923,5.8444,5.9069,5.9538,5.9566,5.9436,5.9655,6.0384,6.0354,6.0471,6.0791,6.0224,5.9539,5.8755,5.8186,5.7923,5.7923,5.7953,5.7989,5.7989,5.8112,5.8018,5.7694,5.7399,5.7281,5.7252,5.7092,5.7234,5.7546,5.7665,5.7846,5.796,5.796,5.8181,5.8417,5.8417,5.8513,5.8523,5.8058,5.798,5.8016,5.7643,5.7525,5.7565,5.7712,5.7752,5.7882,5.8387,5.8547,5.8637,5.8996,6.0103,6.0924,6.025,6.1387,6.2435,6.2061,6.1732,6.1628,6.1942,6.1732,6.1762,6.2435,6.2555,6.2405,6.2032,6.1732,6.1283,6.0625,6.0805,6.0715,6.0013,6.0595,6.0835,6.0565,6.088,6.094,6.0565,6.025,5.9608,5.8577,5.8234,5.7769,5.7094,5.7393,5.7739,5.8085,5.8022,5.8381,4.5917,4.7126,4.82,4.8815,4.9465,4.9852,4.9519,4.9025,4.8693,4.8845,4.7254,4.6083,4.6859,4.736,4.8088,4.9392,5.1312,5.3612,5.6391,5.6767,5.7463,5.9277,5.9481,5.9553,5.9755,5.967,5.9932,6.0706,6.0911,6.0984,6.094,6.1482,6.179,6.1732,6.0822,6.0063,5.9495,5.8997,5.8716,5.8642,5.8363,5.825,5.825,5.8292,5.8305,5.8276,5.7787,5.7508,5.7419,5.7139,5.7024,5.7054,5.7258,5.7577,5.7886,5.7886,5.8243,5.8732,5.8732,5.8896,5.9058,5.8844,5.8896,5.9099,5.9099,5.9099,5.9099,5.9099,5.9099,5.9099,5.9099,5.9099,5.9099,5.9099,6.0057,6.0791,6.022,6.1597,6.2988,6.3063,6.2614,6.2435,6.3003,6.2614,6.2435,6.3003,6.3108,6.3108,6.3108,6.2584,6.1972,6.1299,6.1762,6.1822,6.115,6.1702,6.1852,6.1269,6.1299,6.1329,6.1239,6.0655,6.001,5.9249,5.8756,5.8128,5.7363,5.8038,5.8367,5.8397,5.8876,5.9189,4.7788,4.8769,4.9519,5.0187,5.083,5.1074,5.0298,5.0046,4.9614,4.8436,4.7295,4.6535,4.6521,4.7303,4.8645,5.0841,5.3248,5.5768,5.8421,5.8813,5.9205,6.0326,6.0458,6.0326,6.0071,6.0735,6.116,6.1027,6.2072,6.2556,6.2301,6.2629,6.2721,6.2425,6.1526,6.0834,6.037,5.955,5.8833,5.8289,5.8518,5.8596,5.8609,5.8841,5.895,5.895,5.8817,5.8771,5.8771,5.8705,5.8689,5.8689,5.8713,5.8803,5.8868,5.8868,5.8928,5.9018,5.9018,5.9058,5.9085,5.9045,5.9058,5.9099,5.9099,5.9099,5.9099,5.9099,5.9099,5.9099,5.9099,5.9099,5.9099,5.9099,5.9697,6.025,6.013,6.1238,6.2435,6.2988,6.3018,6.2944,6.3078,6.3003,6.2988,6.3063,6.3108,6.3108,6.3108,6.3003,6.2674,6.2002,6.2032,6.1822,6.115,6.1702,6.2061,6.1942,6.2465,6.2495,6.1942,6.1822,6.1178,5.9951,6.0356,5.9983,5.877,5.9428,5.9741,5.9741,5.9308,5.9684,4.8403,4.9436,5.0361,5.1004,5.1149,5.0846,4.9823,4.9087,4.8346,4.7332,4.6514,4.5961,4.6032,4.7246,4.8676,4.9979,5.2735,5.5385,5.7308,5.8581,5.9597,6.0354,6.0748,6.0895,6.0677,6.154,6.1907,6.1395,6.2927,6.3653,6.3148,6.3268,6.3046,6.2351,6.1909,6.1393,6.0858,6.025,5.9599,5.8934,5.8924,5.8896,5.8896,5.8882,5.8882,5.8882,5.8882,5.869,5.8375,5.851,5.8367,5.8052,5.8052,5.8278,5.8577,5.8577,5.8786,5.9099,5.9099,5.9099,5.9099,5.9099,5.9099,5.9099,5.9099,5.9099,5.9099,5.9099,5.9099,5.9099,5.9099,5.9099,5.9099,5.9099,5.9338,5.9861,6.0894,6.1373,6.1882,6.2884,6.3108,6.3108,6.3108,6.3108,6.3108,6.3108,6.3108,6.3108,6.3108,6.3108,6.2988,6.2644,6.2614,6.2495,6.2165,6.2435,6.2614,6.2614,6.2914,6.2958,6.2644,6.2285,6.1806,6.1134,6.1104,6.0791,6.0133,6.0475,6.0625,6.0625,6.0296,6.0492,4.8919,5.0104,5.1232,5.1701,5.1556,5.0879,4.9287,4.8089,4.7087,4.6429,4.5761,4.5468,4.6013,4.7319,4.8468,4.9015,5.153,5.4001,5.5741,5.7612,5.9146,6.009,6.0787,6.1251,6.1367,6.2059,6.2387,6.2142,6.3712,6.4457,6.3936,6.3907,6.3461,6.2529,6.2381,6.1982,6.1302,6.0909,6.034,5.9616,5.9278,5.9058,5.9004,5.8871,5.8803,5.8803,5.8803,5.8492,5.8029,5.8244,5.8008,5.7526,5.7526,5.7842,5.8294,5.8294,5.8637,5.9099,5.9099,5.9099,5.9099,5.9099,5.9099,5.9099,5.9099,5.9099,5.9099,5.9099,5.9099,5.9099,5.9099,5.9099,5.9099,5.9099,5.9099,5.9608,6.1493,6.1479,6.1479,6.2824,6.3108,6.3108,6.3108,6.3108,6.3108,6.3108,6.3108,6.3108,6.3108,6.3108,6.3108,6.3108,6.3108,6.3108,6.3108,6.3108,6.3108,6.3108,6.3108,6.3108,6.3108,6.2584,6.2241,6.2091,6.1732,6.1389,6.109,6.1239,6.1299,6.1299,6.118,6.1239,5.0113,5.1465,5.2423,5.2481,5.2875,5.25,4.9624,4.8428,4.7616,4.6514,4.5761,4.5749,4.7173,4.7558,4.8152,4.957,5.0532,5.2252,5.5554,5.6648,5.7888,5.9945,6.0787,6.1425,6.1948,6.2095,6.263,6.378,6.4546,6.4934,6.486,6.486,6.4561,6.3859,6.3305,6.2678,6.2006,6.1363,6.0607,5.9686,5.9292,5.8964,5.8732,5.895,5.9058,5.9058,5.9058,5.9029,5.8969,5.8996,5.8979,5.8919,5.8919,5.8936,5.8996,5.8996,5.9069,5.9099,5.9099,5.9099,5.9099,5.9099,5.9099,5.9099,5.9099,5.9099,5.9099,5.9099,5.9099,5.9099,5.9099,5.9099,5.9099,5.9099,5.9099,5.9474,6.088,6.115,6.1479,6.2824,6.3108,6.3108,6.3108,6.3108,6.3108,6.3108,6.3108,6.3108,6.3108,6.3108,6.3108,6.3108,6.3108,6.3108,6.3108,6.3108,6.3108,6.3108,6.3108,6.3108,6.3108,6.3048,6.2734,6.2121,6.2644,6.2315,6.109,6.1702,6.2002,6.2002,6.1389,6.1762,5.0374,5.2178,5.3646,5.3239,5.2733,5.185,4.9984,4.8416,4.7291,4.6924,4.6632,4.6629,4.7246,4.7666,4.7985,4.8239,4.9862,5.1775,5.3741,5.5384,5.7166,5.9393,6.0206,6.099,6.2006,6.2974,6.3943,6.4881,6.517,6.5397,6.5592,6.4829,6.4126,6.3482,6.3227,6.2764,6.2121,6.1852,6.1317,6.0548,5.9972,5.9643,5.9547,5.9091,5.8841,5.8841,5.8841,5.8841,5.8855,5.9031,5.9099,5.9099,5.9099,5.9099,5.9099,5.9099,5.9099,5.9099,5.9099,5.9099,5.9099,5.9099,5.9099,5.9099,5.9099,5.9099,5.9099,5.9099,5.9099,5.9099,5.9099,5.9099,5.9099,5.9099,5.9099,5.9488,6.0821,6.109,6.1479,6.2824,6.3108,6.3108,6.3108,6.3108,6.3108,6.3108,6.3108,6.3108,6.3108,6.3108,6.3108,6.3108,6.3108,6.3108,6.3108,6.3108,6.3108,6.3108,6.3108,6.3108,6.3108,6.3108,6.2974,6.2704,6.2944,6.2824,6.2315,6.2584,6.2704,6.2704,6.2435,6.2584,5.0146,5.2136,5.3878,5.3574,5.2639,5.1414,4.9959,4.8211,4.6922,4.6928,4.6926,4.7026,4.7391,4.78,4.7968,4.7531,4.9319,5.1121,5.213,5.4043,5.6086,5.8075,5.8871,5.9828,6.1396,6.3407,6.4924,6.5593,6.5568,6.5558,6.5712,6.471,6.3993,6.3677,6.3303,6.2854,6.2405,6.2181,6.172,6.0964,6.0374,5.9969,5.9678,5.9063,5.88,5.88,5.88,5.88,5.8814,5.9018,5.9099,5.9099,5.9099,5.9099,5.9099,5.9099,5.9099,5.9099,5.9099,5.9099,5.9099,5.9099,5.9099,5.9099,5.9099,5.9099,5.9099,5.9099,5.9099,5.9099,5.9099,5.9099,5.9099,5.9099,5.9099,5.9504,6.106,6.1389,6.1852,6.3348,6.3512,6.3363,6.3363,6.3213,6.3108,6.3108,6.3108,6.3108,6.3108,6.3108,6.3108,6.3108,6.3108,6.3108,6.3108,6.3108,6.3108,6.3108,6.3108,6.3108,6.3108,6.3108,6.3108,6.3108,6.3108,6.3108,6.3108,6.3108,6.3108,6.3108,6.3108,6.3108,4.9394,5.112,5.2772,5.3342,5.2827,5.1628,4.9488,4.7816,4.6615,4.6368,4.6307,4.6673,4.7856,4.8108,4.8108,4.808,4.8882,4.9936,5.1156,5.2715,5.4301,5.5842,5.6576,5.7801,6.0003,6.3139,6.527,6.5933,6.5682,6.538,6.5039,6.4681,6.4651,6.4964,6.3767,6.3108,6.3108,6.2435,6.1606,6.061,6.0277,5.962,5.8721,5.8964,5.9085,5.9085,5.9085,5.9085,5.9099,5.9099,5.9099,5.9099,5.9099,5.9099,5.9099,5.9099,5.9099,5.9099,5.9099,5.9099,5.9099,5.9099,5.9099,5.9099,5.9099,5.9099,5.9099,5.9099,5.9099,5.9099,5.9099,5.9099,5.9099,5.9099,5.9099,5.9668,6.1642,6.2091,6.266,6.4605,6.4441,6.3977,6.3977,6.3512,6.3108,6.3108,6.3108,6.3108,6.3108,6.3108,6.3108,6.3108,6.3108,6.3108,6.3108,6.3108,6.3108,6.3108,6.3108,6.3108,6.3108,6.3108,6.3108,6.3108,6.3108,6.3108,6.3108,6.3108,6.3108,6.3108,6.3108,6.3108,4.8292,4.9625,5.08,5.0989,5.0178,4.9082,4.8235,4.6979,4.6069,4.6256,4.6307,4.6673,4.7884,4.7743,4.7819,4.888,4.9661,5.0471,5.145,5.389,5.6294,5.8102,6.0964,6.3051,6.3756,6.4732,6.5631,6.6274,6.6236,6.6228,6.6355,6.5398,6.4487,6.3737,6.3722,6.3512,6.3108,6.2884,6.2631,6.2292,6.172,6.1062,6.0337,5.9955,5.9518,5.9099,5.9099,5.9099,5.9129,5.9578,5.9518,5.9159,5.9608,5.9488,5.9099,5.9099,5.9099,5.9099,5.9099,5.9099,5.9099,5.9099,5.9099,5.9099,5.9099,5.9099,5.9099,5.9099,5.9099,5.9099,5.9099,5.9099,5.9099,5.9099,5.9099,5.9668,6.1672,6.1732,6.1987,6.3932,6.4156,6.4006,6.4006,6.4216,6.4411,6.4411,6.4411,6.4411,6.4411,6.4411,6.4411,6.4411,6.4411,6.4066,6.3153,6.3482,6.3722,6.3722,6.4156,6.4171,6.3722,6.3722,6.3512,6.3108,6.3108,6.3108,6.3108,6.3108,6.3108,6.3108,6.3108,6.3108,4.7306,4.8546,4.9575,4.9829,4.8856,4.7751,4.7348,4.6381,4.57,4.6203,4.6307,4.6673,4.7884,4.7771,4.7847,4.8826,4.9851,5.0872,5.1792,5.4773,5.7547,5.951,6.2531,6.4377,6.4237,6.4894,6.5588,6.6259,6.6082,6.597,6.6098,6.5066,6.3936,6.2761,6.3322,6.3482,6.3108,6.3108,6.2974,6.2704,6.2315,6.1762,6.109,6.0685,6.0116,5.9488,5.9488,5.9338,0.0,5.9831,5.9711,5.9159,5.9831,5.9681,5.9099,5.9099,5.9099,5.9099,5.9099,5.9099,5.9099,5.9099,5.9099,5.9099,5.9099,5.9099,5.9099,5.9099,5.9099,5.9099,5.9099,5.9099,5.9099,5.9099,5.9099,5.9668,6.1672,6.1972,6.2421,6.4366,6.4755,6.4755,6.4755,6.4889,6.4994,6.4994,6.4994,6.4994,6.4994,6.4994,6.4994,6.4994,6.4994,6.468,6.3887,6.4156,6.4381,6.4381,6.477,6.471,6.4036,6.4006,6.3722,6.3108,6.3108,6.3108,6.3108,6.3108,6.3108,6.3108,6.3108,6.3108,0.0,4.7718,4.8745,4.9423,4.8466,4.7246,4.6777,4.5954,0.0,4.6223,4.6335,4.6673,4.7884,4.8052,4.8052,4.819,4.9647,5.1114,5.2242,5.5468,5.839,6.0194,6.1933,6.2781,6.2256,6.3915,6.5269,6.5874,6.5374,6.4924,6.4679,6.4002,6.3216,6.2337,6.2819,6.3093,6.3064,6.3093,6.2794,6.2181,6.2181,6.1792,6.109,6.115,6.0731,6.004,6.007,5.9727,5.9159,5.9831,5.9711,5.9159,5.9831,5.9681,5.9099,5.9099,5.9099,5.9099,5.9099,5.9099,5.9099,5.9099,5.9099,5.9099,5.9099,5.9099,5.9099,5.9099,5.9099,5.9099,5.9099,5.9099,5.9099,5.9099,5.9099,5.9638,6.1613,6.2495,6.3482,6.5473,6.5847,6.5892,6.5966,6.5518,6.5144,6.5144,6.5144,6.5144,6.5144,6.5144,6.5144,6.5144,6.5144,6.5144,6.5144,6.5084,6.5084,6.5144,6.5144,6.4859,6.4186,6.4096,6.3767,6.3108,6.3108,6.3108,6.3108,6.3108,6.3108,6.3108,6.3108,6.3108,4.5596,0.0,4.5615,4.622,4.5777,4.5363,0.0,4.5838,4.5609,4.6745,4.6616,4.6673,4.7884,4.7728,4.7803,4.8962,4.9718,5.0865,5.3067,5.7801,6.114,6.1363,6.3895,6.4978,6.3409,6.4527,6.533,6.5255,6.5309,6.5345,6.5303,6.4412,6.404,6.4293,6.3515,6.2978,6.2717,6.2978,6.3003,6.2854,6.2854,6.2241,6.112,6.1642,6.0954,5.9368,5.9891,5.9727,5.9159,5.9831,5.9711,5.9159,5.9831,5.9681,5.9099,5.9099,5.9099,5.9099,5.9099,5.9099,5.9099,5.9099,5.9099,5.9099,5.9099,5.9099,5.9099,5.9099,5.9099,5.9099,5.9099,5.9099,5.9099,5.9099,5.9099,5.9504,6.1,6.1058,6.1537,6.3977,6.4485,6.4814,6.5817,6.6295,6.652,6.652,6.652,6.652,6.652,6.652,6.652,6.652,6.652,6.652,6.652,6.6056,6.5966,6.649,6.652,6.6221,6.5562,6.5039,6.4231,6.3123,6.3108,6.3108,6.3108,6.3108,6.3108,6.3108,6.3108,6.3108,4.4879,4.4851,4.4879,4.5216,4.4851,4.4582,4.5256,4.5143,4.516,4.6127,4.6307,4.6588,4.7531,4.7644,4.7891,4.8731,5.0292,5.2761,5.6593,5.9553,6.1753,6.2886,6.4556,6.5317,6.4541,6.5222,6.5588,6.5249,6.5389,6.5377,6.511,6.4144,6.3758,6.4115,6.3296,6.2862,6.2833,6.3007,6.2944,6.2644,6.2944,6.2555,6.1569,6.2241,6.1806,6.0505,6.0878,6.0625,6.0057,6.0416,6.0146,5.9578,5.9951,5.9681,5.9099,5.9099,5.9099,5.9099,5.9099,5.9099,5.9099,5.9099,5.9099,5.9099,5.9099,5.9099,5.9099,5.9099,5.9099,5.9099,5.9099,5.9099,5.9099,5.9099,5.9099,5.9385,6.0416,6.0595,6.1253,6.3558,6.4246,6.4889,6.6221,6.6759,6.7014,6.7014,6.7014,6.7014,6.7014,6.7014,6.7014,6.7014,6.7014,6.7014,6.7014,6.667,6.661,6.6984,6.7014,6.67,6.6041,6.5637,6.4844,6.3542,6.3243,6.3108,6.3108,6.3108,6.3108,6.3108,6.3108,6.3108,4.4413,4.4954,4.5472,4.5228,4.4766,4.4413,4.4525,4.4554,4.4722,4.534,4.5986,4.6588,4.711,4.7771,4.8262,4.8312,5.1278,5.5169,5.9808,6.0501,6.1346,6.366,6.426,6.4669,6.5169,6.5567,6.5641,6.5314,6.5228,6.4976,6.4456,6.3594,6.3135,6.3224,6.2868,6.2818,6.3108,6.3108,6.2794,6.2241,6.2824,6.2734,6.2121,6.2794,6.2674,6.1942,6.1942,6.1583,6.094,6.0821,6.0475,5.9951,5.9951,5.9608,5.9099,5.9099,5.9099,5.9099,5.9099,5.9099,5.9099,5.9099,5.9099,5.9099,5.9099,5.9099,5.9099,5.9099,5.9099,5.9099,5.9099,5.9099,5.9099,5.9099,5.9099,5.9249,5.9831,6.0475,6.1523,6.3468,6.4411,6.5308,6.6759,6.7014,6.7014,6.7014,6.7014,6.7044,6.7134,6.7074,6.7044,6.7134,6.7074,6.7014,6.7014,6.7014,6.7014,6.7014,6.7014,6.67,6.6041,6.5787,6.5203,6.4186,6.3452,6.3168,6.3257,6.3123,6.3108,6.3108,6.3183,6.3257,4.4413,4.5418,4.6171,4.4865,4.4469,4.4525,4.5047,4.516,4.5356,4.6026,4.6645,4.7082,4.7166,4.8108,4.8944,4.9226,5.2569,5.5616,5.6949,5.9582,6.1274,6.0935,6.278,6.4052,6.3895,6.441,6.4623,6.4359,6.3994,6.3788,6.3758,6.3339,6.3337,6.3845,6.3321,6.305,6.3108,6.3108,6.3048,6.2944,6.3048,6.2734,6.2121,6.2794,6.2435,6.1239,6.1239,6.0864,6.022,5.9638,5.9368,5.9249,5.9249,5.9189,5.9099,5.9099,5.9099,5.9099,5.9099,5.9099,5.9099,5.9099,5.9099,5.9099,5.9099,5.9099,5.9099,5.9099,5.9099,5.9099,5.9099,5.9099,5.9099,5.9099,5.9099,5.9129,5.9249,5.9787,6.0848,6.2854,6.3722,6.4755,6.667,6.7014,6.7014,6.7014,6.7014,6.7194,6.7762,6.7343,6.7224,6.7808,6.7343,6.7014,6.7014,6.7014,6.7014,6.7014,6.7014,6.67,6.6041,6.4904,6.4485,6.4845,6.3692,6.3333,6.3857,6.3333,6.3108,6.3108,6.3617,6.3857,4.4301,4.4912,4.5413,4.5148,4.5996,4.6866,4.6773,4.704,4.7243,4.7055,4.7486,4.786,4.7725,4.8811,5.0571,5.3089,5.4502,5.604,5.8147,5.9567,6.0646,6.1419,6.2359,6.3562,6.5019,6.4632,6.4371,6.456,6.4427,6.4159,6.3831,6.3664,6.3707,6.3977,6.3422,6.3108,6.3108,6.3108,6.2928,6.2555,6.2928,6.2734,6.2121,6.2794,6.2764,6.2151,6.1792,6.1463,6.1118,6.007,5.9651,5.9608,5.9249,5.9099,5.9099,5.9099,5.9099,5.9099,5.9099,5.9099,5.9099,5.9099,5.9099,5.9099,5.9099,5.9099,5.9099,5.9099,5.9099,5.9099,5.9099,5.9099,5.9099,5.9099,5.9099,5.9189,5.9548,5.9891,6.0789,6.3123,6.3797,6.4635,6.6655,6.7014,6.7014,6.7014,6.7313,6.7643,6.7958,6.8062,6.8062,6.8017,6.7703,6.7373,6.7044,6.7014,6.7014,6.7014,6.7014,6.6849,6.655,6.5592,6.5218,6.5547,6.459,6.4096,6.4006,6.3722,6.3602,6.3602,6.3857,6.4186,4.4104,4.4556,4.5084,4.5659,4.6925,4.8024,4.7991,4.8285,4.8448,4.8015,4.8647,4.9045,4.8329,4.9594,5.1951,5.5746,5.5997,5.6837,6.0001,6.0165,6.0632,6.2516,6.2761,6.359,6.5727,6.4881,6.435,6.4755,6.462,6.4321,6.3827,6.3782,6.3782,6.3782,6.3333,6.3108,6.3108,6.3108,6.2824,6.2345,6.2854,6.2824,6.2345,6.2868,6.3108,6.3048,6.2225,6.1882,6.1762,6.0429,5.9861,5.9801,5.9308,5.9099,5.9099,5.9099,5.9099,5.9099,5.9099,5.9099,5.9099,5.9099,5.9099,5.9099,5.9099,5.9099,5.9099,5.9099,5.9099,5.9099,5.9099,5.9099,5.9099,5.9099,5.9219,5.9458,5.998,6.034,6.1208,6.3348,6.4036,6.4784,6.646,6.6894,6.7014,6.7014,6.7553,6.8047,6.8211,6.869,6.8794,6.8271,6.8107,6.7748,6.7074,6.7014,6.7014,6.7014,6.7014,6.7014,6.7014,6.637,6.6056,6.6221,6.5413,6.4829,6.4485,6.4156,6.4066,6.4246,6.4246,6.459,4.3722,4.503,4.6468,4.6141,4.558,4.5612,4.7571,4.7615,4.7541,4.8657,5.0319,5.093,4.8859,5.0243,5.2362,5.4418,5.6349,5.8443,6.0804,6.1555,6.2188,6.2956,6.4089,6.4635,6.4314,6.4379,6.4353,6.4097,6.3542,6.3227,6.3168,6.3153,6.3153,6.3153,6.3123,6.3108,6.3108,6.3108,6.3078,6.3048,6.3078,6.3063,6.3048,6.3078,6.3108,6.3048,6.1732,6.118,6.106,5.9714,5.9189,5.9159,5.9129,5.9099,5.9099,5.9099,5.9099,5.9099,5.9099,5.9099,5.9099,5.9099,5.9099,5.9099,5.9099,5.9099,5.9099,5.9099,5.9099,5.9099,5.9099,5.9099,5.9099,5.9099,5.9578,6.004,6.01,6.1088,6.2195,6.3003,6.4126,6.5174,6.5936,6.658,6.7014,6.7014,6.7553,6.8211,6.8854,6.8974,6.8974,6.8944,6.8361,6.7748,6.7074,6.7014,6.7014,6.7014,6.7014,6.7014,6.7014,6.637,6.6281,6.6924,6.5667,6.5278,6.5847,6.4605,6.4321,6.4934,6.4934,6.5308,4.3919,4.5341,4.6606,4.6193,4.6254,4.6973,4.9177,5.0117,5.0628,5.0941,5.2183,5.2793,5.1371,5.3244,5.5154,5.5651,5.756,5.9477,6.0926,6.1864,6.2598,6.3037,6.3331,6.3748,6.4349,6.3758,6.3505,6.3962,6.3452,6.3108,6.3108,6.3108,6.3108,6.3108,6.3108,6.3108,6.3108,6.2674,6.2674,6.3108,6.3108,6.2884,6.2495,6.2495,6.2241,6.1792,6.0864,6.0475,6.0416,5.9488,5.9099,5.9099,5.9099,5.9099,5.9099,5.9099,5.9099,5.9099,5.9099,5.9099,5.9099,5.9099,5.9099,5.9099,5.9099,5.9099,5.9099,5.9099,5.9099,5.9099,5.9099,5.9099,5.9099,5.9099,5.9608,6.022,6.0625,6.1463,6.2421,6.3452,6.4381,6.5203,6.5877,6.655,6.7134,6.7553,6.8181,6.887,6.9558,6.9618,6.9453,6.9034,6.8032,6.7284,6.7014,6.7014,6.7014,6.7014,6.7014,6.7014,6.7014,6.6759,6.6729,6.7014,6.649,6.6161,6.5996,6.5488,6.5368,6.5637,6.5637,6.5966,4.3835,4.4887,4.5829,4.6279,4.6864,4.7952,5.0419,5.1523,5.2169,5.2801,5.3388,5.3785,5.3753,5.4983,5.6085,5.625,5.8142,5.9932,6.097,6.1995,6.2683,6.2924,6.31,6.3428,6.3921,6.3416,6.3235,6.3663,6.3333,6.3108,6.3108,6.3108,6.3108,6.3108,6.3108,6.3108,6.3108,6.2435,6.2345,6.2794,6.2584,6.2345,6.2091,6.2091,6.1732,6.106,6.0386,6.01,6.004,5.9368,5.9099,5.9099,5.9099,5.9099,5.9099,5.9099,5.9099,5.9099,5.9099,5.9099,5.9099,5.9099,5.9099,5.9099,5.9099,5.9099,5.9099,5.9099,5.9099,5.9099,5.9099,5.9099,5.9159,5.9368,5.9937,6.0595,6.1269,6.1942,6.2674,6.3542,6.4231,6.4889,6.5577,6.6251,6.6969,6.7868,6.8571,6.9243,6.9917,7.0157,6.9931,6.9093,6.8002,6.7224,6.7014,6.7014,6.7014,6.7014,6.7014,6.7014,6.7014,6.7014,6.7014,6.7014,6.7014,6.6759,6.6311,6.6086,6.6116,6.6311,6.6086,6.637,4.334,4.3509,4.4086,4.6495,4.7112,4.7903,5.0908,5.1149,5.1423,5.3981,5.3781,5.3723,5.5639,5.4976,5.4559,5.5812,5.7858,5.9742,6.1019,6.1988,6.2593,6.2608,6.3754,6.4055,6.2719,6.3428,6.3737,6.3123,6.3108,6.3108,6.3108,6.3108,6.3108,6.3108,6.3093,6.3108,6.3108,6.2435,6.2091,6.2091,6.1419,6.1419,6.2061,6.2061,6.1732,6.103,6.04,6.01,6.004,5.9368,5.9099,5.9099,5.9099,5.9099,5.9099,5.9099,5.9099,5.9099,5.9099,5.9099,5.9099,5.9099,5.9099,5.9099,5.9099,5.9099,5.9099,5.9099,5.9099,5.9099,5.9129,5.9129,5.9279,5.9951,6.0625,6.1299,6.1972,6.2614,6.3108,6.3108,6.3602,6.4216,6.4874,6.5547,6.646,6.7808,6.8571,6.9243,6.9887,7.05,7.041,6.9123,6.8391,6.7748,6.7074,6.7014,6.7014,6.7014,6.7014,6.7014,6.7014,6.7014,6.7014,6.7014,6.7014,6.7014,6.7014,6.634,6.634,6.6969,6.6311,6.637,4.3441,4.441,4.5506,4.6229,4.7338,4.8704,5.0544,5.1523,5.2772,5.53,5.5957,5.5905,5.5379,5.6254,5.6975,5.6677,5.8133,5.9815,6.1259,6.1564,6.168,6.1876,6.2454,6.2706,6.2278,6.2924,6.3273,6.3108,6.3108,6.3108,6.3108,6.3108,6.3108,6.3108,6.2644,6.2405,6.2405,6.1268,6.0924,6.1389,6.0715,6.0519,6.0699,6.0699,6.0326,5.9697,5.9488,5.9398,5.9368,5.9189,5.9099,5.9099,5.9099,5.9099,5.9099,5.9099,5.9099,5.9099,5.9099,5.9099,5.9099,5.9099,5.9099,5.9099,5.9099,5.9099,5.9099,5.9099,5.9099,5.9219,5.9681,5.9801,5.9861,6.004,6.0954,6.1852,6.2061,6.2614,6.3108,6.3108,6.3602,6.4216,6.4874,6.5547,6.646,6.7808,6.8167,6.8541,6.9213,6.9842,6.9768,6.8451,6.8541,6.8451,6.7778,6.7703,6.7703,6.7703,6.7254,6.7014,6.7014,6.7014,6.7014,6.7014,6.7014,6.7014,6.7014,6.6789,6.6805,6.7014,6.6789,6.6819,4.3409,4.4282,4.5373,4.6966,4.8165,4.9505,5.1717,5.2991,5.4298,5.6345,5.6868,5.6725,5.6051,5.6814,5.7537,5.7482,5.8566,5.983,6.0895,6.1229,6.1434,6.1583,6.1776,6.2028,6.2263,6.2673,6.2963,6.3093,6.3108,6.2974,6.2704,6.2704,6.2584,6.2301,6.1912,6.1702,6.1702,6.0639,6.031,6.0671,6.0027,5.9711,5.9697,5.998,5.9727,5.9099,5.9099,5.9099,5.9099,5.9099,5.9099,5.9099,5.9099,5.9099,5.9099,5.9099,5.9099,5.9099,5.9099,5.9099,5.9099,5.9099,5.9099,5.9099,5.9099,5.9099,5.9159,5.9428,5.9488,5.9578,6.001,6.031,6.0505,6.0505,6.1313,6.2091,6.2091,6.2614,6.3108,6.3108,6.3393,6.3857,6.45,6.4949,6.5742,6.7343,6.8062,6.863,6.9319,6.9738,6.9678,6.887,6.9169,6.9139,6.8451,6.8151,6.7987,6.7987,6.7373,6.7014,6.7014,6.7014,6.7014,6.7014,6.7014,6.7014,6.7014,6.7014,6.7014,6.7014,6.7014,6.7014,4.3398,4.3753,4.4519,4.8343,4.9499,5.0525,5.3754,5.4996,5.5809,5.6984,5.6839,5.6665,5.7216,5.6868,5.6897,5.8203,5.913,5.9786,6.0208,6.0996,6.1539,6.1481,6.154,6.1836,6.2454,6.2556,6.2731,6.3036,6.3019,6.2734,6.2121,6.2032,6.1732,6.112,6.103,6.1,6.1,6.0326,6.001,6.001,5.9398,5.9099,5.9129,5.9741,5.9681,5.9099,5.9099,5.9099,5.9099,5.9099,5.9099,5.9099,5.9099,5.9099,5.9099,5.9099,5.9099,5.9099,5.9099,5.9099,5.9099,5.9099,5.9099,5.9099,5.9099,5.9129,5.9308,5.9861,6.004,6.01,6.01,6.0565,6.1,6.1,6.1583,6.2091,6.2091,6.2614,6.3108,6.3108,6.3108,6.3273,6.3887,6.4006,6.4665,6.6625,6.8046,6.9139,6.9738,6.9917,6.9977,6.9917,7.0007,6.9828,6.9153,6.8481,6.8107,6.8107,6.7403,6.7014,6.7014,6.7014,6.7014,6.7014,6.7014,6.7014,6.7014,6.7014,6.7014,6.7014,6.7014,6.7014,4.4344,4.5189,4.6379,4.8725,5.0951,5.2929,5.42,5.5374,5.6244,5.6549,5.6868,5.7158,5.7274,5.7173,5.762,5.9144,5.9379,5.967,6.0487,6.101,6.1095,6.0571,6.1143,6.1673,6.1806,6.2278,6.2629,6.2702,6.2457,6.2241,6.2121,6.1613,6.1239,6.109,6.0595,6.031,6.031,5.9638,5.9308,5.9308,5.9189,5.9099,5.9099,5.9249,5.9249,5.9099,5.9099,5.9099,5.9099,5.9099,5.9099,5.9099,5.9099,5.9099,5.9099,5.9099,5.9099,5.9099,5.9099,5.9099,5.9099,5.9099,5.9099,5.9099,5.9099,5.9458,5.9801,5.9428,5.9697,6.01,6.01,6.022,6.031,6.031,6.1224,6.2091,6.2091,6.2614,6.3108,6.3108,6.3108,6.3273,6.3887,6.4006,6.4515,6.5981,6.7373,6.8271,6.8407,6.9349,6.9798,6.9273,7.0111,7.044,6.9828,6.9169,6.8764,6.8764,6.7657,6.7014,6.7014,6.7014,6.7014,6.7014,6.7014,6.7014,6.7014,6.7014,6.7014,6.7014,6.7014,6.7014,4.418,4.5418,4.7123,4.9738,5.2207,5.4068,5.4416,5.549,5.639,5.639,5.6883,5.7303,5.7303,5.7303,5.7679,5.8825,5.9043,5.9393,6.034,6.0471,6.0412,6.0221,6.0383,6.0691,6.113,6.1498,6.182,6.211,6.1956,6.165,6.1164,6.0805,6.0475,6.0133,5.9787,5.9608,5.9608,5.9279,5.9099,5.9099,5.9099,5.9099,5.9099,5.9099,5.9099,5.9099,5.9099,5.9099,5.9099,5.9099,5.9099,5.9099,5.9099,5.9099,5.9099,5.9099,5.9099,5.9099,5.9099,5.9099,5.9099,5.9099,5.9099,5.9099,5.9099,5.9338,5.9621,5.9578,5.9831,6.01,6.01,6.034,6.0416,5.9757,6.0894,6.2002,6.1702,6.2405,6.3108,6.3108,6.3108,6.3183,6.3512,6.3797,6.4366,6.5368,6.64,6.7284,6.7928,6.89,6.9512,6.9482,7.032,7.0649,7.0037,6.9393,6.8854,6.8541,6.7553,6.7014,6.7014,6.7014,6.7014,6.7014,6.7014,6.7014,6.7014,6.7313,6.7313,6.7014,6.7313,6.7313,4.3879,4.5642,4.7968,5.0999,5.3226,5.4619,5.4532,5.549,5.639,5.639,5.6883,5.7303,5.7303,5.7345,5.762,5.8275,5.8619,5.907,5.9859,5.9772,5.9684,5.9858,5.9626,5.9728,6.0399,6.0662,6.0939,6.1312,6.1336,6.0971,6.0146,5.998,5.9668,5.9129,5.9099,5.9099,5.9099,5.9099,5.9099,5.9099,5.9099,5.9099,5.9099,5.9099,5.9099,5.9099,5.9099,5.9099,5.9099,5.9099,5.9099,5.9099,5.9099,5.9099,5.9099,5.9099,5.9099,5.9099,5.9099,5.9099,5.9099,5.9099,5.9099,5.9099,5.9099,5.9189,5.9368,5.9801,6.001,6.01,6.01,6.0505,6.0685,5.9697,6.0805,6.1912,6.1239,6.2151,6.3108,6.3108,6.3108,6.3108,6.3108,6.3602,6.4246,6.4904,6.5577,6.643,6.7673,6.8421,6.9064,6.9768,7.038,7.053,7.0037,6.9393,6.8704,6.8047,6.7373,6.7014,6.7014,6.7014,6.7014,6.7014,6.7014,6.7014,6.7014,6.7553,6.7523,6.7014,6.7553,6.7523,4.4584,4.7537,5.0515,5.2062,5.3891,5.5142,5.4619,5.549,5.639,5.639,5.6883,5.7303,5.7303,5.7528,5.7943,5.8631,5.8704,5.8776,5.8952,5.9189,5.9147,5.861,5.9451,5.9931,5.9539,6.0428,6.0849,6.0419,6.0336,6.0238,6.01,5.9548,5.9189,5.9099,5.9099,5.9099,5.9099,5.9099,5.9099,5.9099,5.9099,5.9099,5.9099,5.9099,5.9099,5.9099,5.9099,5.9099,5.9099,5.9099,5.9099,5.9099,5.9099,5.9099,5.9099,5.9099,5.9099,5.9099,5.9099,5.9099,5.9099,5.9099,5.9099,5.9099,5.9099,5.9502,5.9861,5.9368,5.9638,6.01,6.01,6.016,6.0326,6.0745,6.1493,6.1912,6.1239,6.2151,6.3108,6.3108,6.3108,6.3108,6.3108,6.3602,6.4246,6.4904,6.5577,6.6281,6.7044,6.7703,6.8391,6.9064,6.9738,7.0097,7.0007,6.9393,6.8704,6.8047,6.7373,6.7014,6.7014,6.7014,6.7014,6.7014,6.7014,6.7014,6.7014,6.7104,6.7104,6.7014,6.7104,6.7104,4.6338,4.887,5.1087,5.2688,5.4255,5.5229,5.4648,5.549,5.639,5.639,5.6732,5.7078,5.7273,5.7696,5.8063,5.8232,5.833,5.8575,5.8971,5.8815,5.8701,5.8789,5.8822,5.8969,5.9213,5.9534,5.9792,5.9881,5.985,5.9744,5.9548,5.9249,5.9099,5.9099,5.9099,5.9099,5.9099,5.9099,5.9099,5.9099,5.9099,5.9099,5.9099,5.9099,5.9099,5.9099,5.9099,5.9099,5.9099,5.9099,5.9099,5.9099,5.9099,5.9099,5.9099,5.9099,5.9099,5.9099,5.9099,5.9099,5.9099,5.9099,5.9099,5.9099,5.9099,5.9308,5.9488,5.9189,5.9308,5.9548,5.9548,6.0086,6.0655,6.0565,6.1343,6.2032,6.1732,6.2435,6.3108,6.3108,6.3108,6.3108,6.3108,6.3333,6.3827,6.4859,6.5233,6.5817,6.6864,6.7912,6.8675,6.8974,6.9618,6.9858,6.9453,6.884,6.8151,6.7493,6.7164,6.7014,6.7014,6.7014,6.7014,6.7014,6.7014,6.7014,6.7014,6.7373,6.7373,6.7014,6.7373,6.7373,4.6954,4.8865,5.0465,5.2426,5.4004,5.506,5.4983,5.5722,5.639,5.639,5.668,5.6946,5.6905,5.7699,5.8166,5.7645,5.7982,5.8484,5.8903,5.8519,5.8401,5.8889,5.8472,5.8371,5.889,5.8955,5.9039,5.9337,5.9434,5.9348,5.9115,5.9099,5.9099,5.9099,5.9099,5.9099,5.9099,5.9099,5.9099,5.9099,5.9099,5.9099,5.9099,5.9099,5.9099,5.9099,5.9099,5.9099,5.9099,5.9099,5.9099,5.9099,5.9099,5.9099,5.9099,5.9099,5.9099,5.9099,5.9099,5.9099,5.9099,5.9099,5.9099,5.9099,5.9099,5.9099,5.9099,5.9099,5.9099,5.9129,5.9308,6.0086,6.0805,6.0639,6.1387,6.2091,6.2091,6.2614,6.3108,6.3108,6.3108,6.3108,6.3108,6.3108,6.3482,6.459,6.4874,6.5473,6.6835,6.7867,6.8615,6.8974,6.9289,6.9289,6.8794,6.8271,6.7703,6.7044,6.7014,6.7014,6.7014,6.7014,6.7014,6.7014,6.7014,6.7014,6.7014,6.7493,6.7493,6.7014,6.7493,6.7463,4.5166,4.6785,4.8645,5.0806,5.2756,5.4525,5.5986,5.6361,5.639,5.639,5.6858,5.6996,5.6039,5.7397,5.8251,5.7044,5.7882,5.8584,5.8295,5.8225,5.8225,5.8254,5.8757,5.8904,5.8313,5.9023,5.9337,5.8796,5.8982,5.9102,5.9099,5.9099,5.9099,5.9099,5.9099,5.9099,5.9099,5.9099,5.9099,5.9099,5.9099,5.9099,5.9099,5.9099,5.9099,5.9099,5.9099,5.9099,5.9099,5.9099,5.9099,5.9099,5.9099,5.9099,5.9099,5.9099,5.9099,5.9099,5.9099,5.9099,5.9099,5.9099,5.9099,5.9099,5.9099,5.9099,5.9099,5.9099,5.9099,5.9249,5.9891,6.01,6.0459,6.1702,6.2061,6.2091,6.2091,6.2614,6.3108,6.3108,6.3108,6.3108,6.3108,6.3108,6.3303,6.3947,6.459,6.5473,6.6835,6.7074,6.7597,6.8854,6.8451,6.8107,6.8047,6.8017,6.7703,6.7044,6.7014,6.7014,6.7014,6.7014,6.7014,6.7014,6.7014,6.7014,6.7014,6.7044,6.7029,6.7014,6.7044,6.7029,4.5412,4.6526,4.7653,4.9605,5.1686,5.3407,5.3919,5.4911,5.5765,5.5765,5.5771,5.5646,5.5307,5.7277,5.8486,5.6971,5.7994,5.876,5.8221,5.8505,5.8787,5.8787,5.8831,5.8849,5.8789,5.8913,5.9,5.8966,5.9045,5.9099,5.9099,5.9099,5.9099,5.9099,5.9099,5.9099,5.9099,5.9099,5.9099,5.9099,5.9099,5.9099,5.9099,5.9099,5.9099,5.9099,5.9099,5.9099,5.9099,5.9099,5.9099,5.9099,5.9099,5.9099,5.9099,5.9099,5.9099,5.9099,5.9099,5.9099,5.9099,5.9099,5.9099,5.9099,5.9099,5.9099,5.9099,5.9099,5.9099,5.9159,5.9398,5.9771,6.034,6.1253,6.1792,6.2091,6.2091,6.2285,6.2584,6.3018,6.3108,6.3108,6.3108,6.3108,6.3452,6.45,6.4859,6.5473,6.6835,6.7373,6.7822,6.8301,6.8122,6.7987,6.7987,6.7628,6.7254,6.7014,6.7014,6.7014,6.7014,6.7014,6.7014,6.7014,6.7014,6.7014,6.7014,6.7014,6.7014,6.7014,6.7014,6.7014,4.5064,4.5749,4.6502,4.855,5.0091,5.147,5.2736,5.3804,5.4633,5.5027,5.5165,5.5116,5.465,5.661,5.7928,5.6865,5.7852,5.8697,5.8457,5.8816,5.9099,5.9099,5.8923,5.8896,5.9072,5.8923,5.8896,5.9085,5.9099,5.9099,5.9099,5.9099,5.9099,5.9099,5.9099,5.9099,5.9099,5.9099,5.9099,5.9099,5.9099,5.9099,5.9099,5.9099,5.9099,5.9099,5.9099,5.9099,5.9099,5.9099,5.9099,5.9099,5.9099,5.9099,5.9099,5.9099,5.9099,5.9099,5.9099,5.9099,5.9099,5.9099,5.9099,5.9099,5.9099,5.9099,5.9099,5.9099,5.9099,5.9099,5.9099,5.9608,6.022,6.0655,6.1283,6.1822,6.2061,6.2285,6.2555,6.3003,6.3108,6.3108,6.3108,6.3108,6.3393,6.4231,6.474,6.5398,6.652,6.7254,6.7748,6.7987,6.7808,6.7643,6.7643,6.7254,6.7014,6.7014,6.7014,6.7014,6.7014,6.7014,6.7014,6.7014,6.7014,6.7014,6.7014,6.7014,6.7014,6.7014,6.7014,6.7014,0.0,0.0,0.0,4.7484,4.7923,4.8759,5.2632,5.3104,5.3049,5.418,5.5152,5.5395,5.4124,5.5404,5.6631,5.6674,5.7464,5.8308,5.8936,5.9069,5.9069,5.9099,5.9099,5.9099,5.9099,5.9099,5.9099,5.9099,5.9099,5.9099,5.9099,5.9099,5.9099,5.9099,5.9069,5.9056,5.9056,5.9056,5.9056,5.9056,5.9099,5.9099,5.9099,5.9099,5.9099,5.9099,5.9099,5.9099,5.9099,5.9099,5.9099,5.9099,5.9099,5.9099,5.9099,5.9099,5.9099,5.9099,5.9099,5.9099,5.9099,5.9099,5.9099,5.9099,5.9099,5.9099,5.9099,5.9099,5.9099,5.9099,5.9099,5.9578,6.007,6.01,6.0595,6.1269,6.1942,6.2614,6.3078,6.3108,6.3108,6.3108,6.3108,6.3108,6.3108,6.3123,6.4216,6.5233,6.5906,6.658,6.7254,6.7898,6.7373,6.7014,6.7014,6.7014,6.7014,6.7014,6.7014,6.7014,6.7014,6.7014,6.7014,6.7014,6.7014,6.7014,6.7014,6.7014,6.7014,6.7014,6.7014,6.7014,4.3735,0.0,0.0,0.0,0.0,0.0,4.8737,4.9905,5.1054,5.2302,5.2683,5.3014,5.3763,5.4329,5.5054,5.6224,5.6958,5.7453,5.7633,5.8068,5.8577,5.9039,5.9099,5.9099,5.9099,5.9099,5.9099,5.9099,5.9099,5.9099,5.9099,5.9099,5.9099,5.9099,5.8637,5.8397,5.8397,5.8397,5.8397,5.8384,5.889,5.9099,5.9099,5.9099,5.9099,5.9099,5.9099,5.9099,5.9099,5.9099,5.9099,5.9099,5.9099,5.9099,5.9099,5.9099,5.9099,5.9099,5.9099,5.9099,5.9099,5.9099,5.9099,5.9099,5.9099,5.9099,5.9099,5.9099,5.9099,5.9099,5.9099,5.9249,5.9488,5.998,6.025,6.0685,6.1852,6.2241,6.2525,6.3018,6.3108,6.3108,6.3108,6.3108,6.3243,6.3692,6.447,6.5233,6.5906,6.658,6.7074,6.7254,6.7104,6.7014,6.7014,6.7014,6.7014,6.7014,6.7014,6.7014,6.7014,6.7014,6.7014,6.7014,6.7014,6.7014,6.7014,6.7014,6.7014,6.7014,6.7014,6.7014,0.0,0.0,4.3444,4.4053,0.0,0.0,4.7581,4.8432,4.9497,5.1997,5.2438,5.2668,5.3564,5.4061,5.4567,5.5325,5.5833,5.6506,5.761,5.8211,5.8667,5.9069,5.9099,5.9099,5.9099,5.9099,5.9099,5.9099,5.9099,5.8979,5.8697,5.8411,5.8397,5.8667,5.8038,5.7829,5.8085,5.7829,5.7829,5.8085,5.8517,5.8816,5.9099,5.9099,5.9099,5.9099,5.9099,5.9099,5.9099,5.9099,5.9099,5.9099,5.9099,5.9099,5.9099,5.9099,5.9099,5.9099,5.9099,5.9099,5.9099,5.9099,5.9099,5.9099,5.9099,5.9099,5.9099,5.9099,5.9099,5.9099,5.9099,5.9099,5.9189,5.9578,5.9891,6.031,6.1118,6.1493,6.1972,6.2928,6.3108,6.3108,6.3108,6.3108,6.3213,6.3572,6.4171,6.471,6.5114,6.5742,6.6281,6.655,6.658,6.67,6.6984,6.7014,6.7014,6.7014,6.7014,6.7014,6.7014,6.7014,6.7014,6.7014,6.7014,6.7014,6.7014,6.7014,6.7014,6.7014,6.7014,6.7014,0.0,0.0,0.0,4.3873,4.3451,0.0,4.7646,4.7618,4.7931,5.1986,5.2814,5.2853,5.3085,5.3788,5.4242,5.3889,5.427,5.5517,5.8051,5.8681,5.8919,5.8979,5.9069,5.9056,5.9009,5.9009,5.9009,5.9009,5.9009,5.8726,5.8115,5.744,5.7363,5.7979,5.7423,5.7363,5.7876,5.7453,5.747,5.7995,5.8145,5.8517,5.9099,5.9099,5.9099,5.9099,5.9099,5.9099,5.9099,5.9099,5.9099,5.9099,5.9099,5.9099,5.9099,5.9099,5.9099,5.9099,5.9099,5.9099,5.9099,5.9099,5.9069,5.9009,5.9009,5.8949,5.8876,5.8979,5.9039,5.9099,5.9099,5.9099,5.9099,5.9099,5.9561,6.001,6.007,6.0565,6.1373,6.2614,6.2944,6.3003,6.3108,6.3108,6.3108,6.3108,6.3602,6.4006,6.4006,6.459,6.5263,6.5936,6.5996,6.6281,6.6954,6.7014,6.7014,6.7014,6.7014,6.7014,6.7014,6.7014,6.7014,6.7014,6.7014,6.7014,6.7014,6.7014,6.7014,6.7014,6.7014,6.7014,4.3235,4.3213,4.3202,4.317,4.303,0.0,4.4554,4.4554,4.5101,4.7927,4.8479,4.8896,5.0412,5.0833,5.094,5.0931,5.2389,5.4273,5.6378,5.7158,5.7693,5.8248,5.8756,5.8876,5.8367,5.8308,5.8308,5.8308,5.8308,5.8234,5.8115,5.744,5.7154,5.7304,5.7154,5.6928,5.6568,5.7453,5.7709,5.7304,5.8397,5.8966,5.9099,5.9099,5.9099,5.9099,5.9099,5.9099,5.9099,5.9099,5.9099,5.9099,5.9099,5.9099,5.9099,5.9099,5.9099,5.9099,5.9099,5.9099,5.9099,5.9099,5.8726,5.8308,5.8308,5.7919,5.7603,5.8158,5.8697,5.9099,5.9099,5.9099,5.9099,5.9099,5.9189,5.9428,5.998,6.019,6.0535,6.1329,6.1942,6.2465,6.3003,6.3108,6.3108,6.3108,6.3602,6.4006,6.4006,6.459,6.5263,6.5936,6.5996,6.6281,6.6954,6.7014,6.7014,6.7014,6.7014,6.7014,6.7014,6.7014,6.7014,6.7014,6.7014,6.7014,6.7014,6.7014,6.7014,6.7014,6.7014,6.7014,4.2903,4.2873,4.3136,4.3302,4.3103,0.0,0.0,4.4588,4.4773,4.725,4.7711,4.7985,4.8913,4.9377,4.9654,4.9781,5.1187,5.2762,5.4206,5.5859,5.7056,5.7547,5.7902,5.7962,5.762,5.759,5.759,5.759,5.7334,5.7154,5.7154,5.6539,5.6299,5.6628,5.6329,5.6179,5.6192,5.6496,5.6795,5.7094,5.7782,5.8441,5.9099,5.9099,5.9099,5.9099,5.9099,5.9099,5.9099,5.9099,5.9099,5.9099,5.9099,5.9099,5.9099,5.9099,5.8876,5.8607,5.8607,5.8381,5.8112,5.8112,5.7872,5.7649,5.7995,5.8098,5.8171,5.8487,5.8846,5.9099,5.9099,5.9099,5.9099,5.9099,5.9099,5.9189,5.9518,5.9608,5.9787,6.0475,6.0864,6.1327,6.1986,6.2091,6.2091,6.2091,6.263,6.3049,6.3049,6.3647,6.4306,6.4934,6.5308,6.5757,6.643,6.6819,6.7014,6.7014,6.7014,6.7014,6.7014,6.7014,6.7014,6.7014,6.7014,6.7014,6.7014,6.7014,6.7014,6.6984,6.667,6.649,4.2646,4.2521,4.3021,4.3495,4.3278,4.3387,0.0,0.0,0.0,4.692,4.7356,4.7384,4.7511,4.7971,4.83,4.8251,4.9509,5.0669,5.1106,5.3571,5.5696,5.6724,5.6978,5.7034,5.6958,5.6928,5.6928,5.6928,5.6492,5.6192,5.6192,5.5551,5.5461,5.5983,5.5611,5.5581,5.6013,5.57,5.603,5.6928,5.7184,5.7872,5.8906,5.8906,5.8979,5.9099,5.8966,5.8979,5.9099,5.9099,5.9099,5.9099,5.9099,5.9099,5.9085,5.8949,5.8577,5.8085,5.7935,5.756,5.7094,5.7094,5.7017,5.7047,5.7573,5.8188,5.874,5.889,5.8906,5.8949,5.9069,5.9009,5.8949,5.9056,5.9099,5.9099,5.9099,5.9099,5.9249,5.9801,5.9921,6.0146,6.097,6.109,6.109,6.109,6.1539,6.1912,6.1912,6.2375,6.2944,6.3558,6.4351,6.5099,6.5757,6.655,6.7014,6.7014,6.7014,6.7014,6.7014,6.7014,6.7014,6.7014,6.7014,6.7014,6.7014,6.7014,6.6939,6.6789,6.6251,6.5936,4.3233,4.2858,4.2913,4.2994,4.294,4.2979,4.3242,0.0,4.3333,4.4142,0.0,4.4454,4.5002,0.0,0.0,4.3809,4.5967,4.7336,4.6118,4.8459,5.1696,5.5429,5.6579,5.6898,5.6342,5.6312,5.6312,5.6312,5.6222,5.6192,5.6192,5.5551,5.5222,5.5311,5.5833,5.5833,5.5311,5.6359,5.6688,5.6312,5.7453,5.8055,5.8205,5.8205,5.8547,5.9069,5.8487,5.8547,5.9099,5.9099,5.9099,5.9099,5.9099,5.9099,5.9039,5.8414,5.8188,5.8038,5.7423,5.7154,5.7094,5.7094,5.6748,5.6312,5.6402,5.6838,5.7453,5.8038,5.8205,5.8367,5.8936,5.8667,5.8367,5.8966,5.9099,5.9099,5.9099,5.9099,5.9129,5.9189,5.9219,5.9608,6.088,6.109,6.109,6.109,6.115,6.121,6.121,6.1269,6.1569,6.2241,6.3378,6.4395,6.5054,6.6281,6.7014,6.7014,6.7014,6.7014,6.7014,6.7014,6.7014,6.7014,6.7014,6.7014,6.7014,6.7014,6.67,6.6116,6.6026,6.5697,4.3254,4.3646,4.4242,4.3596,4.3931,4.4242,4.3568,4.3157,4.2967,4.3211,0.0,0.0,0.0,0.0,0.0,0.0,4.5029,4.6173,4.5894,4.7659,4.969,5.159,5.2462,5.3359,5.4511,5.5069,5.5475,5.5875,5.5359,5.5222,5.5611,5.5341,5.5192,5.5192,5.5461,5.5491,5.5192,5.573,5.606,5.6222,5.7094,5.7709,5.8115,5.8517,5.8816,5.9085,5.8786,5.8637,5.8517,5.8517,5.8278,5.7992,5.8367,5.8517,5.8457,5.7769,5.7304,5.6958,5.6671,5.6329,5.6,5.6,5.609,5.6282,5.6611,5.7184,5.7739,5.8025,5.8397,5.8667,5.8547,5.8607,5.8756,5.9026,5.9099,5.9099,5.9099,5.9099,5.9099,5.9099,5.9099,5.9279,5.9833,5.9923,5.9923,5.9923,6.0266,6.0505,6.0505,6.0864,6.121,6.1493,6.269,6.3722,6.4351,6.5652,6.658,6.6984,6.7014,6.7014,6.7014,6.7014,6.7014,6.7014,6.7014,6.6819,6.643,6.643,6.5892,6.4844,6.5248,6.5263,4.3724,4.4209,4.4811,4.4082,4.4342,4.456,4.3744,4.3332,4.3103,4.294,4.3021,0.0,0.0,0.0,4.2994,4.3278,0.0,4.5071,4.5181,4.6404,4.7671,4.877,4.9483,5.0606,5.2349,5.3048,5.3676,5.4378,5.375,5.3801,5.4867,5.491,5.4999,5.5179,5.5192,5.5192,5.5192,5.5192,5.5431,5.5953,5.6718,5.7274,5.762,5.8427,5.8816,5.8816,5.8816,5.8547,5.8085,5.8085,5.7709,5.7124,5.744,5.756,5.753,5.7214,5.6718,5.6162,5.5983,5.5611,5.5192,5.5192,5.5521,5.606,5.6868,5.7453,5.7919,5.8278,5.8577,5.8756,5.8457,5.8607,5.8876,5.9069,5.9099,5.9099,5.9099,5.9099,5.9099,5.9099,5.9099,5.9099,5.9099,5.9099,5.9099,5.9099,5.9518,5.9831,5.9831,6.0266,6.0551,6.0551,6.1762,6.2884,6.3677,6.4964,6.6101,6.6954,6.7014,6.7014,6.7014,6.7014,6.7014,6.7014,6.7014,6.6759,6.6281,6.6101,6.5413,6.4276,6.459,6.465,4.5049,4.4264,4.3748,4.4084,4.3594,4.2964,4.294,4.3386,4.3603,4.3021,4.3359,4.3603,4.3021,4.2913,0.0,0.0,4.306,0.0,0.0,4.3191,4.5111,4.8238,4.937,4.9937,5.002,5.0045,5.0385,5.1184,5.1216,5.2083,5.4112,5.4239,5.4521,5.5192,5.5192,5.5192,5.5192,5.5192,5.5222,5.5251,5.6496,5.6808,5.6312,5.7573,5.8115,5.8115,5.8115,5.8115,5.8085,5.8085,5.7709,5.7034,5.6492,5.6252,5.6342,5.6898,5.6718,5.6102,5.5461,5.5222,5.5192,5.5192,5.5222,5.5461,5.6718,5.7137,5.7393,5.871,5.8607,5.8278,5.8919,5.8607,5.8308,5.8936,5.9099,5.9099,5.9099,5.9099,5.9099,5.9099,5.9099,5.9099,5.9099,5.9099,5.9099,5.9099,5.9129,5.9115,5.9115,5.9159,5.9159,5.9159,6.0342,6.1702,6.3003,6.4291,6.5607,6.6924,6.7014,6.7014,6.7014,6.7014,6.7014,6.7014,6.7014,6.6984,6.6984,6.6311,6.5637,6.4964,6.4321,6.3722,4.5232,4.6445,4.7243,4.5007,4.5447,4.5777,4.3448,4.3386,4.3789,4.3782,4.3781,4.3801,4.3755,4.3279,0.0,0.0,0.0,4.3048,0.0,4.294,4.376,4.5252,4.7086,4.8244,4.8244,4.9938,5.1322,5.2049,5.2348,5.299,5.4137,5.461,5.476,5.4551,5.4982,5.5192,5.5192,5.5192,5.5192,5.5222,5.6496,5.6778,5.6252,5.75,5.8085,5.8085,5.8085,5.8085,5.8055,5.762,5.7077,5.6492,5.6282,5.5923,5.5551,5.576,5.57,5.5491,5.5281,5.5192,5.5192,5.5192,5.5491,5.6013,5.6838,5.7423,5.7859,5.8308,5.8607,5.8697,5.8474,5.8607,5.8816,5.9069,5.9099,5.9099,5.9099,5.9099,5.9099,5.9099,5.9099,5.9099,5.9099,5.9099,5.9099,5.9099,5.9099,5.9099,5.9099,5.9099,5.9099,5.9099,5.9907,6.1178,6.2958,6.5084,6.652,6.6969,6.7014,6.7014,6.7014,6.7014,6.7014,6.7014,6.7014,6.6789,6.634,6.6116,6.5428,6.4321,6.4126,6.3887,4.6343,4.7592,4.8345,4.6197,4.6602,4.6898,4.4502,4.4416,4.4862,4.4802,4.4528,4.4273,4.4325,4.3548,4.2913,0.0,0.0,0.0,0.0,4.2913,4.3048,4.3441,4.5054,4.637,4.6963,4.8113,4.9386,5.0726,5.1156,5.1856,5.305,5.4204,5.476,5.4551,5.497,5.5192,5.5192,5.5192,5.5192,5.5222,5.6496,5.6658,5.5893,5.741,5.7859,5.7453,5.7649,5.762,5.738,5.6958,5.6419,5.585,5.585,5.5581,5.5222,5.5461,5.5401,5.5192,5.5192,5.5192,5.5192,5.5192,5.5491,5.597,5.6598,5.7244,5.7949,5.8906,5.9145,5.9189,5.9444,5.9295,5.9099,5.9099,5.9099,5.9099,5.9099,5.9099,5.9099,5.9099,5.9099,5.9099,5.9099,5.9099,5.9099,5.9099,5.9099,5.9099,5.9099,5.9099,5.9099,5.9099,5.9488,6.0669,6.2928,6.5488,6.7014,6.7014,6.7014,6.7014,6.7014,6.7014,6.7433,6.8375,6.7238,6.6879,6.7372,6.5966,6.4844,6.4006,6.3782,6.3677]}]]